[[{"header":{"parameterUnit":"m.s-1","parameterCategory":1,"la1":30.6,"la2":28.766,"lo1":-90.7593,"lo2":-88.6598,"dy":0.0162,"dx":0.0183,"nx":116,"ny":114,"refTime":"2023-05-21T06:00:00:Z","depth":0,"parameterNumber":2,"parameterNumberName":"U-component_of_WINDS"},"data":[0.0,0.0,0.0,0.0,0.0,0.0,0.0,0.0,0.0,0.0,0.0,0.0,0.0,0.0,0.0,0.0,0.0,0.0,0.0,0.0,0.0,0.0,0.0,0.0,0.0,0.0,0.0,0.0,0.0,0.0,0.0,0.0,0.0,0.0,0.0,0.0,0.0,0.0,0.0,0.0,0.0,0.0,0.0,0.0,0.0,0.0,0.0,0.0,0.0,0.0,0.0,0.0,0.0,0.0,0.0,0.0,0.0,0.0,0.0,0.0,0.0,0.0,0.0,0.0,0.0,0.0,0.0,0.0,0.0,0.0,0.0,0.0,0.0,0.0,0.0,0.0,0.0,0.0,0.0,0.0,0.0,0.0,0.0,0.0,0.0,0.0,0.0,0.0,0.0,0.0,0.0,0.0,0.0,0.0,0.0,0.0,0.0,0.0,0.0,0.0,0.0,0.0,0.0,0.0,0.0,0.0,0.0,0.0,0.0,0.0,0.0,0.0,0.0,0.0,0.0,0.0,0.0,0.0,0.0,0.0,0.0,0.0,0.0,0.0,0.0,0.0,0.0,0.0,0.0,0.0,0.0,0.0,0.0,0.0,0.0,0.0,0.0,0.0,0.0,0.0,0.0,0.0,0.0,0.0,0.0,0.0,0.0,0.0,0.0,0.0,0.0,0.0,0.0,0.0,0.0,0.0,0.0,0.0,0.0,0.0,0.0,0.0,0.0,0.0,0.0,0.0,0.0,0.0,0.0,0.0,0.0,0.0,0.0,0.0,0.0,0.0,0.0,0.0,0.0,0.0,0.0,0.0,0.0,0.0,0.0,0.0,0.0,0.0,0.0,0.0,0.0,0.0,0.0,0.0,0.0,0.0,0.0,0.0,0.0,0.0,0.0,0.0,0.0,0.0,0.0,0.0,0.0,0.0,0.0,0.0,0.0,0.0,0.0,0.0,0.0,0.0,0.0,0.0,0.0,0.0,0.0,0.0,0.0,0.0,0.0,0.0,0.0,0.0,0.0,0.0,0.0,0.0,0.0,0.0,0.0,0.0,0.0,0.0,0.0,0.0,0.0,0.0,0.0,0.0,0.0,0.0,0.0,0.0,0.0,0.0,0.0,0.0,0.0,0.0,0.0,0.0,0.0,0.0,0.0,0.0,0.0,0.0,0.0,0.0,0.0,0.0,0.0,0.0,0.0,0.0,0.0,0.0,0.0,0.0,0.0,0.0,0.0,0.0,0.0,0.0,0.0,0.0,0.0,0.0,0.0,0.0,0.0,0.0,0.0,0.0,0.0,0.0,0.0,0.0,0.0,0.0,0.0,0.0,0.0,0.0,0.0,0.0,0.0,0.0,0.0,0.0,0.0,0.0,0.0,0.0,0.0,0.0,0.0,0.0,0.0,0.0,0.0,0.0,0.0,0.0,0.0,0.0,0.0,0.0,0.0,0.0,0.0,0.0,0.0,0.0,0.0,0.0,0.0,0.0,0.0,0.0,0.0,0.0,0.0,0.0,0.0,0.0,0.0,0.0,0.0,0.0,0.0,0.0,0.0,0.0,0.0,0.0,0.0,0.0,0.0,0.0,0.0,0.0,0.0,0.0,0.0,0.0,0.0,0.0,0.0,0.0,0.0,0.0,0.0,0.0,0.0,0.0,0.0,0.0,0.0,0.0,0.0,0.0,0.0,0.0,0.0,0.0,0.0,0.0,0.0,0.0,0.0,0.0,0.0,0.0,0.0,0.0,0.0,0.0,0.0,0.0,0.0,0.0,0.0,0.0,0.0,0.0,0.0,0.0,0.0,0.0,0.0,0.0,0.0,0.0,0.0,0.0,0.0,0.0,0.0,0.0,0.0,0.0,0.0,0.0,0.0,0.0,0.0,0.0,0.0,0.0,0.0,0.0,0.0,0.0,0.0,0.0,0.0,0.0,0.0,0.0,0.0,0.0,0.0,0.0,0.0,0.0,0.0,0.0,0.0,0.0,0.0,0.0,0.0,0.0,0.0,0.0,0.0,0.0,0.0,0.0,0.0,0.0,0.0,0.0,0.0,0.0,0.0,0.0,0.0,0.0,0.0,0.0,0.0,0.0,0.0,0.0,0.0,0.0,0.0,0.0,0.0,0.0,0.0,0.0,0.0,0.0,0.0,0.0,0.0,0.0,0.0,0.0,0.0,0.0,0.0,0.0,0.0,0.0,0.0,0.0,0.0,0.0,0.0,0.0,0.0,0.0,0.0,0.0,0.0,0.0,0.0,0.0,0.0,0.0,0.0,0.0,0.0,0.0,0.0,0.0,0.0,0.0,0.0,0.0,0.0,0.0,0.0,0.0,0.0,0.0,0.0,0.0,0.0,0.0,0.0,0.0,0.0,0.0,0.0,0.0,0.0,0.0,0.0,0.0,0.0,0.0,0.0,0.0,0.0,0.0,0.0,0.0,0.0,0.0,0.0,0.0,0.0,0.0,0.0,0.0,0.0,0.0,0.0,0.0,0.0,0.0,0.0,0.0,0.0,0.0,0.0,0.0,0.0,0.0,0.0,0.0,0.0,0.0,0.0,0.0,0.0,0.0,0.0,0.0,0.0,0.0,0.0,0.0,0.0,0.0,0.0,0.0,0.0,0.0,0.0,0.0,0.0,0.0,0.0,0.0,0.0,0.0,0.0,0.0,0.0,0.0,0.0,0.0,0.0,0.0,0.0,0.0,0.0,0.0,0.0,0.0,0.0,0.0,0.0,0.0,0.0,0.0,0.0,0.0,0.0,0.0,0.0,0.0,0.0,0.0,0.0,0.0,0.0,0.0,0.0,0.0,0.0,0.0,0.0,0.0,0.0,0.0,0.0,0.0,0.0,0.0,0.0,0.0,0.0,0.0,0.0,0.0,0.0,0.0,0.0,0.0,0.0,0.0,0.0,0.0,0.0,0.0,0.0,0.0,0.0,0.0,0.0,0.0,0.0,0.0,0.0,0.0,0.0,0.0,0.0,0.0,0.0,0.0,0.0,0.0,0.0,0.0,0.0,0.0,0.0,0.0,0.0,0.0,0.0,0.0,0.0,0.0,0.0,0.0,0.0,0.0,0.0,0.0,0.0,0.0,0.0,0.0,0.0,0.0,0.0,0.0,0.0,0.0,0.0,0.0,0.0,0.0,0.0,0.0,0.0,0.0,0.0,0.0,0.0,0.0,0.0,0.0,0.0,0.0,0.0,0.0,0.0,0.0,0.0,0.0,0.0,0.0,0.0,0.0,0.0,0.0,0.0,0.0,0.0,0.0,0.0,0.0,0.0,0.0,0.0,0.0,0.0,0.0,0.0,0.0,0.0,0.0,0.0,0.0,0.0,0.0,0.0,0.0,0.0,0.0,0.0,0.0,0.0,0.0,0.0,0.0,0.0,0.0,0.0,0.0,0.0,0.0,0.0,0.0,0.0,0.0,0.0,0.0,0.0,0.0,0.0,0.0,0.0,0.0,0.0,0.0,0.0,0.0,0.0,0.0,0.0,0.0,0.0,0.0,0.0,0.0,0.0,0.0,0.0,0.0,0.0,0.0,0.0,0.0,0.0,0.0,0.0,0.0,0.0,0.0,0.0,0.0,0.0,0.0,0.0,0.0,0.0,0.0,0.0,0.0,0.0,0.0,0.0,0.0,0.0,0.0,0.0,0.0,0.0,0.0,0.0,0.0,0.0,0.0,0.0,0.0,0.0,0.0,0.0,0.0,0.0,0.0,0.0,0.0,0.0,0.0,0.0,0.0,0.0,0.0,0.0,0.0,0.0,0.0,0.0,0.0,0.0,0.0,0.0,0.0,0.0,0.0,0.0,0.0,0.0,0.0,0.0,0.0,0.0,0.0,0.0,0.0,0.0,0.0,0.0,0.0,0.0,0.0,0.0,0.0,0.0,0.0,0.0,0.0,0.0,0.0,0.0,0.0,0.0,0.0,0.0,0.0,0.0,0.0,0.0,0.0,0.0,0.0,0.0,0.0,0.0,0.0,0.0,0.0,0.0,0.0,0.0,0.0,0.0,0.0,0.0,0.0,0.0,0.0,0.0,0.0,0.0,0.0,0.0,0.0,0.0,0.0,0.0,0.0,0.0,0.0,0.0,0.0,0.0,0.0,0.0,0.0,0.0,0.0,0.0,0.0,0.0,0.0,0.0,0.0,0.0,0.0,0.0,0.0,0.0,0.0,0.0,0.0,0.0,0.0,0.0,0.0,0.0,0.0,0.0,0.0,0.0,0.0,0.0,0.0,0.0,0.0,0.0,0.0,0.0,0.0,0.0,0.0,0.0,0.0,0.0,0.0,0.0,0.0,0.0,0.0,0.0,0.0,0.0,0.0,0.0,0.0,0.0,0.0,0.0,0.0,0.0,0.0,0.0,0.0,0.0,0.0,0.0,0.0,0.0,0.0,0.0,0.0,0.0,0.0,0.0,0.0,0.0,0.0,0.0,0.0,0.0,0.0,0.0,0.0,0.0,0.0,0.0,0.0,0.0,0.0,0.0,0.0,0.0,0.0,0.0,0.0,0.0,0.0,0.0,0.0,0.0,0.0,0.0,0.0,0.0,0.0,0.0,0.0,0.0,0.0,0.0,0.0,0.0,0.0,0.0,0.0,0.0,0.0,0.0,0.0,0.0,0.0,0.0,0.0,0.0,0.0,0.0,0.0,0.0,0.0,0.0,0.0,0.0,0.0,0.0,0.0,0.0,0.0,0.0,0.0,0.0,0.0,0.0,0.0,0.0,0.0,0.0,0.0,0.0,0.0,0.0,0.0,0.0,0.0,0.0,0.0,0.0,0.0,0.0,0.0,0.0,0.0,0.0,0.0,0.0,0.0,0.0,0.0,0.0,0.0,0.0,0.0,0.0,0.0,0.0,0.0,0.0,0.0,0.0,0.0,0.0,0.0,0.0,0.0,0.0,0.0,0.0,0.0,0.0,0.0,0.0,0.0,0.0,0.0,0.0,0.0,0.0,0.0,0.0,0.0,0.0,0.0,0.0,0.0,0.0,0.0,0.0,0.0,0.0,0.0,0.0,0.0,0.0,0.0,0.0,0.0,0.0,0.0,0.0,0.0,0.0,0.0,0.0,0.0,0.0,0.0,0.0,0.0,0.0,0.0,0.0,0.0,0.0,0.0,0.0,0.0,0.0,0.0,0.0,0.0,0.0,0.0,0.0,0.0,0.0,0.0,0.0,0.0,0.0,0.0,0.0,0.0,0.0,0.0,0.0,0.0,0.0,0.0,0.0,0.0,0.0,0.0,0.0,0.0,0.0,0.0,0.0,0.0,0.0,0.0,0.0,0.0,0.0,0.0,0.0,0.0,0.0,0.0,0.0,0.0,0.0,0.0,0.0,0.0,0.0,0.0,0.0,0.0,0.0,0.0,0.0,0.0,0.0,0.0,0.0,0.0,0.0,0.0,0.0,0.0,0.0,0.0,0.0,0.0,0.0,0.0,0.0,0.0,0.0,0.0,0.0,0.0,0.0,0.0,0.0,0.0,0.0,0.0,0.0,0.0,0.0,0.0,0.0,0.0,0.0,0.0,0.0,0.0,0.0,0.0,0.0,0.0,0.0,0.0,0.0,0.0,0.0,0.0,0.0,0.0,0.0,0.0,0.0,0.0,0.0,0.0,0.0,0.0,0.0,0.0,0.0,0.0,0.0,0.0,0.0,0.0,0.0,0.0,0.0,0.0,0.0,0.0,0.0,0.0,0.0,0.0,0.0,0.0,0.0,0.0,0.0,0.0,0.0,0.0,0.0,0.0,0.0,0.0,0.0,0.0,0.0,0.0,0.0,0.0,0.0,0.0,0.0,0.0,0.0,0.0,0.0,0.0,0.0,0.0,0.0,0.0,0.0,0.0,0.0,0.0,0.0,0.0,0.0,0.0,0.0,0.0,0.0,0.0,0.0,0.0,0.0,0.0,0.0,0.0,0.0,0.0,0.0,0.0,0.0,0.0,0.0,0.0,0.0,0.0,0.0,0.0,0.0,0.0,0.0,0.0,0.0,0.0,0.0,0.0,0.0,0.0,0.0,0.0,0.0,0.0,0.0,0.0,0.0,0.0,0.0,0.0,0.0,0.0,0.0,0.0,0.0,0.0,0.0,0.0,0.0,0.0,0.0,0.0,0.4508,0.4686,0.0,0.0,0.0,0.0,0.0,0.0,0.0,0.0,0.0,0.0,0.0,0.0,0.0,0.0,0.0,0.0,0.0,0.0,0.0,0.0,0.0,0.0,0.0,0.0,0.0,0.0,0.0,0.0,0.0,0.0,0.0,0.0,0.0,0.0,0.0,0.0,0.0,0.0,2.0121,2.0786,2.149,2.2255,2.2432,2.2091,0.0,0.0,0.0,0.0,0.0,0.0,0.0,0.0,0.0,0.0,0.0,0.0,0.0,0.0,0.0,0.0,0.0,0.0,0.0,0.0,0.0,0.0,0.0,0.0,0.0,0.0,0.0,0.0,0.0,0.0,0.0,0.0,0.0,0.0,0.0,0.0,0.0,0.0,0.0,0.0,0.0,0.0,0.0,0.0,0.0,0.0,0.0,0.0,0.0,0.0,0.0,0.0,0.0,0.0,0.0,0.0,0.0,0.0,0.0,0.0,0.0,0.0,0.0,0.0,0.0,0.0,0.0,0.0,0.0,0.0,0.3302,0.3932,0.0,0.0,0.0,0.0,0.0,0.0,0.0,0.0,0.0,0.0,0.0,0.0,0.0,0.0,0.0,0.0,0.0,0.0,0.0,0.0,0.0,0.0,0.0,1.754,1.7401,1.7458,1.7286,1.7346,0.0,0.0,0.0,0.0,0.0,0.0,0.0,1.8164,1.8573,1.8689,2.007,2.1154,2.19,2.182,2.1454,2.0885,2.1177,0.0,0.0,0.0,0.0,0.0,0.0,0.0,0.0,0.0,0.0,0.0,0.0,0.0,0.0,0.0,0.0,0.0,0.0,0.0,0.0,0.0,0.0,0.0,0.0,0.0,0.0,0.0,0.0,0.0,0.0,0.0,0.0,0.0,0.0,0.0,0.0,0.0,0.0,0.0,0.0,0.0,0.0,0.0,0.0,0.0,0.0,0.0,0.0,0.0,0.0,0.0,0.0,0.0,0.0,0.0,0.0,0.0,0.0,0.0,0.0,0.0,0.0,0.0,0.1235,0.1311,0.1311,0.1089,0.1015,0.1091,0.1756,0.2791,0.3961,0.3792,0.0,0.0,0.0,0.0,0.0,0.0,0.0,0.0,0.0,0.0,0.0,0.0,0.0,0.0,0.0,0.0,0.0,0.0,0.0,0.0,0.0,1.7634,1.7345,1.7631,1.6852,1.6559,1.7083,0.0,0.0,0.0,0.0,0.0,1.6994,1.7327,1.773,1.8203,1.9248,1.9843,1.9979,2.0351,2.0496,2.0464,2.19,2.2211,2.1628,0.0,0.0,0.0,0.0,0.0,0.0,0.0,0.0,0.0,0.0,0.0,0.0,0.0,0.0,0.0,0.0,0.0,0.0,0.0,0.0,0.0,0.0,0.0,0.0,0.0,0.0,0.0,0.0,0.0,0.0,0.0,0.0,0.0,0.0,0.0,0.0,0.0,0.0,0.0,0.0,0.0,0.5814,0.506,0.0,0.0,0.0,0.0,0.0,0.0,0.0,0.0,0.0,0.0,0.0,0.0,0.0,0.1538,0.121,0.1009,0.0783,0.0505,0.0303,0.0202,0.0202,0.018,0.0285,0.0518,0.0605,0.0,0.2398,0.3612,0.0,0.0,0.0,0.0,0.0,0.0,0.0,0.0,0.0,0.0,0.0,0.0,0.0,0.0,0.0,0.0,0.0,0.0,0.0,0.0,0.0,1.7246,1.7124,1.7085,1.6908,1.6863,1.6976,1.6911,0.0,0.0,0.0,1.7213,1.7121,1.7236,1.7769,1.8727,1.9417,1.9988,2.0379,2.06,2.069,2.0736,2.1754,2.17,2.093,2.1042,0.0,0.0,0.0,0.0,0.0,0.0,0.0,0.0,0.0,0.0,0.0,0.0,0.0,0.0,0.0,0.0,0.0,0.0,0.0,0.0,0.0,0.0,0.0,0.0,0.0,0.0,0.0,0.0,0.0,0.0,0.0,0.0,0.0,0.0,0.0,0.0,0.0,0.0,0.0,0.5564,0.5188,0.4834,0.4761,0.4713,0.0,0.0,0.0,0.0,0.0,0.0,0.0,0.0,0.0,0.111,0.0984,0.058,-0.0151,0.0026,0.0,-0.0278,-0.023,-0.0153,0.0,-0.0154,-0.0077,0.0179,0.0184,0.0525,0.1181,0.2323,0.288,0.3048,0.0,0.0,0.0,0.0,0.5173,0.5599,0.0,0.0,0.0,0.0,0.0,0.0,0.0,0.0,0.0,0.0,0.0,0.0,1.7049,1.7233,1.7294,1.7162,1.7292,1.7342,1.7301,1.7212,1.7138,0.0,1.7021,1.6998,1.6927,1.7302,1.8025,1.9096,1.9631,2.0224,2.0817,2.0885,2.0952,2.1019,2.1365,2.1105,2.0405,2.0541,2.026,1.976,0.0,0.0,0.0,0.0,0.0,0.0,0.0,0.0,0.0,0.0,0.0,0.0,0.0,0.0,0.0,0.0,0.0,0.0,0.0,0.0,0.0,0.0,0.0,0.0,0.0,0.0,0.0,0.0,0.0,0.0,0.0,0.0,0.0,0.0,0.0,0.0,0.0,0.4912,0.4661,0.4609,0.4411,0.4311,0.0,0.0,0.0,0.0,0.0,0.0,0.2094,0.1513,0.0885,0.0229,0.0203,-0.0255,-0.1203,-0.0675,-0.0545,-0.082,-0.0545,-0.026,0.0,-0.0209,-0.0183,0.0,0.008,0.0268,0.0583,0.139,0.2032,0.2506,0.2677,0.2941,0.3301,0.4223,0.4897,0.5434,0.0,0.0,0.0,0.0,0.0,0.0,0.0,0.0,0.0,0.0,0.0,1.774,1.801,1.7994,1.8142,1.8655,1.8008,1.772,1.801,1.7809,1.7233,1.6308,1.6261,1.615,1.5879,1.7309,1.8319,1.8827,1.954,2.0042,2.0337,2.0609,2.0826,2.0997,2.1019,2.0893,2.0722,2.1163,2.0938,2.0224,1.9783,0.0,0.0,0.0,0.0,0.0,0.0,0.0,0.0,0.0,0.0,0.0,0.0,0.0,0.0,0.0,0.0,0.0,0.0,0.0,0.0,0.0,0.0,0.0,0.0,0.0,0.0,0.0,0.0,0.0,0.0,0.0,0.0,0.0,0.0,0.0,0.0,0.0,0.0,0.4083,0.4033,0.0,0.0,0.0,0.0,0.2876,0.2096,0.154,0.1263,0.0505,-0.0051,-0.0363,-0.0363,-0.0653,-0.1301,-0.0692,-0.0559,-0.0878,-0.0559,-0.0266,0.0,-0.0027,0.0,0.0027,0.0278,0.0559,0.0921,0.1539,0.1623,0.1523,0.2902,0.3107,0.2776,0.3984,0.4633,0.5029,0.0,0.0,0.0,0.0,0.0,0.0,0.0,0.0,1.6584,1.6341,1.698,1.7489,1.7567,1.8134,1.8506,1.8471,1.8487,1.8418,1.8229,1.7378,1.6659,1.6231,1.5419,1.5062,1.5289,1.6967,1.7761,1.7575,1.8481,1.8927,1.8889,1.9111,1.9194,1.9157,1.9766,1.9994,1.9994,2.0983,2.115,2.0736,2.0569,1.9766,0.0,0.0,0.0,0.0,0.0,0.0,0.0,0.0,0.0,0.0,0.0,0.0,0.0,0.0,0.0,0.0,0.0,0.0,0.0,0.0,0.0,0.0,0.0,0.0,0.0,0.0,0.0,0.0,0.0,0.0,0.0,0.0,0.0,0.0,0.0,0.0,0.0,0.4008,0.386,0.0,0.3479,0.3152,0.2826,0.2573,0.1792,0.1237,0.096,0.0505,0.0051,-0.0389,-0.0389,-0.0576,-0.0986,-0.0593,-0.0459,-0.0587,-0.0459,-0.027,0.0,0.0,0.0082,0.0297,0.0998,0.1365,0.1545,0.2328,0.2464,0.2289,0.3216,0.3679,0.3909,0.4486,0.505,0.5554,0.0,0.0,0.0,0.0,0.0,0.0,0.0,0.0,1.6478,1.6461,1.7028,1.7466,1.7567,1.8241,1.8517,1.8123,1.8243,1.8077,1.75,1.6591,1.5795,1.5175,1.4442,1.4346,1.5021,1.6349,1.6967,1.6803,1.7552,1.7885,1.7823,1.8064,1.8141,1.8125,1.8927,1.9355,1.9575,2.0586,2.1015,2.0988,2.093,2.0062,1.8726,0.0,0.0,0.0,0.0,0.0,0.0,0.0,0.0,0.0,0.0,0.0,0.0,0.0,0.0,0.0,0.0,0.0,0.0,0.0,0.0,0.0,0.0,0.0,0.0,0.0,0.0,0.0,0.0,0.0,0.0,0.0,0.0,0.0,0.0,0.4086,0.3858,0.3858,0.3633,0.3432,0.3328,0.3001,0.2649,0.2297,0.16,0.1071,0.0816,0.0385,-0.0026,-0.0396,-0.0397,-0.0533,-0.0841,-0.0549,-0.0412,-0.0407,-0.0302,-0.0027,0.0434,0.0549,0.0822,0.1222,0.1916,0.2229,0.2317,0.3206,0.3474,0.3337,0.3755,0.4145,0.4536,0.4931,0.5377,0.5849,0.0,0.0,0.0,0.0,0.0,0.0,0.0,1.6201,1.6366,1.6885,1.738,1.7785,1.804,1.8257,1.8195,1.7738,1.7248,1.6662,1.5846,1.5525,1.4668,1.3119,1.3342,1.3992,1.5027,1.5534,1.6038,1.6558,1.6833,1.7068,1.7263,1.7528,1.7816,1.8087,1.8596,1.9073,1.953,2.0079,2.0555,2.0952,2.0781,2.026,1.9455,0.0,0.0,0.0,0.0,0.0,0.0,0.0,0.0,0.0,0.0,0.0,0.0,0.0,0.0,0.0,0.0,0.0,0.0,0.0,0.0,0.0,0.0,0.0,0.0,0.0,0.0,0.0,0.0,0.0,0.0,0.0,0.0,0.0,0.4388,0.3937,0.3586,0.3586,0.3358,0.3104,0.2828,0.2803,0.2577,0.2049,0.1518,0.1118,0.0832,0.0079,-0.035,-0.0356,-0.0356,-0.0524,-0.0841,-0.0505,-0.0336,-0.0336,-0.0056,0.0533,0.1346,0.1683,0.2158,0.2716,0.3025,0.3137,0.3221,0.4145,0.4536,0.4536,0.4536,0.4536,0.462,0.5212,0.5603,0.5933,0.0,0.0,0.0,0.0,0.0,0.0,0.0,1.5903,1.595,1.6116,1.688,1.738,1.7301,1.766,1.7761,1.7442,1.6974,1.6457,1.5846,1.4859,1.3716,1.236,1.3251,1.3926,1.4214,1.5081,1.5611,1.5801,1.5872,1.6015,1.6228,1.688,1.7225,1.7349,1.8558,1.9165,1.9325,2.0019,2.0382,2.051,2.0803,2.0266,1.927,0.0,0.0,0.0,0.0,0.0,0.0,0.0,0.0,0.0,0.0,0.0,0.0,0.0,0.0,0.0,0.0,0.0,0.0,0.0,0.0,0.0,0.0,0.0,0.0,0.0,0.0,0.0,0.0,0.0,0.0,0.0,0.474,0.4338,0.4135,0.381,0.3534,0.3332,0.3256,0.3121,0.2905,0.2883,0.2666,0.2177,0.2005,0.1692,0.119,0.0956,0.0752,0.0546,0.0547,0.0496,0.0392,0.0925,0.1206,0.1206,0.1709,0.1961,0.1961,0.2493,0.2717,0.2744,0.3696,0.4116,0.4173,0.4875,0.5156,0.5156,0.5156,0.5266,0.5487,0.591,0.6381,0.6849,0.0,0.0,0.0,0.0,0.0,0.0,0.0,1.5808,1.5879,1.6116,1.6817,1.7263,1.7136,1.7567,1.7536,1.6739,1.6416,1.5771,1.4615,1.3752,1.3082,1.2662,1.345,1.3956,1.4076,1.4747,1.5224,1.5469,1.5564,1.5896,1.644,1.6904,1.7255,1.7512,1.8566,1.9096,1.9234,1.9882,2.0269,2.0473,2.0645,2.0229,1.9423,1.8803,1.7638,1.6224,1.5361,1.4484,1.36,1.2719,0.0,0.0,0.0,0.0,0.0,0.0,0.0,0.0,0.0,0.0,0.0,0.0,0.0,0.0,0.0,0.0,0.0,0.0,0.0,0.0,0.0,0.0,0.0,0.0,0.5148,0.4577,0.4483,0.3998,0.3559,0.3304,0.3281,0.3243,0.312,0.3096,0.2898,0.2396,0.2253,0.1938,0.1319,0.1193,0.1066,0.0911,0.1168,0.1318,0.1331,0.1968,0.229,0.2319,0.2775,0.3031,0.3087,0.3575,0.3861,0.3943,0.4658,0.4973,0.5002,0.5347,0.5492,0.5484,0.0,0.0,0.0,0.0,0.6604,0.699,0.0,0.0,0.0,0.0,0.0,0.0,0.0,1.5808,1.5998,1.6541,1.7005,1.7309,1.7333,1.7776,1.7496,1.6086,1.5825,1.4938,1.3098,1.2802,1.2996,1.3727,1.4028,1.431,1.4604,1.4801,1.5135,1.5598,1.5849,1.644,1.7349,1.7466,1.7769,1.8249,1.8758,1.9096,1.9348,1.9791,2.0269,2.0677,2.0473,2.0246,1.9874,1.848,1.7475,1.6563,1.4717,1.3552,1.2826,1.2457,0.0,0.0,0.0,0.0,0.0,0.0,0.0,0.0,0.0,0.0,0.0,0.0,0.0,0.0,0.0,0.0,0.0,0.0,0.0,0.0,0.0,0.0,0.0,0.0,0.5815,0.5148,0.5269,0.4553,0.3879,0.3459,0.3413,0.3416,0.3421,0.3422,0.3213,0.2713,0.2453,0.2091,0.1626,0.137,0.0,0.0,0.0,0.2159,0.2129,0.2833,0.3207,0.3207,0.3501,0.3913,0.4412,0.4736,0.5147,0.5557,0.5584,0.5614,0.5614,0.5614,0.5614,0.5658,0.5781,0.5883,0.5995,0.628,0.656,0.6779,0.0,0.0,0.0,0.0,0.0,0.0,0.0,1.5808,1.5998,1.6541,1.7005,1.738,1.7605,1.773,1.7575,1.7044,1.5906,1.4884,1.4058,1.4328,1.4752,1.5324,1.5615,1.5971,1.6473,1.6322,1.6464,1.6927,1.6974,1.7232,1.7645,1.8442,1.8889,1.9027,1.9691,2.0042,2.011,2.0405,2.0609,2.0722,2.0826,2.084,2.0682,1.982,1.9134,1.8573,1.78,1.6779,1.5646,1.4735,1.392,1.3149,1.2271,1.1502,0.0,0.0,0.0,0.0,0.0,0.0,0.0,0.0,0.0,0.0,0.0,0.0,0.0,0.0,0.0,0.0,0.0,0.0,0.0,0.6844,0.6663,0.6465,0.6334,0.6141,0.5382,0.3602,0.3413,0.3429,0.3476,0.348,0.3383,0.3109,0.3039,0.3119,0.339,0.3343,0.3409,0.3642,0.3769,0.3745,0.3512,0.4141,0.4443,0.4472,0.494,0.0,0.5033,0.5323,0.5381,0.5297,0.5498,0.5614,0.5614,0.5614,0.5762,0.5996,0.6047,0.6377,0.6835,0.6872,0.7075,0.7335,0.0,0.0,0.0,0.0,0.0,0.0,0.0,1.5808,1.595,1.6359,1.6723,1.7153,1.7651,1.759,1.7419,1.7162,1.5852,1.5045,1.5045,1.5402,1.5781,1.619,1.645,1.6662,1.6786,1.6911,1.7192,1.7707,1.7792,1.818,1.8812,1.9202,1.9531,1.976,2.0133,2.0382,2.0518,2.0631,2.0835,2.1046,2.0997,2.1132,2.1208,2.0011,1.9157,1.855,1.7668,1.6615,1.5527,1.4711,1.4112,1.3541,1.2646,1.2014,1.1429,0.0,0.0,0.0,0.0,0.0,0.0,0.0,0.0,0.0,0.0,0.0,0.0,0.0,0.0,0.7388,0.7414,0.0,0.7399,0.7736,0.7425,0.7169,0.7185,0.6821,0.6116,0.4978,0.4759,0.4716,0.4752,0.4655,0.451,0.4264,0.4241,0.4285,0.4347,0.4348,0.432,0.4293,0.4652,0.4702,0.4405,0.504,0.5362,0.5362,0.5632,0.5692,0.5544,0.5692,0.5692,0.5544,0.5692,0.584,0.6017,0.6169,0.6441,0.6741,0.6564,0.6736,0.7081,0.7197,0.7343,0.7489,0.0,0.0,0.0,0.0,0.0,0.0,0.0,1.5967,1.6069,1.6359,1.6588,1.7005,1.7698,1.7567,1.7302,1.6951,1.616,1.5805,1.6079,1.652,1.6897,1.7169,1.7396,1.7396,1.7192,1.7543,1.7986,1.845,1.8673,1.9202,2.0042,1.9942,2.0079,2.0442,2.0442,2.0555,2.0758,2.0812,2.1046,2.1369,2.1208,2.1342,2.1495,2.007,1.9103,1.8303,1.7077,1.5994,1.5069,1.4597,1.419,1.3781,1.3141,1.267,1.215,1.1037,1.0326,0.0,0.0,0.0,0.0,0.0,0.0,0.0,0.0,0.8576,0.8486,0.8433,0.8111,0.7919,0.8266,0.8153,0.8188,0.8716,0.8195,0.7843,0.8076,0.7569,0.7132,0.7009,0.6481,0.6073,0.5961,0.5745,0.5532,0.5312,0.5226,0.5232,0.5304,0.5245,0.5158,0.5012,0.5524,0.5623,0.5296,0.5821,0.6101,0.6101,0.6101,0.6101,0.6101,0.6101,0.6101,0.6101,0.6162,0.6344,0.6618,0.6959,0.7266,0.7477,0.7266,0.7216,0.7295,0.7498,0.7645,0.7766,0.0,0.0,0.0,0.0,0.0,0.0,0.0,0.0,1.6676,1.7122,1.7209,1.7419,1.7994,1.804,1.7637,1.6723,1.7536,1.7824,1.7179,1.8218,1.8981,1.9258,1.9281,1.9304,1.9281,1.9327,1.9456,1.97,1.9951,2.0269,2.0609,2.0772,2.0862,2.093,2.093,2.093,2.0975,2.1226,2.1347,2.1414,2.1562,2.154,2.1392,2.0961,2.0348,1.9567,1.8596,1.759,1.669,1.6393,1.5842,1.5231,1.4909,1.4298,1.3438,1.2198,1.1429,1.0838,1.0037,0.9896,1.0099,1.0561,1.0319,0.9976,0.0,0.9966,0.9899,0.9668,0.9648,0.956,0.9165,0.9148,0.921,0.9163,0.9075,0.9047,0.9186,0.9383,0.9517,0.9503,0.7797,0.638,0.5804,0.543,0.5261,0.5307,0.5015,0.5527,0.7038,0.6825,0.6914,0.7464,0.7296,0.7001,0.667,0.6742,0.6778,0.6778,0.6778,0.6778,0.6778,0.6778,0.6778,0.6808,0.7112,0.7263,0.7324,0.7658,0.7811,0.7872,0.8144,0.8246,0.8223,0.7953,0.8229,0.8748,0.0,0.0,0.0,0.0,0.0,0.0,0.0,0.0,0.0,1.7136,1.6988,1.7145,1.7807,1.7737,1.7356,1.6659,1.7473,1.8009,1.7932,1.8873,1.96,1.9982,2.0005,2.0005,2.0005,2.0164,2.0269,2.036,2.06,2.0826,2.1114,2.1203,2.1217,2.1248,2.1351,2.1351,2.1239,2.1472,2.1562,2.1584,2.1674,2.1651,2.1549,2.1316,2.0871,2.0207,1.8896,1.7823,0.0,1.6329,1.592,1.5547,1.4855,1.4394,1.3937,1.2929,1.236,1.1964,1.145,1.1236,1.12,1.1278,1.095,1.0614,1.0614,1.0426,1.0258,1.0311,1.0097,0.9872,0.9848,0.9818,0.978,0.9733,0.9795,0.991,1.0076,1.0219,1.034,1.0398,0.9629,0.8786,0.803,0.7733,0.7528,0.7397,0.7251,0.7517,0.8241,0.8147,0.8116,0.8175,0.8052,0.7811,0.7477,0.7294,0.7204,0.7204,0.6992,0.69,0.6903,0.7174,0.7453,0.7736,0.8081,0.8209,0.8241,0.8583,0.8708,0.8736,0.8862,0.9049,0.9153,0.8661,0.8668,0.8885,0.0,0.0,0.0,0.0,0.0,0.0,0.0,0.0,0.0,0.0,1.7512,1.7606,1.8149,1.8025,1.7761,1.7442,1.8032,1.8612,1.9094,1.978,2.0379,2.0862,2.0885,2.0885,2.0885,2.1064,2.1221,2.1347,2.1503,2.1726,2.2065,2.2065,2.2065,2.2065,2.2087,2.1998,2.1874,2.1896,2.1887,2.1887,2.1887,2.1865,2.1785,2.166,2.1127,2.0297,1.898,1.7932,1.7059,1.6109,1.5754,1.5564,1.4682,1.4322,1.4057,1.3405,1.3019,1.2725,1.2538,1.2341,1.2123,1.194,1.1553,1.1205,1.1205,1.0929,1.0719,1.0911,1.065,1.0437,1.0576,1.0575,1.0535,1.041,1.0466,1.0577,1.0773,1.08,1.0872,1.1046,1.1095,1.0804,1.0144,0.9603,0.9214,0.9037,0.8851,0.8882,0.9129,0.8976,0.8821,0.8662,0.8571,0.8419,0.8177,0.7844,0.7663,0.7663,0.7419,0.7344,0.7375,0.7856,0.8267,0.8608,0.893,0.906,0.9092,0.9443,0.9729,0.9977,0.9977,1.0326,1.0738,1.0208,0.9824,0.9578,0.0,0.0,0.0,0.0,0.0,0.0,0.0,0.0,0.0,0.0,0.0,0.0,0.0,1.9438,1.9438,1.9415,1.9911,2.0419,2.0876,2.136,2.185,2.2306,2.2328,2.2328,2.2328,2.235,2.257,2.303,2.303,2.327,2.3735,2.3735,2.3735,2.3714,2.3256,2.3047,2.3013,2.2564,2.2375,2.2375,2.2375,2.2264,2.2097,2.2074,2.1177,1.9826,1.9063,1.8311,1.7482,1.6221,1.5659,1.5397,1.4855,1.4322,1.3864,1.3584,1.3253,1.2977,1.2988,1.2936,1.2861,1.2861,1.24,1.1969,1.1969,1.1755,1.1568,1.1568,1.1722,1.1746,1.141,1.1586,1.1595,1.1136,1.1079,1.1108,1.1272,1.1265,1.1386,1.1726,1.1768,1.1617,1.1265,1.0081,0.9295,0.9275,0.8754,0.8812,0.9727,0.9217,0.9007,0.9278,0.9007,0.8885,0.8885,0.8552,0.8369,0.8369,0.8369,0.843,0.8548,0.9023,0.9246,0.9283,0.9631,0.9758,0.979,1.0117,1.0845,1.172,1.172,1.2374,1.325,1.2905,1.2114,1.1325,0.0,0.0,0.0,0.0,0.0,0.0,0.0,0.0,0.0,0.0,0.0,0.0,0.0,0.0,0.0,0.0,1.9834,2.0221,2.0704,2.1347,2.1993,2.263,2.296,2.319,2.3335,2.3335,2.34,2.3552,2.3704,2.3865,2.4069,2.4338,2.4381,2.4274,2.4423,2.4316,2.4026,2.3854,2.3702,2.3539,2.3715,2.3466,2.2938,2.2668,2.1721,2.0401,0.0,1.7978,1.7082,1.6109,1.5774,1.5664,1.514,1.4844,1.4608,1.416,1.4045,1.4024,1.3848,1.361,1.3423,1.3423,1.312,1.2755,1.2556,1.2307,1.2154,1.2262,1.2075,1.1963,1.2172,1.2239,1.2222,1.2052,1.2103,1.2111,1.1924,1.1907,1.1877,1.1798,1.1806,1.1776,1.1647,1.1031,1.0543,1.0304,0.991,0.9832,1.0242,0.9851,0.9743,0.9967,0.9876,0.9814,0.9814,0.9494,0.9337,0.9337,0.9117,0.9187,0.9543,0.9687,0.9922,1.0241,1.0339,1.0405,1.0405,1.0506,1.1185,1.2118,1.2118,1.2799,1.377,1.4092,1.3996,1.3601,0.0,0.0,0.0,0.0,0.0,0.0,0.0,0.0,0.0,0.0,0.0,0.0,0.0,0.0,0.0,0.0,0.0,2.0741,2.1221,2.1691,2.229,2.3013,2.3351,2.3602,2.3789,2.4135,2.4347,2.4433,2.4924,2.5246,2.5462,2.5711,2.5819,2.5787,2.5926,2.5819,2.5528,2.5365,2.5127,2.4865,2.4701,2.4207,2.3458,2.2697,2.1566,0.0,1.8875,1.7852,1.7025,1.6231,1.6023,1.5969,1.5561,1.5345,1.5128,1.4494,1.4444,1.4552,1.4272,1.4029,1.391,1.3961,1.3758,1.3492,1.3427,1.3166,1.2956,1.2922,1.2761,1.268,1.2838,1.2914,1.2903,1.2785,1.2824,1.281,1.2599,1.2449,1.2324,1.2253,1.2113,1.2047,1.199,1.1771,1.1524,1.1248,1.0996,1.0862,1.0968,1.0663,1.0521,1.0658,1.0534,1.0471,1.0471,1.0015,0.979,0.979,0.9621,0.9755,1.0169,1.0225,1.0498,1.0886,1.0754,1.0982,1.1442,1.131,1.2128,1.3403,1.3403,1.4063,1.5047,1.5373,1.5536,1.5492,0.0,0.0,0.0,0.0,0.0,0.0,0.0,0.0,0.0,0.0,0.0,0.0,0.0,0.0,0.0,0.0,0.0,0.0,2.2331,2.2397,2.275,2.346,2.3525,2.3655,2.3884,2.4725,2.5314,2.5587,2.6472,2.7117,2.7536,2.7579,2.7722,2.794,2.7502,2.7294,2.7272,2.6819,2.6452,2.6154,2.5269,2.4474,2.3656,2.2294,2.0871,1.9486,1.8734,1.8041,1.7369,1.6596,1.6325,1.63,1.6131,1.5819,1.5369,1.4603,1.4508,1.4584,1.4337,1.4267,1.4321,1.4498,1.4368,1.4237,1.4452,1.4282,1.3951,1.3613,1.3736,1.382,1.3517,1.362,1.3629,1.3294,1.3234,1.3209,1.3218,1.2947,1.2807,1.3009,1.2723,1.2486,1.2351,1.2348,1.2279,1.21,1.1897,1.1802,1.1814,1.1493,1.1311,1.1318,1.1032,1.0841,1.0841,1.023,0.9911,0.9918,1.0019,1.0247,1.0582,1.0755,1.0982,1.128,1.0982,1.1641,1.2898,1.2565,1.3654,1.55,1.5473,1.6119,1.7028,1.6687,1.6785,1.6958,0.0,0.0,0.0,0.0,0.0,0.0,0.0,0.0,0.0,0.0,0.0,0.0,0.0,0.0,0.0,0.0,0.0,0.0,2.1865,2.2397,2.2838,2.3188,2.3742,2.4347,2.5041,2.4805,2.4964,2.553,2.5477,2.5379,2.5326,2.5829,2.6011,2.5936,2.5979,2.5979,2.5958,2.553,2.5315,2.5249,2.5164,2.4563,2.366,2.2995,2.1907,2.0666,1.9827,1.9122,1.8414,1.7273,1.6794,1.6693,1.6847,1.6392,1.575,1.5549,1.539,1.5248,1.5133,1.5096,1.5103,1.516,1.5241,1.5189,1.4821,1.4664,1.4542,1.4359,1.424,1.4215,1.4272,1.4167,1.4052,1.3963,1.3748,1.3535,1.3444,1.3345,1.3295,1.3301,1.3167,1.309,1.3044,1.3181,1.325,1.3199,1.2321,1.1853,1.1942,1.1692,1.1559,1.1686,1.1592,1.1559,1.1559,1.1392,1.1348,1.1427,1.1354,1.1446,1.1621,1.2067,1.2326,1.2425,1.289,1.3554,1.4272,1.4201,1.5224,1.6779,1.6483,1.6885,1.7653,1.7475,1.7526,1.7637,0.0,0.0,0.0,0.0,0.0,0.0,0.0,0.0,0.0,0.0,0.0,0.0,0.0,0.0,0.0,0.0,0.0,0.0,0.0,2.2274,2.2772,2.3387,2.3799,2.4455,2.5348,2.5402,2.5605,2.5989,2.6173,2.6077,2.5731,2.6455,2.6476,2.6023,2.6455,2.6455,2.6131,2.5925,2.5698,0.0,0.0,2.4607,2.3807,2.2843,2.1921,2.101,2.0256,1.982,1.9523,1.8964,1.8124,1.7341,1.7384,1.6845,1.6198,1.5982,1.5794,1.5654,1.5455,1.5487,1.5601,1.5727,1.5719,1.5645,1.541,1.5256,1.5087,1.4857,1.4721,1.464,1.46,1.446,1.4339,1.4339,1.4114,1.4005,1.4061,1.408,1.4026,1.3943,1.3902,1.3775,1.3573,1.3655,1.3721,1.3721,1.3105,1.2737,1.2832,1.2784,1.2742,1.2729,1.2749,1.2695,1.2493,1.2493,1.2536,1.2625,1.2902,1.3075,1.3164,1.3792,1.4145,1.4312,1.4583,1.5248,1.6123,1.595,1.6696,1.7942,1.7706,1.7899,1.8305,1.8206,1.8239,1.8289,0.0,0.0,0.0,0.0,0.0,0.0,0.0,0.0,0.0,0.0,0.0,0.0,0.0,0.0,0.0,0.0,0.0,0.0,0.0,0.0,2.2796,2.3887,2.3973,2.4413,2.5295,2.6043,2.6464,2.6549,2.728,2.7381,2.6899,2.7567,2.739,2.6569,2.7199,2.7122,2.6524,2.6501,2.6247,2.5804,2.4989,2.4372,2.3789,0.0,2.1503,2.1014,2.046,2.0394,2.0573,2.0823,1.9732,1.8246,1.8003,1.747,1.6842,1.6408,1.6244,1.6144,1.5934,1.6026,1.6254,1.65,1.6333,1.6153,1.6203,1.5987,1.5685,1.5264,1.5175,1.5096,1.4839,1.4696,1.4647,1.4677,1.4561,1.4572,1.4856,1.4924,1.4903,1.4789,1.478,1.4627,1.4222,1.4141,1.4109,1.4109,1.4076,1.3973,1.3908,1.4075,1.4101,1.3952,1.3962,1.3835,1.3455,1.342,1.3467,1.3663,1.4352,1.4758,1.4955,1.5638,1.6132,1.6408,1.62,1.6863,1.8053,1.7744,1.8176,1.9036,1.9002,1.8946,1.8923,1.8924,1.8912,1.8917,0.0,0.0,0.0,0.0,0.0,0.0,0.0,0.0,0.0,0.0,2.3103,2.264,0.0,0.0,0.0,0.0,0.0,0.0,0.0,0.0,0.0,2.4595,2.484,2.5285,2.5998,2.5634,2.5709,2.6276,2.5891,2.5349,2.4736,2.5035,2.4798,2.4116,2.423,2.423,2.4094,2.3865,2.3724,2.3636,2.3479,2.3132,2.2691,2.2394,0.0,0.0,2.1218,2.1182,2.1271,2.0984,2.037,1.9724,1.9691,1.8964,1.813,1.833,1.8064,1.7803,1.8192,1.832,1.8374,1.8413,1.8397,1.8083,1.7079,1.6797,1.6532,1.5685,1.5507,1.5566,1.5734,1.5536,1.538,1.5561,1.5375,1.5279,1.5501,1.5531,1.5607,1.5726,1.5751,1.5734,1.5639,1.5393,1.5234,1.5234,1.4898,1.4469,1.394,1.3943,1.4022,1.4154,1.4006,1.3882,1.3814,1.354,1.3919,1.4961,1.5001,1.5557,1.6584,1.7177,1.746,1.7561,1.8043,1.8705,1.9442,1.9402,1.9775,2.0326,2.0015,1.9777,1.9607,1.9508,1.9525,1.9618,0.0,0.0,0.0,0.0,0.0,0.0,0.0,2.4167,2.421,2.4348,2.4359,2.3993,2.3081,2.3278,0.0,0.0,0.0,0.0,0.0,0.0,0.0,0.0,0.0,0.0,2.6715,2.6405,2.6394,2.6715,0.0,2.5716,2.4722,2.5316,2.4898,2.3677,2.4048,2.4028,2.3646,2.3406,2.3232,2.3091,2.3091,2.2904,2.2596,0.0,0.0,0.0,0.0,2.1879,2.2029,2.1642,2.1267,2.0824,2.0285,1.9328,1.8459,1.8793,1.8618,1.8398,1.8806,1.9005,1.9123,1.9118,1.8991,1.8729,1.814,1.7467,1.6879,1.6414,1.5946,1.5671,1.5963,1.5809,1.5721,1.5909,1.5828,1.5819,1.6064,1.6112,1.6153,1.6256,1.6272,1.6201,1.6006,1.5849,1.5736,1.5652,1.5624,1.528,1.4473,1.4532,1.4729,1.5078,1.4977,1.518,1.5668,1.5494,1.5919,1.6912,1.7252,1.7712,1.8309,1.8992,1.9318,1.9318,1.9631,1.9981,2.0266,2.0266,2.0447,2.0671,2.0498,2.0345,2.0278,2.0403,2.0471,2.0535,0.0,0.0,0.0,0.0,0.0,0.0,0.0,2.4871,2.4956,2.5242,2.5538,2.538,2.4424,2.4231,2.4188,0.0,0.0,0.0,0.0,0.0,0.0,0.0,0.0,0.0,0.0,0.0,0.0,2.721,2.721,0.0,0.0,0.0,0.0,0.0,2.4355,2.4292,2.3646,2.3547,2.3351,0.0,0.0,2.2991,0.0,0.0,0.0,0.0,0.0,2.2326,2.2569,2.2308,2.2029,2.1687,2.084,1.9803,1.896,1.9352,1.9255,1.9035,1.9307,1.956,1.9708,1.9708,1.9542,1.9345,1.9142,1.8315,1.7549,1.7343,1.6561,1.601,1.6301,1.6116,1.5992,1.6265,1.624,1.6299,1.6558,1.6596,1.6617,1.6697,1.6675,1.6572,1.6338,1.6241,1.6148,1.6027,1.6258,1.6042,1.5205,1.5357,1.5653,1.6125,1.6074,1.6498,1.7409,1.7339,1.7721,1.8552,1.9117,1.95,1.9779,2.0417,2.07,2.07,2.07,2.0735,2.0804,2.0804,2.0873,2.0943,2.0943,2.0943,2.0977,2.1214,2.1317,2.1386,0.0,0.0,0.0,0.0,0.0,0.0,0.0,2.6042,2.6146,2.6416,2.6479,2.6375,2.6021,2.5601,2.5189,0.0,0.0,0.0,0.0,0.0,0.0,0.0,0.0,0.0,0.0,0.0,0.0,2.721,2.721,0.0,0.0,0.0,0.0,0.0,0.0,2.3642,2.3188,2.3385,0.0,0.0,0.0,0.0,0.0,0.0,0.0,0.0,0.0,2.2326,2.2594,2.2569,2.2417,2.2237,2.2133,2.1315,2.0514,2.115,2.0953,2.0581,2.0901,2.101,2.1031,2.1031,2.1003,2.0773,1.9902,1.9642,1.931,1.8454,1.7519,1.7001,1.7466,1.6848,1.6395,1.6835,1.6926,1.691,1.6942,1.6942,1.7022,1.7286,1.7313,1.7313,1.728,1.701,1.6812,1.6805,1.6696,1.6466,1.5996,1.6172,1.6481,1.6896,1.6702,1.7027,1.7826,1.7469,1.7851,1.8953,1.9023,1.9581,2.0596,2.0665,2.07,2.07,2.07,2.0873,2.1144,2.1144,2.1386,2.1697,2.1697,2.1697,2.1697,2.1731,2.1731,2.1766,0.0,0.0,0.0,0.0,0.0,0.0,2.6011,2.6032,2.6146,2.6541,2.6603,2.6644,2.68,2.6541,2.6207,0.0,0.0,0.0,0.0,0.0,0.0,0.0,0.0,0.0,0.0,0.0,2.721,2.721,2.721,0.0,0.0,0.0,0.0,0.0,0.0,2.3711,2.3515,2.3341,0.0,0.0,0.0,0.0,0.0,0.0,0.0,0.0,0.0,0.0,2.2544,2.219,2.2161,2.2275,2.2173,2.1813,2.1464,2.1584,2.1334,2.1018,2.1151,2.1211,2.1211,2.1211,2.1357,2.1365,2.0759,2.0352,1.9933,1.9372,1.8653,1.8235,1.8563,1.7969,1.7534,1.7842,1.7389,1.7055,1.7211,1.7227,1.7319,1.7556,1.7583,1.7583,1.7583,1.7449,1.7377,1.7377,1.783,1.794,1.7615,1.7499,1.7684,1.8297,1.8154,1.8452,1.9216,1.8832,1.9117,2.0005,2.0005,2.0249,2.0706,2.0908,2.1006,2.1012,2.1248,2.1455,2.1559,2.1559,2.1662,2.18,2.18,2.18,2.1835,2.2035,2.2104,2.2138,0.0,0.0,0.0,0.0,0.0,2.5927,2.599,2.6063,2.625,2.6644,2.6747,2.6871,2.7088,2.6974,2.683,2.6706,0.0,0.0,0.0,0.0,0.0,0.0,0.0,0.0,0.0,0.0,2.726,2.721,2.721,2.6695,0.0,0.0,2.5317,2.4272,0.0,0.0,0.0,0.0,0.0,0.0,0.0,0.0,0.0,0.0,0.0,0.0,0.0,0.0,0.0,0.0,0.0,2.2414,2.2295,2.2275,0.0,2.1981,2.1653,2.1369,2.143,2.1354,2.1233,2.1414,2.151,2.1518,2.1386,2.0945,2.0521,2.038,1.9809,1.9402,1.9726,1.9156,1.8626,1.8527,1.7899,1.7445,1.7406,1.7313,1.741,1.7787,1.7766,1.7716,1.7825,1.783,1.783,1.783,1.8651,1.9183,1.9209,1.9204,1.9336,1.9599,1.9507,1.9779,2.0439,2.0127,2.0237,2.07,2.0804,2.0839,2.0873,2.1214,2.1386,2.1386,2.1697,2.1869,2.1938,2.1938,2.2007,2.2145,2.2145,2.2145,2.2145,2.2379,2.2482,2.2516,0.0,0.0,0.0,0.0,0.0,0.0,2.6178,2.6416,2.6665,2.6871,2.7067,2.7129,2.6912,2.6891,2.6891,2.6891,0.0,0.0,0.0,0.0,0.0,0.0,0.0,0.0,0.0,0.0,2.7412,2.721,2.721,2.6839,2.6196,2.5989,2.5401,2.4498,0.0,0.0,0.0,0.0,0.0,0.0,0.0,0.0,0.0,0.0,0.0,0.0,0.0,0.0,0.0,0.0,0.0,0.0,0.0,0.0,0.0,0.0,2.2173,2.1746,2.2031,2.166,2.1341,2.1948,2.1647,2.1298,2.162,2.1445,2.1277,2.1598,2.0931,2.0454,2.0978,2.0314,1.9406,1.8622,1.8504,1.8216,1.7505,1.7163,1.7276,1.8003,1.7873,1.7786,1.8067,1.8094,1.8094,1.8094,1.8948,1.9849,2.0631,2.1386,2.1408,2.0623,2.0595,2.0774,2.1173,2.1173,2.1006,2.07,2.1047,2.1179,2.1214,2.1628,2.18,2.18,2.18,2.2001,2.2276,2.2276,2.2516,2.2893,2.2893,2.2893,2.2893,2.2893,2.2893,2.2893,0.0,0.0,0.0,0.0,0.0,0.0,0.0,2.6282,2.6416,2.6665,2.6871,2.7015,2.7108,2.7108,2.7108,2.7108,0.0,0.0,0.0,0.0,0.0,0.0,0.0,0.0,0.0,0.0,2.7598,2.721,2.733,2.691,2.5989,2.5937,2.5327,2.4272,2.4045,2.3776,0.0,0.0,0.0,0.0,0.0,0.0,2.3598,0.0,0.0,0.0,0.0,0.0,0.0,0.0,0.0,0.0,0.0,0.0,0.0,2.2901,2.2598,2.2286,2.2144,2.1974,2.1854,2.2045,2.2138,2.2111,2.1984,2.2057,2.2127,2.2001,2.1934,2.192,2.209,2.094,1.9878,1.9642,1.8407,1.7698,1.8355,1.7868,1.7905,1.8976,1.8562,1.8205,1.8285,1.8767,1.9013,1.885,2.0233,2.1092,2.1158,2.2035,2.2448,2.2166,2.1919,2.1822,2.1966,2.1731,2.1559,2.1455,2.1559,2.1628,2.1628,2.1966,2.2138,2.2173,2.2413,2.2619,2.2722,2.2722,2.2791,2.2893,2.2893,2.2893,2.2893,2.2893,2.2893,2.2893,0.0,0.0,0.0,0.0,0.0,0.0,0.0,2.6354,2.652,2.6685,2.683,2.6985,2.719,2.7056,2.6994,2.7088,0.0,0.0,0.0,0.0,0.0,0.0,0.0,0.0,0.0,2.7804,2.7868,2.7497,2.7803,2.7613,2.6962,2.6484,2.5905,2.5189,2.4488,2.4122,0.0,0.0,0.0,0.0,0.0,0.0,2.3879,0.0,0.0,0.0,0.0,0.0,0.0,0.0,0.0,0.0,0.0,0.0,0.0,0.0,2.2873,2.2711,2.2513,2.2279,2.2205,2.2581,2.2617,2.2598,2.2665,2.2637,2.2617,2.2505,2.2533,2.2629,2.2784,2.194,2.1121,2.0716,1.9597,1.8919,1.9384,1.907,1.9171,2.0161,1.9887,1.9634,1.9634,2.0046,2.0292,2.0132,2.1418,2.2067,2.1756,2.2595,2.303,2.2893,2.2654,2.2448,2.231,2.2104,2.1938,2.18,2.1938,2.2001,2.2001,2.2345,2.2516,2.2551,2.2791,2.2893,0.0,2.2893,2.2893,2.2893,2.2893,2.2893,2.2893,2.2893,2.2893,2.2893,0.0,0.0,0.0,0.0,0.0,0.0,0.0,0.0,2.6871,2.6871,2.6871,2.6953,2.7149,2.683,2.6685,2.6871,0.0,0.0,0.0,0.0,0.0,0.0,0.0,0.0,0.0,2.8047,2.8231,2.8056,2.8504,2.87,2.8636,2.7459,2.6862,2.6773,2.5399,2.4802,0.0,0.0,0.0,0.0,0.0,0.0,0.0,0.0,0.0,0.0,0.0,0.0,0.0,0.0,0.0,0.0,0.0,0.0,0.0,0.0,0.0,0.0,0.0,2.259,2.2383,2.3344,2.312,2.2846,2.3481,2.3195,0.0,2.3081,2.2858,2.2716,2.3054,2.3043,2.2707,2.1765,2.1565,2.1279,2.058,2.0624,2.09,2.1356,2.1575,2.1687,2.1687,2.1762,2.1797,2.1797,2.2537,2.2832,2.2448,2.3065,2.3304,2.3003,2.2962,2.2756,2.2345,2.2345,2.2173,2.1869,2.2173,2.2345,2.2345,2.2722,2.2893,2.2893,2.2893,2.2893,2.2893,2.2893,2.2893,2.2893,2.2893,2.2893,2.2893,2.2893,2.2893,2.2893,0.0,0.0,0.0,0.0,0.0,0.0,0.0,0.0,0.0,0.0,2.6665,2.6685,2.6747,2.6665,2.6685,0.0,0.0,0.0,0.0,0.0,0.0,0.0,0.0,0.0,0.0,2.8305,2.8528,2.8528,2.8793,2.869,2.8225,2.7315,2.6617,2.61,2.5204,2.4687,2.447,0.0,0.0,0.0,0.0,0.0,0.0,0.0,0.0,0.0,2.4311,2.4131,0.0,0.0,0.0,0.0,0.0,0.0,0.0,0.0,2.2986,2.2986,2.2986,0.0,2.2919,2.3389,2.3407,2.3425,0.0,0.0,0.0,0.0,0.0,2.3018,2.3098,2.248,2.1891,2.1639,2.1162,2.0959,2.1279,2.1713,2.1879,2.1671,2.1683,2.1687,2.1687,2.2256,2.2613,2.2613,2.3304,2.3686,2.3618,2.3747,2.3823,2.3754,2.3754,2.3447,2.2756,2.2756,2.2722,2.2654,2.2722,2.2756,2.2756,2.2859,2.2893,2.2893,2.2893,2.2893,2.2893,2.2893,2.2893,2.2893,2.2893,2.2893,2.2893,2.2893,2.2893,2.2934,0.0,0.0,0.0,0.0,0.0,0.0,0.0,0.0,0.0,0.0,0.0,0.0,0.0,0.0,0.0,0.0,0.0,0.0,0.0,0.0,0.0,0.0,0.0,0.0,2.7987,2.8416,2.8786,2.9068,2.9396,2.9202,2.8544,2.7778,2.7015,2.6344,2.5561,2.5124,2.4972,2.4593,2.4488,2.4528,2.4139,0.0,0.0,0.0,0.0,0.0,2.4445,2.4325,0.0,2.4261,2.4057,2.3748,0.0,0.0,0.0,0.0,2.2986,2.2986,2.2986,2.2986,2.3105,2.3649,2.3777,2.3912,2.445,0.0,0.0,0.0,0.0,2.3331,2.3331,2.2885,2.2462,2.2321,2.2226,2.238,2.2909,2.3231,2.338,2.3263,2.3249,2.3249,2.3249,2.3638,2.3925,2.3925,2.4265,2.4435,2.4231,2.4231,2.4163,2.3993,2.3993,2.3823,2.3413,2.3201,2.3133,2.3133,2.2962,2.2893,2.2893,2.2893,2.2893,2.2893,2.2893,2.2893,2.29,2.3065,2.3133,2.3133,2.3338,2.3413,2.3413,2.3413,2.3413,2.3447,0.0,0.0,0.0,0.0,0.0,0.0,0.0,0.0,0.0,0.0,0.0,0.0,0.0,0.0,0.0,0.0,0.0,0.0,0.0,0.0,0.0,0.0,0.0,2.7555,2.8102,2.8574,2.9079,2.9607,2.9896,2.9715,2.9082,2.8233,2.7421,2.6692,2.5989,2.5684,2.5611,2.5357,2.5088,2.4809,2.4563,0.0,0.0,0.0,0.0,0.0,0.0,0.0,0.0,2.4406,2.4213,2.3838,2.3627,0.0,0.0,0.0,0.0,0.0,2.2986,2.3025,2.3244,2.3925,2.4114,2.4267,2.4944,0.0,0.0,0.0,0.0,2.3533,2.3577,2.3558,2.3464,2.3288,2.372,2.4243,2.4624,2.4665,2.4793,2.515,2.5228,2.5262,2.5262,2.5262,2.5262,2.5262,2.5262,2.5086,2.4774,2.4706,2.4536,2.4265,2.4197,2.4163,2.4163,2.3713,2.3475,2.3475,2.3201,2.3071,2.3071,2.3071,2.3071,2.3071,2.3071,2.3071,2.3099,2.3372,2.3475,2.3543,2.3857,2.3993,2.3993,2.3993,2.3993,2.3993,0.0,0.0,0.0,0.0,0.0,0.0,0.0,0.0,0.0,0.0,0.0,0.0,0.0,0.0,0.0,0.0,0.0,0.0,0.0,0.0,0.0,0.0,2.7633,2.8092,2.8574,2.9102,2.9607,3.0078,2.9543,2.922,2.9082,2.7715,2.6644,2.5878,2.5757,2.5562,2.5333,2.5088,2.4809,2.4529,2.4325,0.0,0.0,0.0,0.0,0.0,0.0,0.0,0.0,2.4723,2.4556,2.4245,2.3932,0.0,0.0,0.0,0.0,0.0,2.2986,2.3208,2.3525,2.3981,2.4114,2.4267,2.4944,0.0,0.0,0.0,0.0,0.0,2.3566,2.3371,2.3347,2.3852,2.402,2.4324,2.4932,2.5011,2.5159,2.5495,2.5768,2.5936,2.5936,2.5936,2.5936,2.5936,2.5936,2.5936,2.5869,2.5599,2.539,2.5356,2.5086,2.4916,2.4916,2.4231,2.3925,2.3925,2.3857,2.3823,2.3823,2.3823,2.3823,2.3823,2.3823,2.3823,2.3857,2.3891,2.3925,2.3925,2.3993,2.3993,2.3993,2.3993,2.3993,2.4027,0.0,0.0,0.0,0.0,0.0,0.0,0.0,0.0,0.0,0.0,0.0,0.0,0.0,0.0,0.0,0.0,0.0,0.0,0.0,0.0,0.0,2.6644,2.7389,2.8068,2.8689,2.9228,2.9532,2.96,2.9266,2.8699,2.7893,2.6764,2.6062,2.5684,2.5538,2.5416,2.526,2.4858,2.4603,2.448,0.0,0.0,0.0,0.0,0.0,0.0,0.0,0.0,0.0,0.0,2.4627,2.4348,2.4005,0.0,0.0,0.0,0.0,0.0,2.2986,2.3105,2.3416,2.4191,2.4375,2.4506,2.4992,0.0,0.0,0.0,0.0,0.0,2.4138,2.4,2.4077,2.4569,2.4492,2.4543,2.502,2.5096,2.5226,2.5543,2.5734,2.5902,2.6071,2.5936,2.5902,2.6078,2.5768,2.5633,2.5835,2.5498,2.5329,2.5329,2.5194,2.5093,2.5093,2.4747,2.451,2.4265,2.4095,2.3993,2.3993,2.3993,2.3993,2.3993,2.3993,2.3993,2.4027,2.4197,2.4265,2.4299,2.4503,2.4578,2.4578,2.4578,2.4578,2.4611,0.0,0.0,0.0,0.0,0.0,0.0,0.0,0.0,0.0,0.0,0.0,0.0,0.0,0.0,0.0,0.0,0.0,0.0,0.0,0.0,2.624,2.6292,2.7037,2.7786,2.8516,2.8942,2.9094,2.9001,2.8653,2.7846,2.6596,2.5917,2.5611,2.5586,2.5342,2.5162,2.5088,2.4677,2.4464,2.4415,0.0,0.0,0.0,0.0,0.0,0.0,0.0,0.0,0.0,0.0,0.0,0.0,0.0,0.0,0.0,2.307,2.2986,2.2986,2.2986,2.3049,2.3341,2.4255,0.0,0.0,0.0,0.0,0.0,0.0,2.5031,2.48,2.4623,2.459,2.4663,2.4826,2.4845,2.4907,2.5191,2.5363,2.5558,2.5835,2.5936,2.6071,2.6339,2.6138,2.6063,2.6339,2.5861,2.5659,2.5869,2.5524,2.5296,2.5228,2.5153,2.5093,2.5093,2.5093,2.495,2.4638,2.4367,2.4272,2.4272,2.4272,2.4272,2.4272,2.4272,2.4272,2.4265,2.4536,2.4638,2.4672,2.4984,2.5093,2.5093,2.5093,2.5161,2.5228,0.0,0.0,0.0,0.0,0.0,0.0,0.0,0.0,0.0,0.0,0.0,0.0,0.0,0.0,0.0,0.0,0.0,0.0,0.0,0.0,2.6313,2.6561,2.6812,2.7294,2.8028,2.8099,2.8301,2.8724,2.7352,2.637,2.5781,2.5465,2.5342,2.5308,2.5064,2.4784,2.4554,2.4504,2.439,2.4226,2.4202,0.0,0.0,0.0,0.0,0.0,0.0,0.0,0.0,0.0,0.0,0.0,0.0,0.0,2.3014,2.3014,2.2986,2.2986,2.2986,2.3232,2.3565,2.4018,2.4129,0.0,2.5753,2.5318,0.0,2.5523,2.4857,2.4265,2.454,2.4608,2.4518,2.4228,2.4941,2.5536,2.5566,2.6164,2.6592,2.6633,2.69,2.71,2.7108,2.71,2.71,2.7108,2.7067,2.6934,2.6633,2.6231,2.5902,2.5566,2.5262,2.5093,2.5093,2.5093,2.5086,2.5052,2.5018,2.5025,2.5025,2.5025,2.5025,2.5025,2.5025,2.5025,2.5025,2.5059,2.5052,2.5052,2.5086,2.5093,2.5093,2.5093,2.5296,2.5566,0.0,0.0,0.0,0.0,0.0,0.0,0.0,0.0,0.0,0.0,0.0,0.0,0.0,0.0,0.0,0.0,0.0,0.0,0.0,0.0,2.5443,2.5538,2.5547,2.5744,2.6193,2.7215,2.7598,2.7329,2.6274,2.564,2.544,2.5186,2.5054,2.5039,2.4784,2.4578,2.4489,2.4365,2.4276,2.4202,2.4202,2.4053,0.0,0.0,0.0,0.0,0.0,0.0,0.0,0.0,2.4543,2.4172,2.3977,2.3641,2.3275,2.3042,2.2986,2.2986,2.2986,2.3411,2.4013,2.4822,2.4887,0.0,0.0,2.5691,2.5668,2.5944,2.5862,2.5665,2.5561,2.5545,2.5501,2.5373,2.5669,2.5902,2.5902,2.6138,2.6432,2.6658,2.68,2.6967,2.7167,2.7,2.6967,2.7167,2.6774,2.6566,2.6692,2.6339,2.5936,2.5599,2.5464,2.5296,2.5093,2.5093,2.5093,2.5093,2.5093,2.5093,2.5093,2.5093,2.5093,2.5093,2.5093,2.5093,2.5093,2.5093,2.5093,2.5093,2.5093,2.5093,2.5127,2.5329,2.5498,2.5633,0.0,0.0,0.0,0.0,0.0,0.0,0.0,0.0,0.0,0.0,0.0,0.0,0.0,0.0,0.0,0.0,0.0,0.0,2.5601,2.5147,2.4797,2.4573,2.4508,2.4571,2.4742,2.5993,2.6494,2.624,2.5543,2.5162,2.5162,2.4907,2.4784,2.476,2.4514,2.4415,2.439,2.4177,2.4078,2.4078,2.3978,2.3852,0.0,0.0,0.0,0.0,0.0,0.0,0.0,0.0,2.4627,2.4348,2.4005,2.3725,2.3416,2.3098,2.3142,2.3315,2.3315,2.3742,2.4439,2.5484,0.0,0.0,2.6117,2.6223,2.6272,2.6471,2.6516,2.6407,2.6005,2.595,2.5944,2.5944,2.6136,2.6306,2.6306,2.6373,2.654,2.6833,2.6867,2.6967,2.7167,2.7,2.6967,2.7167,2.6733,2.6532,2.67,2.6432,2.6138,2.5768,2.5768,2.5599,2.5262,2.5356,2.5356,2.5262,2.5363,2.5363,2.5262,2.5262,2.5329,2.5431,2.5431,2.5431,2.5431,2.5431,2.5431,2.5431,2.5431,2.5431,2.5431,2.5667,2.5835,2.6018,0.0,0.0,0.0,0.0,0.0,0.0,0.0,0.0,0.0,0.0,0.0,0.0,0.0,0.0,0.0,0.0,0.0,0.0,2.4924,2.4882,2.4551,2.3822,2.3913,2.3988,2.3988,2.4327,2.4898,2.5693,2.5177,2.4907,2.4883,2.4612,2.4504,2.4489,2.4301,2.4202,2.4177,2.3904,2.3805,2.3771,2.3506,2.3435,2.3539,0.0,0.0,0.0,0.0,0.0,0.0,0.0,2.4627,2.4348,2.4005,2.3725,2.3444,2.3098,2.348,2.4003,2.4003,2.43,2.4851,2.5863,2.587,2.5987,2.7398,2.6926,2.6413,2.7052,2.6658,2.6087,2.57,2.5609,2.5609,2.5609,2.6241,2.6692,2.6692,2.7,2.72,2.72,2.72,2.72,2.72,2.72,2.72,2.72,2.72,2.7067,2.6725,2.6692,2.6532,2.6104,2.6112,2.5936,2.5599,2.5936,2.5936,2.5599,2.5936,2.5936,2.5599,2.5599,2.5801,2.6104,2.6104,2.6104,2.6104,2.6104,2.6104,2.6104,2.6104,2.6104,2.6104,2.6112,2.6373,2.6747,0.0,0.0,0.0,0.0,0.0,0.0,0.0,0.0,0.0,0.0,0.0,0.0,0.0,0.0,0.0,0.0,0.0,0.0,2.4177,2.3669,2.3341,2.3113,2.3168,2.3224,2.3224,2.3934,2.4563,2.5143,2.4784,2.4612,2.4603,2.439,2.4301,2.4276,2.4028,2.3929,2.3904,2.3621,2.3522,2.3523,2.3699,2.3656,2.3574,0.0,0.0,0.0,0.0,0.0,0.0,0.0,0.0,0.0,2.4348,2.4209,2.4041,2.35,2.3489,2.3598,2.3363,2.4063,2.5087,2.5962,2.6404,2.6917,2.7915,2.7661,2.7319,2.7496,2.7205,2.6876,2.6751,2.6718,2.6718,2.6718,2.6896,2.7034,2.7034,2.7134,2.72,2.72,2.72,2.72,2.72,2.72,2.72,2.72,2.72,2.7167,2.7067,2.7034,2.69,2.6532,2.6532,2.6339,2.597,2.6037,2.6037,2.5936,2.6037,2.6037,2.5936,2.5936,2.6003,2.6104,2.6104,2.6104,2.6104,2.6104,2.6104,2.6104,2.6104,2.6104,2.6168,2.6676,2.6964,2.7139,0.0,0.0,0.0,0.0,0.0,0.0,0.0,0.0,0.0,0.0,0.0,0.0,0.0,0.0,0.0,0.0,0.0,0.0,0.0,2.3025,2.2671,2.2375,2.2704,2.305,2.3404,2.3929,2.435,2.4612,2.4464,2.439,2.439,2.4251,2.4202,2.4177,2.3929,2.3805,2.378,2.3397,2.331,2.3452,2.3537,2.3652,2.3816,0.0,0.0,0.0,0.0,0.0,0.0,0.0,0.0,0.0,2.4648,2.4586,2.4527,2.4195,2.4306,2.4478,2.4298,2.5034,2.6027,2.6803,2.7302,2.7726,2.8352,2.8081,2.7712,2.7693,2.755,2.7392,2.7392,2.7392,2.7392,2.7392,2.7392,2.7359,2.7234,2.72,2.72,2.72,2.72,2.72,2.72,2.72,2.72,2.72,2.72,2.72,2.72,2.72,2.71,2.69,2.69,2.6733,2.6339,2.6473,2.6473,2.6339,2.6473,2.654,2.654,2.6406,2.6406,2.654,2.654,2.654,2.654,2.654,2.654,2.654,2.654,2.6625,2.6799,2.7246,2.7471,2.7662,0.0,0.0,0.0,0.0,0.0,0.0,0.0,0.0,0.0,0.0,0.0,0.0,0.0,0.0,0.0,0.0,0.0,0.0,0.0,0.0,2.2407,2.1731,2.2451,2.3255,2.4134,2.4152,2.4152,2.4127,2.4177,2.4177,2.4152,2.4152,2.4152,2.4127,2.3854,2.373,2.3696,2.3172,2.3155,2.3401,2.322,2.3553,2.416,2.4229,0.0,0.0,0.0,0.0,0.0,0.0,0.0,0.0,2.4938,2.4979,2.4986,2.504,2.5528,2.6054,2.6025,2.6512,2.723,2.7923,2.823,2.8419,2.8732,2.8287,2.7775,2.7775,2.7741,2.7741,2.7741,2.7741,2.7741,2.7741,2.7741,2.765,2.7334,2.7267,2.7234,2.7234,2.7234,2.72,2.72,2.72,2.72,2.72,2.72,2.72,2.72,2.72,2.72,2.72,2.72,2.7034,2.6759,2.7034,2.7034,2.6759,2.7034,2.72,2.72,2.6867,2.69,2.72,2.72,2.72,2.72,2.72,2.72,2.72,2.72,2.7399,2.7651,2.7683,2.7905,2.823,0.0,0.0,0.0,0.0,0.0,0.0,0.0,0.0,0.0,0.0,0.0,0.0,0.0,0.0,0.0,0.0,0.0,0.0,0.0,0.0,2.1874,2.1718,2.2265,2.2991,2.3861,2.3879,2.378,2.3571,2.4003,2.4102,2.3879,2.3879,2.3771,2.3546,2.3297,2.3172,2.3147,2.282,2.2721,2.285,2.3357,2.3665,2.388,2.4461,2.4716,0.0,0.0,0.0,0.0,0.0,0.0,0.0,2.5287,2.546,2.5658,2.5444,2.5499,2.5557,2.5315,2.5946,2.682,2.7292,2.8047,2.8706,2.879,2.8667,2.8502,2.8229,2.8155,2.8155,2.8155,2.8155,2.8155,2.8155,2.8155,2.8163,2.8064,2.7791,2.7576,2.7576,2.7359,2.72,2.72,2.72,2.72,2.72,2.72,2.72,2.72,2.72,2.72,2.72,2.72,2.7167,2.71,2.7167,2.7167,2.71,2.7167,2.72,2.72,2.7134,2.7134,2.72,2.72,2.72,2.72,2.72,2.72,2.72,2.72,2.7248,2.7351,2.7596,2.7905,2.8199,0.0,0.0,0.0,0.0,0.0,0.0,0.0,0.0,0.0,0.0,0.0,0.0,0.0,0.0,0.0,0.0,0.0,0.0,0.0,0.0,0.0,2.2071,2.2269,2.2742,2.3578,2.3605,2.3546,2.3397,2.3671,2.3755,2.3605,2.3605,2.3522,2.3406,2.3122,2.2996,2.298,2.2893,2.2946,2.316,2.3717,2.4059,2.4264,2.4639,2.4793,2.4793,2.4793,0.0,0.0,0.0,0.0,0.0,0.0,0.0,2.6213,2.6253,2.6275,2.6249,2.6239,2.6785,2.7484,2.8044,2.8629,2.8996,2.884,2.893,2.893,2.8601,2.8535,2.8535,2.8535,2.8535,2.8535,2.8535,2.8535,2.8469,2.8329,2.8122,2.7981,2.7981,2.765,2.7425,2.7425,2.7292,2.72,2.72,2.72,2.72,2.72,2.72,2.72,2.72,2.72,2.72,2.72,2.72,2.72,2.72,2.72,2.72,2.72,2.72,2.72,2.72,2.72,2.72,2.72,2.72,2.72,2.72,2.72,2.7312,2.7445,2.7635,2.7905,2.8191,0.0,0.0,0.0,0.0,0.0,0.0,0.0,0.0,0.0,0.0,0.0,0.0,0.0,0.0,0.0,0.0,0.0,0.0,0.0,0.0,0.0,2.2419,2.2295,2.2562,2.3304,2.3322,2.3297,2.3247,2.3297,2.3297,2.3247,2.3297,2.3297,2.3247,2.3091,2.3025,2.3026,2.3152,2.3409,2.3726,2.4085,2.44,2.4699,2.4768,2.4793,2.4802,2.4889,2.5112,2.5406,2.5474,0.0,0.0,0.0,0.0,2.6683,2.7009,2.7103,2.718,2.7509,2.7938,2.8451,2.9136,2.9307,2.9218,2.8963,2.9086,2.9218,2.893,2.8906,2.8906,2.8906,2.8906,2.8906,2.8906,2.8906,2.8799,2.8494,2.8428,2.8403,2.8403,2.8048,2.7816,2.7816,2.7492,2.73,2.73,2.7234,2.72,2.72,2.72,2.72,2.72,2.72,2.72,2.72,2.72,2.72,2.72,2.72,2.72,2.72,2.72,2.72,2.72,2.72,2.72,2.72,2.72,2.72,2.72,2.72,2.7383,2.7604,2.7604,2.7818,2.8095,0.0,0.0,0.0,0.0,0.0,0.0,0.0,0.0,0.0,0.0,0.0,0.0,0.0,0.0,0.0,0.0,0.0,0.0,0.0,0.0,0.0,2.2221,2.2279,2.2526,2.3038,2.3046,2.2946,2.2695,2.2946,2.2921,0.0,0.0,2.2921,2.2712,2.2963,2.3092,2.3117,2.346,2.3649,2.3726,2.4085,2.4237,2.4323,2.4665,2.4793,2.4864,2.5181,2.5354,2.5449,2.5746,2.6076,0.0,0.0,0.0,2.7034,2.7086,2.7103,2.718,2.7509,2.8143,2.8802,2.9205,2.9307,2.9283,2.9242,2.9283,2.9283,2.9242,2.9218,2.9218,2.9218,2.9218,2.9218,2.9218,2.9218,2.9218,2.9176,2.893,2.8741,2.8741,2.8436,2.8229,2.8229,2.7849,2.7642,2.7642,2.7359,2.72,2.72,2.72,2.72,2.72,2.72,2.72,2.72,2.72,2.72,2.72,2.72,2.72,2.72,2.72,2.72,2.72,2.72,2.72,2.72,2.72,2.72,2.72,2.72,2.7232,2.7272,2.7272,2.7494,2.7723,0.0,0.0,0.0,0.0,0.0,0.0,0.0,0.0,0.0,0.0,0.0,0.0,0.0,0.0,0.0,0.0,0.0,0.0,0.0,0.0,0.0,2.2237,2.2186,2.234,2.277,2.277,2.272,2.2594,2.272,0.0,0.0,2.272,2.272,0.0,2.2946,2.3091,2.3126,2.3734,2.3982,2.4016,2.4383,2.4656,2.4864,2.483,2.4949,2.5146,2.5337,2.5506,2.5746,2.6122,2.6499,2.6846,2.6846,0.0,0.0,0.0,2.7103,2.7232,2.7775,2.8613,2.9362,2.9297,2.9307,2.934,2.9528,2.9438,2.934,2.9528,2.9438,2.9307,2.9307,2.9307,2.9307,2.9307,2.9307,2.9307,2.9307,2.9185,2.9086,2.9086,2.8799,2.8568,2.8568,2.8263,2.8056,2.8056,2.7683,2.7484,2.7484,2.73,2.72,2.72,2.72,2.72,2.72,2.72,2.72,2.72,2.72,2.7312,2.7461,2.7296,2.72,2.72,2.72,2.732,2.7461,2.7461,2.7461,2.7461,2.7461,2.7383,2.7224,2.7397,2.7564,2.7707,0.0,0.0,0.0,0.0,0.0,0.0,0.0,0.0,0.0,0.0,0.0,0.0,0.0,0.0,0.0,0.0,0.0,0.0,0.0,0.0,0.0,2.2207,2.218,2.2294,2.2594,2.2594,2.2594,2.2594,0.0,0.0,2.2594,2.2594,2.2645,0.0,2.3091,2.3306,0.0,2.4075,2.4349,2.4391,2.4804,2.5121,2.538,2.5172,2.5275,2.5543,2.5543,2.5754,2.6093,2.6396,2.6777,2.7103,2.7103,2.7103,0.0,0.0,0.0,2.7355,2.8015,2.8857,2.9546,2.9445,2.9438,2.9537,2.9855,2.9765,2.9602,2.9781,2.9593,2.9406,2.9307,2.9307,2.9307,2.9307,2.9307,2.9307,2.9307,2.9307,2.9307,2.9307,2.9086,2.893,2.893,2.8634,2.8436,2.8436,2.8089,2.7808,2.7708,2.7451,2.73,2.72,2.72,2.72,2.72,2.7288,2.7335,2.7343,2.7423,2.7606,2.7818,2.7582,2.7463,2.7455,2.7375,2.7534,2.7826,2.7826,2.777,2.7707,2.7794,2.7611,2.7383,2.7691,2.7826,2.7857,0.0,0.0,0.0,0.0,0.0,0.0,0.0,0.0,0.0,0.0,0.0,0.0,0.0,0.0,2.1741,2.1696,2.2057,2.2234,2.2185,2.223,2.2156,2.202,2.2379,0.0,2.2594,2.2594,2.2594,2.2594,0.0,0.0,2.2594,2.2594,2.2766,2.31,2.3494,2.3836,2.4177,0.0,0.0,0.0,2.5217,2.538,2.5432,2.5717,2.5862,2.5879,2.5879,2.6148,2.6465,2.6482,2.6777,2.7103,2.7103,2.7103,2.7103,0.0,0.0,0.0,2.8083,2.8526,2.9017,2.9637,2.9781,2.9887,3.0272,3.0378,3.0239,2.9887,2.9781,2.9683,2.9373,2.9307,2.9307,2.9307,2.9307,2.9307,2.9307,2.9307,2.9307,2.9307,2.9275,2.9283,2.9283,2.8963,2.8774,2.8774,2.8469,2.8089,2.7708,2.7675,2.7517,2.72,2.72,2.72,2.72,2.7508,2.7667,2.7675,2.7984,2.8143,2.8159,2.8143,2.8135,2.8119,2.7802,2.7857,2.8159,2.8159,2.7976,2.773,2.804,2.7961,2.7707,2.804,2.8159,2.8167,0.0,0.0,0.0,0.0,0.0,0.0,0.0,0.0,0.0,0.0,0.0,0.0,0.0,2.1926,2.192,2.2192,2.2071,2.2052,2.2257,2.2179,2.2197,2.2388,2.2525,2.2594,2.2594,2.2594,2.2594,0.0,0.0,2.2594,2.2594,2.2594,2.2929,2.3503,2.3632,2.3879,2.4229,2.4622,0.0,2.5217,2.5346,2.568,2.608,2.5948,2.605,2.6294,2.6294,2.6379,2.6525,2.6812,2.6992,2.7103,2.7103,2.7103,2.7103,2.7103,2.7482,2.7945,2.8154,2.8659,2.9115,2.9157,2.9485,2.985,2.9977,3.0013,3.0245,3.0972,3.0788,3.0399,3.0269,2.9733,2.9307,2.9307,2.9307,2.9307,2.9307,2.9307,2.9307,2.9307,2.9307,2.9307,2.9307,2.9185,2.9119,2.9119,2.8799,2.8568,2.8395,2.8188,2.7915,2.7517,2.7517,2.7425,2.72,2.7328,2.7477,2.7699,2.7818,2.8138,2.8559,2.808,2.8154,2.8543,2.7979,2.7881,2.8191,2.8191,2.8119,2.8024,2.8143,2.8119,2.8056,2.844,2.8575,2.8607,0.0,0.0,0.0,0.0,0.0,0.0,0.0,0.0,0.0,0.0,0.0,0.0,0.0,0.0,2.2134,2.2536,2.2276,2.2226,2.2512,2.2324,2.232,2.2585,2.2594,2.2594,2.2594,2.2594,2.2594,2.2594,2.2594,2.2663,0.0,2.2766,2.316,2.388,2.388,2.4068,0.0,2.4682,2.4958,2.5206,2.5455,2.578,2.6143,2.6122,2.6277,2.6473,2.6345,2.6465,2.6734,2.6863,2.7138,2.7388,2.7176,2.7103,2.7103,2.7103,2.7427,2.7829,2.812,2.8714,2.9325,2.9597,2.9995,3.0361,3.0628,3.0477,3.0602,3.1685,3.1529,3.1207,3.1327,3.0691,2.9985,2.9406,2.9307,2.9307,2.9307,2.9307,2.9373,2.9602,2.9635,2.9733,2.9985,2.9985,2.9896,2.9635,2.9414,2.916,2.8807,2.8601,2.8221,2.7708,2.7584,2.7425,2.72,2.732,2.7558,2.7865,2.7984,2.8321,2.8793,2.8289,2.8265,2.8567,2.8225,2.8201,2.8408,2.8408,2.8408,2.8416,2.8535,2.8511,2.8448,2.8813,2.8984,2.9015,0.0,0.0,0.0,0.0,0.0,0.0,0.0,0.0,0.0,2.2849,0.0,0.0,0.0,0.0,0.0,2.2671,2.2706,2.2791,2.297,2.2745,2.2594,2.2594,2.2594,2.2594,2.2594,2.2594,2.2594,2.2594,2.2603,2.2774,2.3091,2.31,2.3493,2.4203,2.4203,2.4425,2.4793,2.4793,2.4802,2.4879,2.5614,2.57,2.5509,2.6254,2.6508,2.6456,2.6068,2.6456,2.706,2.6683,2.7254,2.7983,2.7314,2.7103,2.7103,2.7103,0.0,0.0,0.0,0.0,0.0,3.103,3.1361,3.1523,3.2203,3.1815,3.1435,3.1885,3.1969,3.2065,3.2374,3.2192,3.1401,2.9659,2.9373,2.9382,2.9373,2.9373,2.9602,3.0254,3.0319,3.0611,3.1313,3.141,3.1087,3.0352,3.0287,2.9872,2.8873,2.8807,2.8461,2.7741,2.7392,2.7208,2.7216,2.7524,2.7865,2.8207,2.8599,2.8809,2.8817,2.8809,2.8575,2.8222,2.8607,2.8793,2.8801,2.8801,2.8801,2.884,2.9147,2.9075,2.8856,2.9171,2.9298,2.9298,0.0,0.0,0.0,0.0,0.0,0.0,0.0,0.0,2.2494,0.0,0.0,0.0,2.2527,2.2663,2.2725,2.2631,2.2639,2.2658,2.272,2.2644,2.2594,2.2594,2.2594,2.2594,2.2594,2.2594,2.2594,2.2594,2.2843,2.3014,2.3117,2.3391,2.3768,2.4203,2.4203,2.4425,2.4793,2.4793,2.4975,2.5258,2.5717,2.6008,2.6263,2.6752,2.694,2.6932,2.6799,2.7215,2.7826,2.7683,2.7848,2.7983,2.7314,2.7103,0.0,2.7103,0.0,0.0,2.8959,0.0,0.0,0.0,0.0,0.0,3.1617,3.1819,3.2292,3.3041,3.3278,3.3377,3.3471,3.3408,3.2965,3.1744,3.1143,3.0885,3.1143,3.0982,3.0894,3.1055,3.1087,3.1184,3.1377,3.141,3.1087,3.0352,3.0287,2.9961,2.9218,2.893,2.8601,2.8155,2.775,2.7546,2.7548,2.7651,2.7992,2.8657,2.8753,2.8936,2.9139,2.892,2.8745,2.8607,2.8448,2.8519,2.8801,2.8801,2.8801,2.8809,2.8912,2.9047,2.9163,2.9266,2.9298,2.9298,0.0,0.0,0.0,0.0,0.0,0.0,2.2505,2.2664,2.276,0.0,0.0,0.0,2.2663,2.2865,2.2896,2.2619,2.2695,2.272,2.2603,2.2594,2.2594,2.2594,2.2594,2.2594,2.2594,2.2594,2.2671,2.2809,2.3006,2.3254,2.3562,2.3802,2.411,2.4451,0.0,0.0,0.0,2.4984,2.5086,2.5189,2.5691,2.5977,2.6109,2.6657,2.6953,2.7069,2.7254,2.7731,2.8316,2.8482,2.8473,2.8314,2.8066,2.779,2.754,2.7347,2.7851,0.0,0.0,0.0,0.0,3.2206,0.0,0.0,3.2611,3.2661,3.3,3.3824,3.4045,3.4204,3.4485,3.4423,3.4163,3.3713,3.3082,3.2489,3.1969,3.1593,3.1506,3.1772,3.1836,3.1933,3.2211,3.2234,3.1955,3.1226,3.0935,3.0319,2.934,2.8996,2.8709,2.8527,2.8144,2.7945,2.7897,2.7905,2.8217,2.8801,2.8801,2.8797,2.8845,2.8825,2.8642,2.8344,2.8416,2.8575,2.8817,2.896,2.9023,2.9023,2.9023,2.9115,2.9298,2.9298,2.9298,2.9298,0.0,0.0,0.0,2.2345,2.2272,2.2378,2.2713,2.2937,2.3113,0.0,2.3247,2.3097,2.2644,2.282,2.2871,2.2619,2.282,2.2846,2.2619,2.2594,2.2594,2.2594,2.2594,2.2594,2.2594,2.2637,2.28,2.3091,2.3168,2.3553,2.4203,2.4254,2.446,2.4793,0.0,0.0,0.0,2.5275,2.5269,2.5029,2.574,2.5855,2.566,2.6387,2.6887,2.7244,2.759,2.8179,2.8835,2.9199,2.9158,2.9006,2.9186,2.8905,2.8454,2.8055,2.8844,0.0,0.0,0.0,0.0,3.3743,3.3906,0.0,3.4293,3.3865,3.3593,3.4233,3.4344,3.449,3.5077,3.4933,3.481,3.5119,3.4696,3.3831,3.2447,3.1914,3.1891,3.2517,3.2549,3.2762,3.3323,3.3386,3.307,3.2348,3.157,3.0635,2.9373,2.9029,2.8843,2.8799,2.8504,2.8343,2.8281,2.8281,2.8464,2.8864,2.8864,2.8654,2.8318,2.8678,2.8495,2.7905,2.8559,2.8864,2.8888,2.9171,2.9298,2.9298,2.9298,2.9298,2.9298,2.9298,2.9298,2.9298,0.0,0.0,0.0,2.2025,2.2067,2.2206,2.2374,2.236,2.2324,2.2341,2.235,2.2409,2.2569,2.2644,2.2669,2.2594,2.2644,2.2669,2.2594,2.2594,2.2594,2.2594,2.2594,2.2594,2.2594,2.2869,2.304,2.3091,2.369,2.4066,2.4212,2.4528,2.4716,2.481,2.5129,2.5294,2.532,2.564,2.5924,2.6119,2.6588,2.6765,2.6774,2.7509,2.8009,2.8297,2.8438,2.9114,2.9973,3.0054,3.0388,3.0637,2.98,3.0054,3.0599,3.0149,3.0408,3.103,3.1973,3.2388,3.2841,3.3932,3.4207,0.0,3.4309,3.4207,3.4126,3.4152,3.394,3.379,3.394,3.3709,3.3538,3.3629,3.3801,3.4021,3.4269,3.3786,3.3449,3.3576,3.3355,3.327,3.3396,3.3386,3.2912,3.1699,3.0408,2.9602,2.9307,2.925,2.9091,2.8807,2.8748,2.8712,2.8689,2.8662,2.888,2.9194,2.9194,2.9155,2.9091,2.9163,2.9115,2.8996,2.9139,2.9194,2.9202,2.9266,2.9298,2.9298,2.9298,2.9298,2.9298,2.9298,2.9298,2.9298,0.0,2.1642,2.1667,2.1987,2.2123,2.2212,2.2365,2.2457,2.24,2.2148,2.2224,2.2299,2.2358,2.2493,2.2594,2.2594,2.2594,2.2594,2.2594,2.2594,2.2594,2.2594,2.2594,2.2594,2.2594,2.292,2.3203,2.3391,2.3929,2.4306,2.4502,2.4699,2.5007,2.5328,2.5179,2.5414,2.5909,2.5915,2.6095,2.648,2.6864,2.7213,2.7598,2.814,2.8681,2.918,2.9404,3.0081,3.0902,3.1221,3.1466,3.1535,3.1064,3.1365,3.1767,3.1328,3.1807,3.2609,3.3134,3.3626,3.4085,3.4687,3.4841,0.0,0.0,3.4697,3.4603,3.4714,3.4478,3.4265,3.4461,3.4258,3.4106,3.4268,3.4329,3.4481,3.486,3.4485,3.4141,3.4141,3.3859,3.3639,3.3639,3.3513,3.2903,3.1727,3.0996,3.0316,2.9632,2.977,2.9589,2.908,2.9227,2.9261,2.9063,2.9036,2.9123,2.9298,2.9298,2.9202,2.9079,2.9218,2.9202,2.9079,2.9218,2.9298,2.9298,2.9298,2.9298,2.9298,2.9298,2.9298,2.9334,2.9549,2.9612,2.9612,2.1325,0.0,2.1334,2.1996,2.2191,2.2281,2.2499,2.2602,2.2501,2.2004,2.2241,2.2384,2.2232,2.2562,2.2808,2.2808,2.2808,2.2783,2.2714,2.2705,2.2731,2.2781,2.2731,2.2765,2.2885,2.316,2.3477,2.3803,2.4135,2.4477,2.4793,2.4793,2.5123,2.567,2.5272,2.5559,2.6302,2.6292,2.6496,2.681,2.7253,2.7637,2.8052,2.8534,2.9123,2.9774,3.0325,3.0888,3.1497,3.2072,3.2241,3.2203,3.2399,3.2707,3.2901,3.2486,3.3173,3.4074,3.4074,3.4604,3.518,3.5273,3.5293,3.5283,0.0,0.0,0.0,3.5221,3.4901,3.4674,3.4994,3.479,3.4636,3.48,3.481,3.4769,3.4646,3.4623,3.4517,3.4329,3.411,3.3953,3.3827,3.3449,3.2769,3.1682,3.1642,3.1168,2.9965,3.0232,3.0122,2.9528,2.9775,2.9753,2.9433,2.9334,2.9298,2.9298,2.9298,2.9147,2.8912,2.9163,2.9139,2.892,2.9171,2.9334,2.9441,2.9441,2.9441,2.9513,2.9369,2.9334,2.9433,2.9791,2.9926,3.0041,2.0997,2.1312,0.0,2.1812,2.2099,2.2351,2.255,2.2156,2.1725,2.1428,2.1945,2.2411,2.2618,2.3209,2.3589,2.3589,2.3589,2.3426,2.3074,2.3049,2.3186,2.3478,2.3212,2.3332,2.3922,2.402,2.41,2.4135,2.4537,2.475,2.4793,2.4793,2.4847,2.4962,2.5837,2.6108,2.6035,2.7239,2.7794,2.7894,2.8581,2.8346,2.769,2.8721,2.9373,2.9841,3.0911,3.1341,3.1451,3.1702,3.2415,3.3209,3.3072,3.3963,3.4985,3.4574,3.4573,3.4716,3.4716,3.4478,3.435,3.4765,3.4858,3.4972,3.5335,0.0,3.4796,3.4858,0.0,3.3737,3.3788,0.0,0.0,3.2902,3.3699,3.4227,3.3799,3.4636,3.4953,3.4047,3.4204,3.411,3.3513,3.2889,3.1951,3.0576,3.0799,3.0705,2.9932,3.0232,3.0369,3.0285,3.0038,2.9886,2.9819,2.9469,2.9298,2.9298,2.9298,2.9274,2.9242,2.9282,2.9274,2.9242,2.9282,2.9505,2.9819,2.9819,3.0006,3.0192,2.9549,2.9505,2.9827,2.9898,3.0077,3.0335,2.0758,2.0899,0.0,2.1297,2.1511,2.1694,2.1828,2.1504,2.1198,2.107,2.165,2.2112,2.2216,2.2934,2.3409,2.3409,2.3594,2.3717,2.3733,2.3571,0.0,2.3919,2.3633,2.3581,2.3868,2.4096,2.4203,2.4203,2.4605,2.4793,2.4793,2.4793,2.5024,2.5473,2.5898,2.6367,2.6863,2.7452,2.797,2.8396,2.8678,2.8671,2.8602,2.9721,3.0356,3.076,3.1226,3.141,3.1543,3.2394,3.2988,3.3517,3.4237,3.4872,3.5356,3.52,3.5148,3.5148,3.5148,3.5156,3.5143,3.5158,3.5302,3.5446,3.5407,3.5076,3.4858,3.5086,0.0,0.0,0.0,0.0,0.0,0.0,3.4432,3.4585,3.4391,3.4964,3.517,3.4548,3.4423,3.3985,3.2921,3.2921,3.2337,3.076,3.116,3.1092,3.0223,3.0523,3.0624,3.0422,3.0473,3.0426,3.0184,3.0014,2.9942,2.9942,2.9942,2.9835,2.9648,2.9648,2.9648,2.9648,2.9648,2.9863,3.0184,3.0184,3.0255,3.0406,3.0532,3.0425,3.0255,3.0914,3.1268,3.148,2.046,0.0,2.065,2.1001,2.1205,2.1336,2.1311,2.1022,2.0853,2.1016,2.1483,2.1921,2.2134,2.2967,2.3542,2.3542,2.3914,2.4232,2.4357,2.4247,2.43,2.4612,2.4233,2.4087,2.4262,2.4253,2.4284,2.4366,2.4574,2.4738,2.4793,2.4793,2.5078,2.5607,2.59,2.6465,2.7234,2.773,2.8262,2.8767,2.9073,2.956,3.0126,3.0717,3.1125,3.141,3.1612,3.1667,3.185,3.2966,3.354,3.3996,3.5119,3.5571,3.5675,3.5675,3.5675,3.5644,3.5541,3.5706,3.5829,3.5479,3.5582,3.5706,3.5459,3.5169,3.5065,3.5355,3.5159,0.0,0.0,0.0,3.5067,3.5201,0.0,3.5005,3.4882,3.5098,3.5139,3.4797,3.4485,3.3796,3.2635,3.2889,3.2462,3.0873,3.1295,3.1263,3.0446,3.0763,3.0915,3.0721,3.0894,3.086,3.0584,3.0477,3.0406,3.0406,3.0406,3.022,2.989,2.989,2.9827,2.9755,2.9855,3.0077,3.0406,3.0513,3.062,3.0789,3.1551,3.1515,3.1135,3.207,3.2456,3.2675,2.013,2.0436,2.0808,2.1131,2.1478,2.159,2.1351,2.0849,2.0725,2.1302,2.1527,2.193,2.2771,2.3776,2.437,2.437,2.4963,2.5172,2.4802,2.5129,2.5459,2.5731,2.5123,2.5061,2.5733,2.4835,2.4526,2.4776,2.4535,2.4543,2.4793,2.4793,2.4802,2.4872,2.5926,2.6408,2.6562,2.8301,2.9076,2.9166,3.0277,3.1373,3.2209,3.1529,3.1347,3.1474,3.2125,3.2358,3.2451,3.3023,3.3937,3.4943,3.5507,3.599,3.6361,3.6361,3.6361,3.63,3.5952,3.5891,3.5829,3.5479,3.5428,3.5418,3.5387,3.5376,3.5376,3.5387,3.5376,3.5376,3.5387,3.5397,3.5252,0.0,0.0,0.0,0.0,3.4872,3.4797,3.4454,3.411,3.3639,3.2953,3.2603,3.1846,3.0434,3.0715,3.0797,3.0412,3.0763,3.1183,3.1534,3.1206,3.1002,3.0966,3.0576,3.0406,3.0406,3.0406,3.022,2.989,2.989,2.9684,2.9334,2.972,3.0077,3.0442,3.0824,3.1214,3.163,3.236,3.264,3.2666,3.3041,3.3407,3.3738,2.0281,2.0409,2.0579,2.0866,2.12,2.1348,2.107,2.1265,2.137,2.1224,2.1943,2.2584,2.2867,2.4016,2.4721,2.4721,2.5352,2.5797,2.5917,2.6007,2.6224,2.6571,2.6329,2.6103,2.5868,2.5334,2.4977,2.4793,2.4543,2.4543,2.4793,2.4793,2.4793,2.4855,2.5934,2.6664,2.7205,2.8555,2.9523,3.0308,3.1418,3.215,3.2602,3.2674,3.2692,3.2753,3.2975,3.3206,3.3493,3.4117,3.4737,3.5335,3.5987,3.6265,3.6392,3.6392,3.6392,3.6392,3.627,3.6392,3.6423,3.586,3.5891,3.5952,3.5479,3.5387,3.5448,3.5706,3.5552,3.549,3.5706,3.5552,0.0,0.0,0.0,0.0,0.0,3.5232,3.5015,3.4485,3.3922,3.3301,3.2635,3.2485,3.1814,3.0417,3.0443,3.0395,3.0086,3.0429,3.0806,3.1191,3.1334,3.1391,3.1391,3.125,3.1179,3.1179,3.1179,3.1002,3.0611,3.0362,3.0148,3.0014,2.9934,3.0255,3.0797,3.0931,3.1524,3.2395,3.3138,3.3729,3.4179,3.4283,3.4421,3.4602,2.0253,2.0337,2.055,2.0918,2.1081,2.1141,2.1118,2.13,2.1537,2.1872,2.2414,2.2851,2.3088,2.417,2.4869,2.4763,2.56,2.6234,2.6473,2.6674,2.6903,2.7164,2.7129,2.6918,2.647,2.5771,2.5342,2.5186,2.4667,2.4543,2.4793,2.4958,2.5018,2.5044,2.6019,2.6924,2.7789,2.8724,2.9782,3.0922,3.2368,3.322,3.3711,3.4125,3.3885,3.337,3.38,3.4141,3.4517,3.5067,3.5572,3.6014,3.6595,3.6748,3.6748,3.6748,3.6748,3.6717,3.6606,3.6739,3.6739,3.6075,3.6136,3.627,3.5706,3.5675,3.5829,3.6014,3.5798,3.5675,3.6014,3.5706,3.5459,0.0,0.0,0.0,0.0,3.5108,3.4828,3.4298,3.3953,3.3386,3.2485,3.2189,3.1548,3.0384,3.0091,2.9939,2.9915,3.0112,3.0446,3.0968,3.1242,3.1466,3.1603,3.1603,3.1603,3.1603,3.1603,3.1391,3.1002,3.0584,3.0335,3.0228,3.0006,3.0184,3.0611,3.0753,3.1312,3.2184,3.3207,3.3971,3.4568,3.5093,3.5299,3.5367,2.0046,2.0337,2.0725,2.1134,2.105,2.1027,2.1414,2.1038,2.1324,2.311,2.2883,2.2816,2.3468,2.4389,2.487,2.4613,2.5796,2.6546,2.6546,2.7171,2.7551,2.7551,2.7567,2.757,2.7523,2.6191,2.5619,2.5922,2.494,2.4602,2.4853,2.526,2.5423,2.5457,2.6194,2.7131,2.8207,2.8964,2.9964,3.1193,3.3158,3.4538,3.5448,3.5788,3.4851,3.3502,3.4573,3.517,3.551,3.5828,3.6391,3.6982,3.7294,3.7404,3.7404,3.7404,3.7404,3.7325,3.6982,3.6891,3.6728,3.6086,3.6167,3.6331,3.5983,3.6178,3.6392,3.6423,3.6178,3.6014,3.6331,3.586,3.5521,0.0,0.0,0.0,3.4953,3.461,3.4267,3.3953,3.4173,3.3859,3.2581,3.1795,3.112,3.0417,2.9667,2.9437,2.9847,2.9881,3.0198,3.096,3.1003,3.1191,3.1595,3.1603,3.1603,3.1603,3.1603,3.1391,3.1002,3.0611,3.0255,2.9926,2.9898,2.989,2.9926,3.0255,3.0682,3.125,3.2684,3.3539,3.4121,3.5479,3.5982,3.5982,2.0753,2.1204,2.1243,2.0274,2.0602,2.1024,2.1166,2.1611,2.2063,2.2398,2.3124,2.3775,2.4195,2.5119,2.5797,2.5965,2.6776,2.7253,2.7253,2.7877,2.8238,2.8238,2.8468,2.8358,2.7816,2.6988,2.649,2.6269,2.5551,2.5336,2.5623,2.5717,2.576,2.5814,2.6549,2.7637,2.8998,3.0183,3.2046,3.4221,3.4248,3.481,3.5651,3.6101,3.5912,3.5432,3.56,3.6014,3.6514,3.6595,3.693,3.7294,3.7374,3.7404,3.7404,3.7404,3.7404,3.7325,3.6982,3.6891,3.68,3.6392,3.6331,3.6392,3.63,3.6331,3.6453,3.6708,3.6484,3.63,3.6392,3.6055,3.5737,3.5552,0.0,3.5015,3.4922,3.461,3.4267,3.3953,3.3985,3.3796,3.3206,3.2083,3.1313,3.112,2.9774,2.9071,2.9453,2.9494,2.9834,3.0532,3.0831,3.1191,3.1595,3.1603,3.1603,3.1603,3.1603,3.1568,3.1427,3.1037,3.0655,3.0264,3.0006,2.989,2.9898,3.0006,3.1056,3.2719,3.3434,3.4659,3.5972,3.6006,3.5982,3.5982,2.0808,2.1025,2.0968,2.0411,2.0745,2.12,2.15,2.2291,2.2998,2.329,2.4064,2.4639,2.4717,2.5612,2.6283,2.6491,2.7124,2.7551,2.7711,2.8208,2.8496,2.8496,2.8815,2.8815,2.838,2.7911,2.739,2.6894,2.6387,2.6068,2.5914,2.6076,2.6145,2.6191,2.6784,2.7737,2.9051,3.0907,3.3005,3.5077,3.5077,3.562,0.0,3.6571,3.6658,3.6695,3.6418,3.6667,3.7123,3.7123,3.7234,3.7374,3.7234,3.7173,3.7143,3.7021,3.7082,3.7123,3.6758,3.68,3.6769,3.63,3.63,3.6392,3.6392,3.6514,3.6698,3.7063,3.685,3.6667,3.6809,3.632,3.5737,3.5263,3.5015,3.4859,3.4704,3.4392,3.411,3.3922,3.3765,3.3607,3.3418,3.2179,3.141,3.141,2.9807,2.8996,2.9495,2.929,2.9378,2.9944,3.0455,3.0943,3.1319,3.1517,3.1603,3.1603,3.1603,3.1603,3.1603,3.1179,3.0895,3.0611,3.0113,3.0176,3.0595,3.0452,3.1498,3.3286,3.422,3.5561,3.6914,3.667,3.6338,3.5982,2.0415,2.0415,2.0581,2.1044,2.1368,2.1719,2.2232,2.303,2.3904,2.4793,2.5214,2.5361,2.5156,2.5953,2.6538,2.6568,2.715,2.7642,2.799,2.8298,2.8526,2.8546,2.8836,2.9012,2.9087,2.875,2.8271,2.7635,2.7298,2.6781,2.6068,2.6414,2.6568,2.6614,2.7039,2.7965,2.9346,3.1613,3.3524,3.5122,3.5722,3.6533,3.7385,3.7063,3.7154,3.7355,3.7002,3.7123,3.7374,3.7355,3.7314,3.7264,3.6952,3.683,3.6769,3.6484,3.6617,3.6769,3.6423,3.6545,3.6637,3.6044,3.6116,3.6361,3.6453,3.6678,3.6972,3.7264,3.7093,3.6972,3.7173,3.6432,3.5593,3.49,3.4744,3.461,3.436,3.3985,3.3702,3.3702,3.3449,0.0,3.327,3.2083,3.1345,3.141,2.9741,2.9021,2.9683,2.9152,2.9008,2.9438,3.0071,3.0583,3.1011,3.1415,3.1603,3.1603,3.1603,3.1603,3.1603,3.125,3.1037,3.0966,3.0327,3.0603,3.1472,3.118,3.2043,3.3649,3.5137,3.6396,3.7383,3.7383,3.6875,3.6157,1.9958,2.0914,2.1647,2.1264,2.2476,2.3484,2.3341,2.3647,2.4174,2.4883,2.5313,2.5664,2.5893,2.6311,2.669,2.697,2.7306,2.7642,2.799,2.8298,2.8606,2.8895,2.8984,2.9161,2.9491,2.9168,2.8798,2.8414,2.8066,2.757,2.6876,2.6974,2.7,2.703,2.7573,2.9541,3.2454,3.3467,3.5063,3.6892,3.6472,3.6748,3.7374,3.7314,3.7355,3.7355,3.7002,3.7123,3.7344,3.7063,3.6982,3.6921,3.6575,3.6484,3.6484,3.6423,3.6423,3.6423,3.6075,3.6014,3.6044,3.5921,3.5952,3.6136,3.6678,3.6861,3.6921,3.6982,3.6952,3.6739,3.6259,3.5798,3.52,3.4292,3.3865,3.3733,3.3953,3.3238,3.2667,3.2667,3.2603,3.2571,3.2571,3.157,3.1055,3.1377,2.9537,2.8692,2.934,2.8996,2.9108,2.9781,3.0173,3.0583,3.1011,3.1415,3.1603,3.1603,3.1603,3.1603,3.1603,3.1532,3.132,3.1002,3.086,3.1064,3.1507,3.1436,3.2897,3.5287,3.6505,3.7335,3.7777,3.7777,3.75,3.707,2.0382,2.1117,2.1904,2.2142,2.3202,2.419,2.4798,2.5119,2.534,2.5494,2.5874,2.6189,2.6332,2.6651,2.7034,2.7517,2.768,2.7981,2.8498,2.8657,2.8927,2.9308,2.9317,2.951,2.9892,2.9948,2.953,2.8587,2.8646,2.8123,2.7103,2.7103,2.7155,2.7366,2.8727,3.0642,3.2932,3.4213,3.5556,3.6796,3.6894,3.7112,3.7404,3.7404,3.7404,3.7385,3.7214,3.7264,3.7355,3.7002,3.6891,3.683,3.6514,3.627,3.6116,3.5921,3.5983,3.6075,3.5737,3.5767,3.586,3.5675,3.5767,3.6014,3.6514,3.6647,3.6678,3.6861,3.6769,3.632,3.5304,3.5158,3.4682,3.3168,3.2899,3.2832,3.2613,3.2179,3.1869,3.1869,3.1869,3.1804,3.1603,3.0635,3.0538,3.1836,2.9659,2.8659,2.9495,2.9086,2.8957,2.9333,3.0037,3.0489,3.0677,3.1277,3.1603,3.1603,3.1603,3.1603,3.1603,3.1603,3.1489,3.1285,3.1108,3.163,3.2745,3.3511,3.4897,3.6543,3.7083,3.7685,3.8262,3.8262,3.8135,3.79,2.1401,2.1698,2.2349,2.3331,2.4066,2.492,2.6012,2.65,2.661,2.6351,2.6545,2.6722,2.6783,2.7034,2.7397,2.784,2.796,2.8259,2.8865,2.8895,2.9099,2.9583,2.9601,2.984,3.0314,3.072,3.0313,2.9082,2.923,2.8606,2.7306,2.7164,2.7431,2.8126,2.9968,3.1682,3.3306,3.4833,3.5913,3.6622,3.7262,3.7465,3.7415,3.7476,3.7465,3.7374,3.7325,3.7355,3.7355,3.6941,3.68,3.6739,3.6392,3.6044,3.5737,3.5479,3.5582,3.5737,3.549,3.5572,3.5737,3.549,3.5613,3.5891,3.6208,3.6167,3.6178,3.6423,3.6044,3.5273,3.3991,3.4134,3.385,3.1985,3.1884,3.1898,3.1456,3.1281,3.1152,3.1152,3.1152,3.1055,3.0732,2.9798,2.9929,3.1708,2.9626,2.8716,2.965,2.9119,2.8807,2.8807,2.9775,3.0293,3.0293,3.1148,3.1603,3.1603,3.1603,3.1603,3.1603,3.1603,3.17,3.1806,3.1489,3.2368,3.4128,3.547,3.6475,3.7168,3.7266,3.7764,3.8447,3.8571,3.8611,3.8513,2.3157,2.3365,2.3701,2.4674,2.5621,2.6316,2.6444,2.7004,2.7409,2.7349,2.719,2.7155,2.7401,2.7431,2.7491,2.7551,2.7831,2.8148,2.8517,2.8546,2.8868,2.9553,2.9601,2.9969,3.0717,3.1078,3.1028,3.0577,2.9967,2.909,2.8002,2.7397,2.8106,2.9883,3.094,3.2923,3.5512,3.5947,3.6747,3.7752,3.7826,3.7657,3.7435,3.7758,3.7657,3.7344,3.7073,3.7154,3.7283,3.6667,3.6453,3.6392,3.6044,3.5737,3.5459,3.5418,3.5418,3.5459,3.5418,3.5418,3.5459,3.5428,3.5418,3.551,3.586,3.5479,3.5046,3.5077,3.409,3.2893,3.1859,3.2207,3.2288,3.1175,3.096,3.1059,3.1345,3.0829,3.0417,3.0417,3.0417,3.0384,3.0352,2.9456,2.9185,2.9976,2.8979,2.8593,2.9307,2.8996,2.8807,2.8807,2.9556,2.9934,2.9934,3.1051,3.1603,3.1603,3.1603,3.1603,3.1603,3.1603,3.1947,3.2596,3.257,3.3407,3.4843,3.5675,3.6299,3.6802,3.7148,3.7578,3.8027,3.8428,3.8611,3.8601,2.4591,2.4988,2.5488,2.6094,2.6703,2.7181,2.7358,2.7644,2.7951,2.834,2.796,2.7689,2.7801,2.7801,2.7951,2.837,2.8528,2.8746,2.9073,2.9103,2.9359,2.992,2.9947,3.0425,3.1426,3.1604,3.1474,3.1097,3.0369,2.9567,2.8702,2.8439,2.9486,3.1735,3.3165,3.4721,3.6378,3.6981,3.7612,3.819,3.819,3.813,3.7998,3.7938,3.7818,3.7657,3.7325,3.7294,3.7344,3.7082,3.6717,3.6331,3.6014,3.5675,3.5387,3.5387,3.5387,3.5387,3.5387,3.5387,3.5294,3.4891,3.4953,3.4984,3.4496,3.4205,3.3955,3.3745,3.3104,3.2271,3.1213,3.1467,3.1396,3.0132,3.0127,3.0232,3.015,2.9896,2.97,2.97,2.97,2.9611,2.9423,2.9029,2.8898,2.9185,2.8832,2.8634,2.8692,2.8955,2.8996,2.8807,2.9716,3.0199,3.0199,3.1113,3.1603,3.1603,3.1603,3.1603,3.1638,3.2052,3.2675,3.3381,3.3833,3.4352,3.4956,3.5709,3.6426,3.706,3.7226,3.7715,3.834,3.8542,3.8611,3.8611,2.5964,2.6305,2.6726,2.7199,2.7476,2.776,2.8104,2.8229,2.8469,2.8955,2.8677,2.8409,2.8289,2.8208,2.8388,2.8955,2.9103,2.9272,2.9597,2.9538,2.9753,3.0313,3.0349,3.083,3.1869,3.2102,3.2057,3.1778,3.1034,3.0347,2.9767,2.9729,3.0884,3.3085,3.4629,3.6003,3.7221,3.7694,3.8148,3.8518,3.8518,3.8459,3.838,3.813,3.801,3.7848,3.7536,3.7404,3.7374,3.7173,3.6778,3.6361,3.6116,3.5737,3.5387,3.5387,3.5387,3.5387,3.5387,3.517,3.4859,3.436,3.4194,3.3965,3.3262,3.2936,3.2661,3.211,3.1799,3.135,3.0538,3.0588,3.0465,2.9449,2.9547,2.9624,2.935,2.9307,2.9307,2.9307,2.9307,2.9218,2.8963,2.8963,2.8906,2.8807,2.89,2.8817,2.8477,2.8898,2.9039,2.8801,2.9733,3.0421,3.0754,3.1312,3.17,3.1912,3.17,3.17,3.1947,3.2919,3.3625,3.4154,3.4912,3.5221,3.5264,3.5777,3.6377,3.6934,3.706,3.7559,3.8213,3.834,3.8467,3.8611,2.7278,2.7202,2.7207,2.788,2.7981,2.811,2.8427,2.8776,2.8984,2.9014,2.9272,2.9361,2.9005,2.8696,2.8636,2.8984,2.9302,2.9597,2.9863,2.9656,2.9843,3.0652,3.068,3.1071,3.1869,3.2549,3.2889,3.288,3.2134,3.16,3.1264,3.1219,3.2114,3.3811,3.4835,3.6436,3.8369,3.8028,3.8257,3.88,3.88,3.8645,3.841,3.841,3.819,3.7848,3.7536,3.7404,3.7283,3.6637,3.6392,3.6392,3.6392,3.5952,3.5387,3.5387,3.5387,3.5387,3.5387,3.4673,3.3922,3.3922,3.3146,3.2438,3.2406,3.1914,3.112,3.0074,2.9846,2.9724,2.9373,2.9316,2.9316,2.9307,2.9316,2.9316,2.9307,2.9307,2.9307,2.9307,2.9307,2.9307,2.9275,2.9275,2.9152,2.8807,2.9127,2.9135,2.8824,2.8807,2.8801,2.8799,2.9503,3.0446,3.159,3.1608,3.1982,3.2666,3.1947,3.1982,3.2736,3.4214,3.4878,3.4912,3.5675,3.5991,3.5991,3.5982,3.6025,3.604,3.6548,3.6978,3.7363,3.7773,3.8203,3.8611,2.804,2.8247,2.8494,2.8948,2.8826,2.8797,2.9124,2.9272,2.942,2.9597,2.9715,2.9804,2.9951,2.9479,2.939,2.9922,3.0039,3.0147,3.0245,3.0207,3.0344,3.0692,3.0972,3.1467,3.2221,3.2667,3.3016,3.3238,3.2498,3.2104,3.2001,3.2911,3.3882,3.4944,3.6167,3.7232,3.807,3.819,3.8477,3.883,3.9049,3.9101,3.8964,3.8559,3.832,3.816,3.7596,3.7404,3.7314,3.688,3.6586,3.6361,3.6136,3.5767,3.5387,3.5387,3.5387,3.5294,3.4828,3.4485,3.4016,3.3111,3.2685,3.2204,3.1257,3.0473,2.9855,2.9537,2.9463,2.9438,2.9307,2.9307,2.9307,2.9307,2.9307,2.9307,2.9307,2.9307,2.9307,2.9307,2.9307,2.9307,2.9307,2.9307,2.9353,2.9535,2.9184,2.8685,2.8089,2.876,2.8918,2.8462,2.9631,3.0643,3.1539,3.1581,3.1982,3.271,3.1665,3.1833,3.3076,3.4317,3.5152,3.5675,3.5889,3.5982,3.5982,3.5982,3.6201,3.6475,3.6656,3.71,3.7708,3.7835,3.8203,3.8611,2.8794,2.9017,2.9302,2.9597,2.9479,2.942,2.9627,2.9774,2.9863,2.9892,3.0128,3.041,3.077,3.0593,3.0504,3.0613,3.0623,3.0749,3.1071,3.1003,3.1064,3.1297,3.153,3.1955,3.2562,3.2921,3.3206,3.3386,3.2944,3.2724,3.2746,3.4093,3.4954,3.5448,3.6798,3.7657,3.81,3.8309,3.8626,3.9019,3.9208,3.9308,3.9249,3.8745,3.8488,3.832,3.7788,3.7506,3.7355,3.7002,3.6769,3.6546,3.6255,3.5718,3.5232,3.5356,3.5511,3.549,3.463,3.4251,3.3801,3.2543,3.1962,3.1435,3.0447,2.9747,2.9307,2.9307,2.9427,2.9487,2.9342,2.9436,2.9479,2.9333,2.9307,2.9307,2.9307,2.9307,2.9307,2.9307,2.9307,2.9307,2.9307,2.9307,2.9404,2.9655,2.9236,2.8742,2.8155,2.8751,2.906,2.8922,3.0174,3.1327,3.2346,3.2141,3.2535,3.3511,3.2966,3.3088,3.3893,3.5029,3.5727,3.5982,3.5982,3.5982,3.5982,3.5982,3.6182,3.6426,3.6426,3.6846,3.7471,3.7627,3.7959,3.8359,2.947,2.9538,2.9618,2.9892,2.9922,2.9922,2.9951,3.0245,3.0323,3.0039,3.0558,3.1094,3.1485,3.1821,3.1771,3.1204,3.1155,3.1469,3.2199,3.1954,3.1932,3.2286,3.2334,3.2527,3.288,3.3228,3.3386,3.3386,3.3386,3.3418,3.3513,3.4828,3.5448,3.5572,3.6889,3.7818,3.841,3.841,3.8757,3.9279,3.9279,3.9308,3.9267,3.893,3.8615,3.835,3.801,3.7687,3.7355,3.7002,3.6913,3.6898,3.6675,3.5811,3.4962,3.5345,3.5676,3.5724,3.4638,3.3934,3.3301,3.2137,3.1135,3.0332,3.0025,2.965,2.9359,2.9384,2.9684,2.9813,2.9419,2.965,2.977,2.9376,2.9307,2.9307,2.9307,2.9307,2.9307,2.9307,2.9307,2.9307,2.9307,2.9307,2.9305,2.9337,2.9308,2.9146,2.8909,2.8876,2.9127,2.9786,3.0994,3.2296,3.3694,3.3094,3.3442,3.4774,3.5231,3.5246,3.4887,3.6091,3.6406,3.5982,3.5982,3.5982,3.5982,3.5982,3.5982,3.5982,3.5982,3.6289,3.6753,3.7139,3.7568,3.7952,2.9745,2.9804,2.9922,3.0245,3.0069,3.0069,3.0587,3.0733,3.082,3.0947,3.1325,3.1668,3.187,3.1959,3.2197,3.2697,3.2703,3.2644,3.2582,3.2563,3.2479,3.2306,3.2572,3.2784,3.2889,3.3228,3.3386,3.3386,3.3386,3.367,3.4204,3.5273,3.6043,3.6574,3.7698,3.8249,3.841,3.8615,3.8782,3.893,3.9208,3.9308,3.9267,3.893,3.8615,3.835,3.801,3.7687,3.7355,3.7002,3.6985,3.7017,3.6687,3.5881,3.5158,3.5757,3.525,3.4371,3.3788,3.3379,3.2888,3.1795,3.0937,3.0462,3.0686,3.0241,2.9838,3.0079,3.0207,3.0156,2.9821,2.9838,2.977,2.9376,2.9307,2.9307,2.9307,2.9307,2.9307,2.9307,2.9307,2.9307,2.9307,2.9307,2.9424,2.9715,2.925,2.9242,2.996,2.9484,2.9156,2.9066,3.0969,3.229,3.2945,3.3347,3.3546,3.3606,3.4583,3.4825,3.4461,3.5635,3.6123,3.5982,3.5982,3.5982,3.5982,3.5982,3.5982,3.5982,3.5982,3.6289,3.6753,3.7139,3.7568,3.7952,3.0069,3.0128,3.0216,3.0577,3.0489,3.0518,3.1005,3.1082,3.1278,3.1778,3.1973,3.2331,3.2995,3.3065,3.3397,3.4196,3.3648,3.3294,3.3464,3.3508,3.3388,3.3055,3.3238,3.3301,3.3143,3.3301,3.3386,3.3386,3.3386,3.3733,3.4423,3.5417,3.6258,3.6939,3.7938,3.8459,3.8596,3.8752,3.8901,3.9049,3.9238,3.9308,3.9267,3.909,3.8775,3.838,3.819,3.7818,3.7374,3.7184,3.7234,3.7303,3.7202,3.6231,3.53,3.6017,3.5313,3.4264,3.4062,3.3656,3.3023,3.1772,3.1073,3.0745,3.0952,3.0566,3.0198,3.0352,3.0395,3.0284,2.9967,2.9898,2.977,2.9376,2.9307,2.9307,2.9307,2.9307,2.9307,2.9307,2.9307,2.9307,2.9307,2.9307,2.939,2.9598,2.9241,2.9531,3.0629,3.0444,3.0298,3.0323,3.1799,3.2974,3.3685,3.4421,3.4524,3.3997,3.517,3.5505,3.5108,3.5937,3.6211,3.5982,3.5982,3.5982,3.5982,3.5982,3.5982,3.5982,3.5982,3.6162,3.6445,3.707,3.7441,3.7725,3.045,3.0528,3.0626,3.0966,3.1034,3.1112,3.1325,3.1471,3.1796,3.247,3.262,3.3092,3.4177,3.4299,3.4565,3.5263,3.4236,3.3814,3.4424,3.4485,3.4329,3.3985,3.3985,3.3827,3.3544,3.3513,3.3481,3.3481,3.3576,3.3985,3.4662,3.5664,3.6502,3.7212,3.8088,3.8626,3.8889,3.8889,3.9049,3.9308,3.9308,3.9308,3.9308,3.9308,3.8953,3.847,3.8489,3.8065,3.7487,3.7492,3.7546,3.765,3.7667,3.6623,3.553,3.6195,3.5574,3.4601,3.4475,3.3918,3.3067,3.1875,3.128,3.1028,3.1088,3.0797,3.0498,3.0583,3.0566,3.0489,3.0129,3.0069,2.9924,2.947,2.9402,2.9376,2.9316,2.9307,2.9307,2.9307,2.9307,2.9307,2.9307,2.9307,2.9322,2.9387,2.9486,3.0042,3.1106,3.1546,3.2,3.2491,3.3141,3.3963,3.5049,3.5675,3.5675,3.5093,3.6121,3.6377,3.6001,3.6406,3.6367,3.5982,3.5982,3.5982,3.5982,3.5982,3.5982,3.5982,3.5982,3.5982,3.6123,3.6982,3.7295,3.7422,3.1063,3.115,3.1267,3.1595,3.1643,3.1672,3.173,3.2245,3.2713,3.2813,3.3425,3.3956,3.4268,3.4299,3.4473,3.4943,3.4767,3.4695,3.4818,3.4828,3.4673,3.4329,3.4329,3.4298,3.4267,3.3985,3.3827,3.3827,3.4392,3.5005,3.5695,3.6696,3.7635,3.8503,3.8652,3.893,3.9208,3.9208,3.9238,3.9308,3.9308,3.9308,3.9308,3.9308,3.906,3.8749,3.8938,3.8494,3.7843,3.7946,3.7889,3.771,3.7317,3.6785,3.6301,3.6395,3.5426,3.4213,3.3443,3.2576,3.186,3.1984,3.1487,3.1097,3.1449,3.1191,3.1011,3.1355,3.1423,3.1277,3.0909,3.084,3.0617,2.9924,2.9804,2.9693,2.9359,2.9307,2.9307,2.9307,2.9307,2.9307,2.9307,2.9307,2.9433,2.98,3.0369,3.1072,3.1878,3.2552,3.3398,3.4421,3.4571,3.5017,3.5811,3.5947,3.5947,3.5845,3.6025,3.6084,3.5982,3.6094,3.6084,3.5982,3.5982,3.5982,3.5982,3.5982,3.5982,3.5982,3.5982,3.5982,3.6123,3.6982,3.7295,3.7422,3.1267,3.1441,3.1556,3.1527,3.1527,3.1585,3.1759,3.2103,3.2553,3.3178,3.3611,3.4091,3.482,3.4749,3.4769,3.516,3.517,3.517,3.517,3.517,3.5015,3.4673,3.4673,3.4579,3.4392,3.4079,3.4079,3.4454,3.4766,3.5438,3.6472,3.7242,3.8025,3.88,3.899,3.9149,3.9308,3.9308,3.9308,3.9308,3.9308,3.9308,3.9308,3.9308,3.9078,3.8775,3.8736,3.8379,3.7926,3.8034,3.8091,3.8006,3.7592,3.7122,3.6613,3.6007,3.5239,3.4397,3.3446,3.2814,3.2412,3.2156,3.1853,3.159,3.1595,3.1475,3.1397,3.1569,3.144,3.1217,3.1046,3.0686,3.0301,2.9958,2.9718,2.9513,2.9333,2.9307,2.9307,2.9307,2.9307,2.9307,2.9307,2.9504,2.987,3.0449,3.0983,3.1872,3.3225,3.3608,3.4324,3.547,3.5504,3.5675,3.5982,3.5982,3.5982,3.5982,3.5982,3.5982,3.5982,3.5982,3.5982,3.5982,3.5982,3.5982,3.5982,3.5982,3.5982,3.5982,3.5982,3.5982,3.6094,3.6728,3.71,3.7383,3.1979,3.2037,3.2037,3.1874,3.173,3.1672,3.1874,3.2051,3.2471,3.334,3.3705,3.4215,3.5159,3.5108,3.5139,3.549,3.5521,3.5521,3.5521,3.5521,3.5356,3.5015,3.5015,3.4891,3.4641,3.4454,3.461,3.5139,3.5438,3.6115,3.7121,3.7755,3.8354,3.893,3.909,3.9238,3.9308,3.9308,3.9308,3.9308,3.9308,3.9308,3.9308,3.9308,3.9218,3.9041,3.8687,3.8465,3.8337,3.8273,3.8271,3.8238,3.7794,3.742,3.6922,3.5746,3.5172,3.4671,3.3687,3.3232,3.29,3.2377,3.2114,3.1903,3.1665,3.1603,3.1577,3.1492,3.1208,3.0986,3.0865,3.048,3.0104,2.9924,2.9718,2.9513,2.9333,2.9307,2.9307,2.9307,2.9393,2.9444,2.9444,2.9962,3.0555,3.1203,3.1821,3.2811,3.4342,3.4601,3.5099,3.5982,3.5982,3.5982,3.5982,3.5982,3.5982,3.5982,3.5982,3.5982,3.5982,3.5982,3.5982,3.5982,3.5982,3.5982,3.5982,3.5982,3.5982,3.5982,3.5982,3.5982,3.6074,3.6548,3.6934,3.7363,3.3769,3.3374,3.3102,3.3388,3.2983,3.2526,3.2315,3.2827,3.3202,3.2971,3.3996,3.4734,3.4827,3.5138,3.5479,3.5829,3.586,3.586,3.586,3.586,3.5706,3.5387,3.5356,3.5356,3.5325,3.5613,3.5767,3.5829,3.7,3.7635,3.7755,3.8414,3.893,3.9238,3.896,3.9019,3.9308,3.9308,3.9308,3.9308,3.9308,3.9308,3.9308,3.9308,3.9595,3.9907,3.9273,3.9321,3.957,3.896,3.8543,3.8174,3.7399,3.7498,3.7633,3.6107,3.5308,3.474,3.399,3.2981,3.2266,3.2578,3.2131,3.163,3.1603,3.1603,3.15,3.1123,3.1037,3.09,3.0506,3.0686,3.0703,3.001,3.0147,3.007,2.941,2.9307,2.9307,2.9307,2.9633,2.9855,2.9855,3.0854,3.162,3.1992,3.3317,3.4303,3.4811,3.5519,3.5913,3.5982,3.5982,3.5982,3.5982,3.5982,3.5982,3.5982,3.5982,3.5982,3.5982,3.5982,3.5982,3.5982,3.5982,3.5982,3.5982,3.5982,3.5982,3.5982,3.5982,3.5982,3.6074,3.6548,3.6934,3.7363,3.4011,3.3667,3.3378,3.331,3.282,3.243,3.2305,3.2535,3.2769,3.287,3.3749,3.4475,3.4754,3.5159,3.5448,3.5582,3.5582,3.5849,3.6482,3.6524,3.6452,3.633,3.633,3.6604,3.719,3.713,3.719,3.7382,3.7853,3.8223,3.8444,3.8901,3.9178,3.9297,3.9178,3.9178,3.9308,3.9308,3.9308,3.9308,3.9308,3.9308,3.9342,3.9682,3.9728,3.9616,3.9535,3.9467,3.9363,3.9299,3.8983,3.8511,3.8002,3.7645,3.7213,3.6024,3.5636,3.5509,3.5236,3.4162,3.3062,3.2771,3.25,3.2167,3.1709,3.1423,3.1183,3.1046,3.0788,3.0643,3.0737,3.0532,3.0301,3.0232,2.9916,2.9633,2.935,2.9307,2.9402,2.9641,2.9804,3.0185,3.088,3.152,3.2339,3.3379,3.4208,3.4946,3.5563,3.5845,3.5982,3.5982,3.5982,3.5982,3.5982,3.5982,3.5982,3.5982,3.5982,3.5982,3.5982,3.5982,3.5982,3.5982,3.5982,3.5982,3.5982,3.5982,3.5982,3.5982,3.5982,3.5982,3.6001,3.6201,3.6699,3.7324,3.4775,3.4435,3.4082,3.3853,3.3197,3.2716,3.2716,3.2687,3.2825,3.3308,3.4084,3.4823,3.5348,3.576,3.6064,3.6187,3.6187,3.6493,3.7162,3.7182,3.7231,3.7352,3.7352,3.7643,3.8302,3.8171,3.8242,3.8462,3.8551,3.8741,3.896,3.9178,3.9308,3.9308,3.9308,3.9308,3.9308,3.9308,3.9367,3.9455,3.9338,3.9367,3.9484,3.993,3.9969,3.9781,3.9794,3.9814,3.9766,3.9627,3.9231,3.8743,3.8418,3.7675,3.6813,3.6127,3.6011,3.6105,3.6005,3.527,3.4283,3.3416,3.3042,3.2658,3.1947,3.1467,3.1157,3.1046,3.0763,3.0626,3.0771,3.0412,3.0112,3.0207,2.983,2.9453,2.9333,2.9307,2.9453,2.9847,2.9992,3.051,3.1655,3.2294,3.3146,3.4399,3.4956,3.547,3.5982,3.5982,3.5982,3.5982,3.5982,3.5982,3.5982,3.5982,3.5982,3.5982,3.5982,3.5982,3.5982,3.5982,3.5982,3.5982,3.5982,3.5982,3.5982,3.5982,3.5982,3.5982,3.5982,3.5982,3.5982,3.5982,3.6562,3.733,3.6293,3.5817,3.5405,3.5405,3.4418,3.3607,3.3636,3.3503,3.3651,3.4327,3.5165,3.595,3.6624,3.712,3.7536,3.7878,3.7908,3.7908,3.7908,3.7856,3.7984,3.8302,3.8332,3.8302,3.8332,3.8641,3.883,3.88,3.9149,3.9308,3.9308,3.9308,3.9308,3.9308,3.9308,3.9308,3.9308,3.9308,3.9485,3.9773,3.9437,3.9496,3.9831,4.002,4.0406,4.072,4.0053,4.0432,4.1129,4.0,3.9231,3.8732,3.8407,3.7518,3.6582,3.6448,3.6405,3.6339,3.6096,3.601,3.5738,3.459,3.3762,3.3006,3.2281,3.1868,3.1492,3.1088,3.1011,3.0891,3.0498,3.0429,3.0275,2.9958,2.9898,2.9761,2.9367,2.9316,2.9462,2.9855,3.0215,3.0856,3.1994,3.3155,3.4119,3.4853,3.5572,3.5982,3.5982,3.5982,3.5982,3.5982,3.5982,3.5982,3.5982,3.5982,3.5982,3.5982,3.5982,3.5982,3.5982,3.5982,3.5982,3.5982,3.5982,3.5982,3.5982,3.5982,3.5982,3.5982,3.5982,3.5982,3.5982,3.5982,3.6562,3.7365,3.6293,3.5817,3.5461,3.5642,3.5195,3.4856,3.5043,3.515,3.5309,3.5483,3.6025,3.6475,3.6683,3.7289,3.7646,3.7566,3.7935,3.8462,3.9115,3.9802,4.0223,4.0339,3.9674,3.9615,4.031,4.0438,4.038,4.013,4.0217,4.0159,3.9943,3.9732,3.9749,3.9902,3.9503,3.9426,3.9655,3.9397,3.9485,3.9773,3.9684,3.9714,3.9865,4.0653,4.0668,4.0391,4.0978,4.1002,4.0705,4.0521,3.9695,3.8623,3.7639,3.7162,3.696,3.7018,3.7099,3.7219,3.748,3.7525,3.7146,3.549,3.4899,3.4624,3.4186,3.3594,3.3091,3.2982,3.2158,3.1452,3.1582,3.1124,3.0628,3.0299,3.0221,3.0134,3.0011,2.9844,3.0222,3.1635,3.1691,3.2252,3.3888,3.4355,3.4878,3.5606,3.5879,3.5982,3.5982,3.5982,3.5982,3.5982,3.5982,3.5982,3.5982,3.5982,3.5982,3.5982,3.5982,3.5982,3.5982,3.5982,3.5982,3.5982,3.5982,3.5982,3.5982,3.5982,3.5982,3.5982,3.5982,3.5982,3.6016,3.6268,3.6734,3.7312,3.653,3.6289,3.6153,3.6512,3.6246,3.5993,3.6164,3.6345,3.6567,3.6818,3.7339,3.7828,3.8053,3.8394,3.8574,3.8503,3.8848,3.935,4.0036,4.0641,4.1069,4.1184,4.0612,4.0571,4.1184,4.1069,4.0896,4.0694,4.0578,4.038,4.0194,4.0042,4.0042,4.0194,3.9826,3.9779,3.9925,3.9738,3.9925,4.0345,4.0229,4.0346,4.0717,4.1258,4.1231,4.0972,4.1599,4.1379,4.0815,4.0795,3.9912,3.8538,3.7151,3.6748,3.6851,3.7065,3.7162,3.7363,3.8005,3.8181,3.7947,3.6799,3.618,3.5729,3.5217,3.4651,3.4242,3.4242,3.3527,3.2899,3.2921,3.2287,3.1703,3.1442,3.1025,3.0829,3.1078,3.1049,3.1411,3.2642,3.2776,3.3315,3.4771,3.5005,3.5407,3.6132,3.6084,3.5982,3.5982,3.5982,3.5982,3.5982,3.5982,3.5982,3.5982,3.5982,3.5982,3.5982,3.5982,3.5982,3.5982,3.5982,3.5982,3.5982,3.5982,3.5982,3.5982,3.5982,3.5982,3.5982,3.5982,3.6084,3.6234,3.6417,3.6874,3.7504,3.6904,3.7007,3.7224,3.7729,3.7389,3.7068,3.7125,3.7291,3.7645,3.8207,3.8892,3.9562,4.0135,3.9984,3.9937,4.0165,4.0223,4.0392,4.0723,4.0752,4.0867,4.1184,4.1213,4.1213,4.1213,4.0896,4.0752,4.0752,4.0438,4.0293,4.0293,4.0299,4.0322,4.0352,4.034,4.0364,4.0393,4.0364,4.0725,4.1259,4.0975,4.1295,4.195,4.1844,4.1902,4.2025,4.1919,4.1646,4.1229,4.0763,3.977,3.8483,3.6945,3.6484,3.6511,3.6738,3.6838,3.7023,3.7914,3.815,3.8181,3.8181,3.7415,3.6485,3.5787,3.5388,3.5148,3.5148,3.5017,3.4796,3.4369,3.3694,3.3115,3.2921,3.2157,3.1804,3.2463,3.2648,3.2866,3.3354,3.3733,3.4248,3.5011,3.5363,3.5797,3.6417,3.62,3.6016,3.5982,3.5982,3.5982,3.5982,3.5982,3.5982,3.5982,3.5982,3.5982,3.5982,3.5982,3.5982,3.5982,3.5982,3.5982,3.5982,3.5982,3.5982,3.5982,3.5982,3.5982,3.5982,3.6016,3.6234,3.6519,3.6586,3.7049,3.7811,3.6987,3.7213,3.7542,3.804,3.8194,3.8372,3.8849,3.9117,3.9353,3.9709,3.9709,3.982,4.0165,4.0147,4.0147,4.0194,4.045,4.0723,4.1069,4.1098,4.1127,4.1213,4.1213,4.1213,4.1213,4.1127,4.1098,4.1098,4.1012,4.0971,4.0983,4.1127,4.1358,4.1605,4.1496,4.1595,4.1816,4.1553,4.1685,4.2067,4.1977,4.1816,4.1691,4.2427,4.2197,4.1579,4.2309,4.2029,4.1096,3.9713,3.8813,3.813,3.7419,3.7002,3.6815,3.6989,3.7097,3.725,3.7553,3.7912,3.8181,3.8181,3.8014,3.7803,3.7636,3.728,3.7001,3.7001,3.604,3.5175,3.5087,3.4352,3.3624,3.2998,3.2928,3.3154,3.3653,3.3539,3.395,3.5511,3.5297,3.5462,3.6529,3.6708,3.6573,3.6142,3.6292,3.6268,3.6016,3.5982,3.5982,3.5982,3.5982,3.5982,3.5982,3.5982,3.5982,3.5982,3.5982,3.5982,3.5982,3.5982,3.5982,3.5982,3.5982,3.5982,3.5982,3.5982,3.5982,3.6016,3.6302,3.6451,3.6586,3.7136,3.7476,3.777,3.7688,3.795,3.8307,3.9026,3.9256,3.9471,3.9789,4.0053,4.0287,4.0421,4.0462,4.052,4.0641,4.0525,4.045,4.045,4.0752,4.1012,4.1184,4.1213,4.1213,4.1213,4.1213,4.1213,4.1213,4.1213,4.1213,4.1213,4.1213,4.1213,4.1184,4.1328,4.1448,4.1605,4.1547,4.1608,4.1767,4.159,4.1696,4.1985,4.2237,4.2165,4.2045,4.2891,4.2661,4.1938,4.2587,4.2008,4.0738,3.9299,3.8479,3.7988,3.7356,3.7032,3.6939,3.7138,3.7266,3.7378,3.7741,3.8005,3.8181,3.8181,3.8181,3.8181,3.8181,3.8048,3.7904,3.7904,3.7059,3.6274,3.6079,3.5324,3.4608,3.416,3.3975,3.4133,3.4931,3.4953,3.5313,3.6486,3.6529,3.6688,3.728,3.718,3.7011,3.6785,3.6596,3.6417,3.6234,3.6084,3.5982,3.5982,3.5982,3.5982,3.5982,3.5982,3.5982,3.5982,3.5982,3.5982,3.5982,3.5982,3.5982,3.5982,3.5982,3.5982,3.5982,3.5982,3.6074,3.6268,3.6417,3.6722,3.7069,3.7448,3.7859,3.8281,3.8354,3.864,3.8977,3.9842,4.0077,4.0147,4.0194,4.0479,4.0723,4.0792,4.0983,4.1127,4.1184,4.0954,4.0781,4.0781,4.104,4.1213,4.1213,4.1213,4.1213,4.1213,4.1213,4.1213,4.1213,4.1213,4.1213,4.1213,4.1213,4.1213,4.1213,4.128,4.1345,4.1357,4.1442,4.1478,4.1478,4.1478,4.161,4.1836,4.2273,4.2484,4.2535,4.3241,4.3084,4.2528,4.2794,4.19,4.0434,3.931,3.8575,3.799,3.7409,3.7166,3.7151,3.7393,3.754,3.7707,3.8124,3.8285,3.8281,3.8281,3.8248,3.8181,3.8181,3.8181,3.8194,3.8088,3.7705,3.7239,3.6773,3.6086,3.5518,3.5428,3.4922,3.4949,3.6058,3.63,3.657,3.7059,3.7458,3.7659,3.7515,3.7391,3.7314,3.7415,3.69,3.6553,3.6417,3.6142,3.5982,3.5982,3.5982,3.5982,3.5982,3.5982,3.5982,3.5982,3.5982,3.5982,3.5982,3.5982,3.5982,3.5982,3.5982,3.5982,3.5982,3.605,3.6234,3.6509,3.6654,3.7069,3.7626,3.7693,3.813,3.8778,3.7966,3.8389,3.881,3.9115,3.9546,3.9937,4.0176,4.0479,4.0809,4.1098,4.0925,4.0867,4.1156,4.1156,4.1127,4.1127,4.1184,4.1213,4.1213,4.1213,4.1213,4.1213,4.1213,4.1213,4.1213,4.1213,4.1213,4.1213,4.1213,4.1213,4.1225,4.1682,4.1887,4.1911,4.2368,4.2573,4.2573,4.2573,4.2602,4.2632,4.2704,4.2741,4.2801,4.3301,4.309,4.2547,4.3075,4.2109,4.049,3.9726,3.888,3.8141,3.8438,3.8253,3.7963,3.813,3.8455,3.8712,3.8507,3.8541,3.8615,3.8615,3.8404,3.8181,3.8181,3.8181,3.8067,3.7674,3.7218,3.6753,3.6287,3.5769,3.5428,3.5397,3.5325,3.5593,3.6555,3.6731,3.706,3.7918,3.8073,3.787,3.7223,3.7703,3.7659,3.6722,3.6866,3.6742,3.6108,3.6016,3.5982,3.5982,3.5982,3.5982,3.5982,3.5982,3.5982,3.5982,3.5982,3.5982,3.5982,3.5982,3.5982,3.5982,3.5982,3.5982,3.6016,3.6292,3.6451,3.6553,3.7203,3.7515,3.7649,3.8004,3.8189,3.8398,3.8772,3.9292,3.976,4.0156,4.0412,4.0607,4.074,4.0884,4.104,4.1184,4.1069,4.104,4.1184,4.1213,4.1213,4.1213,4.1213,4.1213,4.1213,4.1213,4.1213,4.1213,4.1213,4.1213,4.1213,4.1213,4.1213,4.1213,4.1213,4.1213,4.1225,4.1454,4.1562,4.1562,4.1803,4.1911,4.1911,4.1911,4.1911,4.1935,4.2224,4.2176,4.2031,4.3096,4.2912,4.2153,4.2375,4.1496,4.0141,3.9659,3.8872,3.815,3.8326,3.8435,3.8515,3.8645,3.8702,3.8701,3.8631,3.8534,3.8437,3.8437,3.8304,3.8181,3.8181,3.8181,3.8129,3.7922,3.7301,3.6742,3.6535,3.5883,3.5387,3.5387,3.5387,3.5656,3.6328,3.6422,3.6763,3.7695,3.8026,3.8081,3.7737,3.7803,3.7659,3.7136,3.69,3.663,3.6302,3.6108,3.6084,3.6268,3.6268,3.6268,3.6268,3.6268,3.621,3.5982,3.5982,3.5982,3.5982,3.5982,3.5982,3.5982,3.5982,3.5982,3.6016,3.636,3.662,3.69,3.7415,3.7726,3.7971,3.8148,3.8181,3.8316]},{"header":{"parameterUnit":"m.s-1","parameterCategory":1,"la1":30.6,"la2":28.766,"lo1":-90.7593,"lo2":-88.6598,"dy":0.0162,"dx":0.0183,"nx":116,"ny":114,"refTime":"2023-05-21T06:00:00:Z","depth":0,"parameterNumber":3,"parameterNumberName":"V-component_of_WINDS"},"data":[0.0,0.0,0.0,0.0,0.0,0.0,0.0,0.0,0.0,0.0,0.0,0.0,0.0,0.0,0.0,0.0,0.0,0.0,0.0,0.0,0.0,0.0,0.0,0.0,0.0,0.0,0.0,0.0,0.0,0.0,0.0,0.0,0.0,0.0,0.0,0.0,0.0,0.0,0.0,0.0,0.0,0.0,0.0,0.0,0.0,0.0,0.0,0.0,0.0,0.0,0.0,0.0,0.0,0.0,0.0,0.0,0.0,0.0,0.0,0.0,0.0,0.0,0.0,0.0,0.0,0.0,0.0,0.0,0.0,0.0,0.0,0.0,0.0,0.0,0.0,0.0,0.0,0.0,0.0,0.0,0.0,0.0,0.0,0.0,0.0,0.0,0.0,0.0,0.0,0.0,0.0,0.0,0.0,0.0,0.0,0.0,0.0,0.0,0.0,0.0,0.0,0.0,0.0,0.0,0.0,0.0,0.0,0.0,0.0,0.0,0.0,0.0,0.0,0.0,0.0,0.0,0.0,0.0,0.0,0.0,0.0,0.0,0.0,0.0,0.0,0.0,0.0,0.0,0.0,0.0,0.0,0.0,0.0,0.0,0.0,0.0,0.0,0.0,0.0,0.0,0.0,0.0,0.0,0.0,0.0,0.0,0.0,0.0,0.0,0.0,0.0,0.0,0.0,0.0,0.0,0.0,0.0,0.0,0.0,0.0,0.0,0.0,0.0,0.0,0.0,0.0,0.0,0.0,0.0,0.0,0.0,0.0,0.0,0.0,0.0,0.0,0.0,0.0,0.0,0.0,0.0,0.0,0.0,0.0,0.0,0.0,0.0,0.0,0.0,0.0,0.0,0.0,0.0,0.0,0.0,0.0,0.0,0.0,0.0,0.0,0.0,0.0,0.0,0.0,0.0,0.0,0.0,0.0,0.0,0.0,0.0,0.0,0.0,0.0,0.0,0.0,0.0,0.0,0.0,0.0,0.0,0.0,0.0,0.0,0.0,0.0,0.0,0.0,0.0,0.0,0.0,0.0,0.0,0.0,0.0,0.0,0.0,0.0,0.0,0.0,0.0,0.0,0.0,0.0,0.0,0.0,0.0,0.0,0.0,0.0,0.0,0.0,0.0,0.0,0.0,0.0,0.0,0.0,0.0,0.0,0.0,0.0,0.0,0.0,0.0,0.0,0.0,0.0,0.0,0.0,0.0,0.0,0.0,0.0,0.0,0.0,0.0,0.0,0.0,0.0,0.0,0.0,0.0,0.0,0.0,0.0,0.0,0.0,0.0,0.0,0.0,0.0,0.0,0.0,0.0,0.0,0.0,0.0,0.0,0.0,0.0,0.0,0.0,0.0,0.0,0.0,0.0,0.0,0.0,0.0,0.0,0.0,0.0,0.0,0.0,0.0,0.0,0.0,0.0,0.0,0.0,0.0,0.0,0.0,0.0,0.0,0.0,0.0,0.0,0.0,0.0,0.0,0.0,0.0,0.0,0.0,0.0,0.0,0.0,0.0,0.0,0.0,0.0,0.0,0.0,0.0,0.0,0.0,0.0,0.0,0.0,0.0,0.0,0.0,0.0,0.0,0.0,0.0,0.0,0.0,0.0,0.0,0.0,0.0,0.0,0.0,0.0,0.0,0.0,0.0,0.0,0.0,0.0,0.0,0.0,0.0,0.0,0.0,0.0,0.0,0.0,0.0,0.0,0.0,0.0,0.0,0.0,0.0,0.0,0.0,0.0,0.0,0.0,0.0,0.0,0.0,0.0,0.0,0.0,0.0,0.0,0.0,0.0,0.0,0.0,0.0,0.0,0.0,0.0,0.0,0.0,0.0,0.0,0.0,0.0,0.0,0.0,0.0,0.0,0.0,0.0,0.0,0.0,0.0,0.0,0.0,0.0,0.0,0.0,0.0,0.0,0.0,0.0,0.0,0.0,0.0,0.0,0.0,0.0,0.0,0.0,0.0,0.0,0.0,0.0,0.0,0.0,0.0,0.0,0.0,0.0,0.0,0.0,0.0,0.0,0.0,0.0,0.0,0.0,0.0,0.0,0.0,0.0,0.0,0.0,0.0,0.0,0.0,0.0,0.0,0.0,0.0,0.0,0.0,0.0,0.0,0.0,0.0,0.0,0.0,0.0,0.0,0.0,0.0,0.0,0.0,0.0,0.0,0.0,0.0,0.0,0.0,0.0,0.0,0.0,0.0,0.0,0.0,0.0,0.0,0.0,0.0,0.0,0.0,0.0,0.0,0.0,0.0,0.0,0.0,0.0,0.0,0.0,0.0,0.0,0.0,0.0,0.0,0.0,0.0,0.0,0.0,0.0,0.0,0.0,0.0,0.0,0.0,0.0,0.0,0.0,0.0,0.0,0.0,0.0,0.0,0.0,0.0,0.0,0.0,0.0,0.0,0.0,0.0,0.0,0.0,0.0,0.0,0.0,0.0,0.0,0.0,0.0,0.0,0.0,0.0,0.0,0.0,0.0,0.0,0.0,0.0,0.0,0.0,0.0,0.0,0.0,0.0,0.0,0.0,0.0,0.0,0.0,0.0,0.0,0.0,0.0,0.0,0.0,0.0,0.0,0.0,0.0,0.0,0.0,0.0,0.0,0.0,0.0,0.0,0.0,0.0,0.0,0.0,0.0,0.0,0.0,0.0,0.0,0.0,0.0,0.0,0.0,0.0,0.0,0.0,0.0,0.0,0.0,0.0,0.0,0.0,0.0,0.0,0.0,0.0,0.0,0.0,0.0,0.0,0.0,0.0,0.0,0.0,0.0,0.0,0.0,0.0,0.0,0.0,0.0,0.0,0.0,0.0,0.0,0.0,0.0,0.0,0.0,0.0,0.0,0.0,0.0,0.0,0.0,0.0,0.0,0.0,0.0,0.0,0.0,0.0,0.0,0.0,0.0,0.0,0.0,0.0,0.0,0.0,0.0,0.0,0.0,0.0,0.0,0.0,0.0,0.0,0.0,0.0,0.0,0.0,0.0,0.0,0.0,0.0,0.0,0.0,0.0,0.0,0.0,0.0,0.0,0.0,0.0,0.0,0.0,0.0,0.0,0.0,0.0,0.0,0.0,0.0,0.0,0.0,0.0,0.0,0.0,0.0,0.0,0.0,0.0,0.0,0.0,0.0,0.0,0.0,0.0,0.0,0.0,0.0,0.0,0.0,0.0,0.0,0.0,0.0,0.0,0.0,0.0,0.0,0.0,0.0,0.0,0.0,0.0,0.0,0.0,0.0,0.0,0.0,0.0,0.0,0.0,0.0,0.0,0.0,0.0,0.0,0.0,0.0,0.0,0.0,0.0,0.0,0.0,0.0,0.0,0.0,0.0,0.0,0.0,0.0,0.0,0.0,0.0,0.0,0.0,0.0,0.0,0.0,0.0,0.0,0.0,0.0,0.0,0.0,0.0,0.0,0.0,0.0,0.0,0.0,0.0,0.0,0.0,0.0,0.0,0.0,0.0,0.0,0.0,0.0,0.0,0.0,0.0,0.0,0.0,0.0,0.0,0.0,0.0,0.0,0.0,0.0,0.0,0.0,0.0,0.0,0.0,0.0,0.0,0.0,0.0,0.0,0.0,0.0,0.0,0.0,0.0,0.0,0.0,0.0,0.0,0.0,0.0,0.0,0.0,0.0,0.0,0.0,0.0,0.0,0.0,0.0,0.0,0.0,0.0,0.0,0.0,0.0,0.0,0.0,0.0,0.0,0.0,0.0,0.0,0.0,0.0,0.0,0.0,0.0,0.0,0.0,0.0,0.0,0.0,0.0,0.0,0.0,0.0,0.0,0.0,0.0,0.0,0.0,0.0,0.0,0.0,0.0,0.0,0.0,0.0,0.0,0.0,0.0,0.0,0.0,0.0,0.0,0.0,0.0,0.0,0.0,0.0,0.0,0.0,0.0,0.0,0.0,0.0,0.0,0.0,0.0,0.0,0.0,0.0,0.0,0.0,0.0,0.0,0.0,0.0,0.0,0.0,0.0,0.0,0.0,0.0,0.0,0.0,0.0,0.0,0.0,0.0,0.0,0.0,0.0,0.0,0.0,0.0,0.0,0.0,0.0,0.0,0.0,0.0,0.0,0.0,0.0,0.0,0.0,0.0,0.0,0.0,0.0,0.0,0.0,0.0,0.0,0.0,0.0,0.0,0.0,0.0,0.0,0.0,0.0,0.0,0.0,0.0,0.0,0.0,0.0,0.0,0.0,0.0,0.0,0.0,0.0,0.0,0.0,0.0,0.0,0.0,0.0,0.0,0.0,0.0,0.0,0.0,0.0,0.0,0.0,0.0,0.0,0.0,0.0,0.0,0.0,0.0,0.0,0.0,0.0,0.0,0.0,0.0,0.0,0.0,0.0,0.0,0.0,0.0,0.0,0.0,0.0,0.0,0.0,0.0,0.0,0.0,0.0,0.0,0.0,0.0,0.0,0.0,0.0,0.0,0.0,0.0,0.0,0.0,0.0,0.0,0.0,0.0,0.0,0.0,0.0,0.0,0.0,0.0,0.0,0.0,0.0,0.0,0.0,0.0,0.0,0.0,0.0,0.0,0.0,0.0,0.0,0.0,0.0,0.0,0.0,0.0,0.0,0.0,0.0,0.0,0.0,0.0,0.0,0.0,0.0,0.0,0.0,0.0,0.0,0.0,0.0,0.0,0.0,0.0,0.0,0.0,0.0,0.0,0.0,0.0,0.0,0.0,0.0,0.0,0.0,0.0,0.0,0.0,0.0,0.0,0.0,0.0,0.0,0.0,0.0,0.0,0.0,0.0,0.0,0.0,0.0,0.0,0.0,0.0,0.0,0.0,0.0,0.0,0.0,0.0,0.0,0.0,0.0,0.0,0.0,0.0,0.0,0.0,0.0,0.0,0.0,0.0,0.0,0.0,0.0,0.0,0.0,0.0,0.0,0.0,0.0,0.0,0.0,0.0,0.0,0.0,0.0,0.0,0.0,0.0,0.0,0.0,0.0,0.0,0.0,0.0,0.0,0.0,0.0,0.0,0.0,0.0,0.0,0.0,0.0,0.0,0.0,0.0,0.0,0.0,0.0,0.0,0.0,0.0,0.0,0.0,0.0,0.0,0.0,0.0,0.0,0.0,0.0,0.0,0.0,0.0,0.0,0.0,0.0,0.0,0.0,0.0,0.0,0.0,0.0,0.0,0.0,0.0,0.0,0.0,0.0,0.0,0.0,0.0,0.0,0.0,0.0,0.0,0.0,0.0,0.0,0.0,0.0,0.0,0.0,0.0,0.0,0.0,0.0,0.0,0.0,0.0,0.0,0.0,0.0,0.0,0.0,0.0,0.0,0.0,0.0,0.0,0.0,0.0,0.0,0.0,0.0,0.0,0.0,0.0,0.0,0.0,0.0,0.0,0.0,0.0,0.0,0.0,0.0,0.0,0.0,0.0,0.0,0.0,0.0,0.0,0.0,0.0,0.0,0.0,0.0,0.0,0.0,0.0,0.0,0.0,0.0,0.0,0.0,0.0,0.0,0.0,0.0,0.0,0.0,0.0,0.0,0.0,0.0,0.0,0.0,0.0,0.0,0.0,0.0,0.0,0.0,0.0,0.0,0.0,0.0,0.0,0.0,0.0,0.0,0.0,0.0,0.0,0.0,0.0,0.0,0.0,0.0,0.0,0.0,0.0,0.0,0.0,0.0,0.0,0.0,0.0,0.0,0.0,0.0,0.0,0.0,0.0,0.0,0.0,0.0,0.0,0.0,0.0,0.0,0.0,0.0,0.0,0.0,0.0,0.0,0.0,0.0,0.0,0.0,0.0,0.0,0.0,0.0,0.0,0.0,0.0,0.0,0.0,0.0,0.0,0.0,0.0,0.0,0.0,0.0,0.0,0.0,0.0,0.0,0.0,0.0,0.0,0.0,0.0,0.0,0.0,0.0,0.0,0.0,0.0,0.0,0.0,0.0,0.0,0.0,0.0,0.0,0.0,0.0,0.0,0.0,0.0,0.0,0.0,0.0,0.0,0.0,0.0,0.0,0.0,0.0,0.0,0.0,0.0,0.0,0.0,0.0,0.0,0.0,0.0,0.0,0.0,0.0,0.0,0.0,0.0,0.0,0.0,0.0,0.0,0.0,0.0,0.0,0.0,0.0,0.0,0.0,4.603,4.6032,0.0,0.0,0.0,0.0,0.0,0.0,0.0,0.0,0.0,0.0,0.0,0.0,0.0,0.0,0.0,0.0,0.0,0.0,0.0,0.0,0.0,0.0,0.0,0.0,0.0,0.0,0.0,0.0,0.0,0.0,0.0,0.0,0.0,0.0,0.0,0.0,0.0,0.0,4.16,4.1294,4.0954,4.0566,4.0468,4.0633,0.0,0.0,0.0,0.0,0.0,0.0,0.0,0.0,0.0,0.0,0.0,0.0,0.0,0.0,0.0,0.0,0.0,0.0,0.0,0.0,0.0,0.0,0.0,0.0,0.0,0.0,0.0,0.0,0.0,0.0,0.0,0.0,0.0,0.0,0.0,0.0,0.0,0.0,0.0,0.0,0.0,0.0,0.0,0.0,0.0,0.0,0.0,0.0,0.0,0.0,0.0,0.0,0.0,0.0,0.0,0.0,0.0,0.0,0.0,0.0,0.0,0.0,0.0,0.0,0.0,0.0,0.0,0.0,0.0,0.0,4.6132,4.6102,0.0,0.0,0.0,0.0,0.0,0.0,0.0,0.0,0.0,0.0,0.0,0.0,0.0,0.0,0.0,0.0,0.0,0.0,0.0,0.0,0.0,0.0,0.0,3.7508,3.7529,3.7653,3.7604,3.7898,0.0,0.0,0.0,0.0,0.0,0.0,0.0,4.2087,4.2399,4.2348,4.1668,4.1128,4.0758,4.0823,4.0995,4.1266,4.1117,0.0,0.0,0.0,0.0,0.0,0.0,0.0,0.0,0.0,0.0,0.0,0.0,0.0,0.0,0.0,0.0,0.0,0.0,0.0,0.0,0.0,0.0,0.0,0.0,0.0,0.0,0.0,0.0,0.0,0.0,0.0,0.0,0.0,0.0,0.0,0.0,0.0,0.0,0.0,0.0,0.0,0.0,0.0,0.0,0.0,0.0,0.0,0.0,0.0,0.0,0.0,0.0,0.0,0.0,0.0,0.0,0.0,0.0,0.0,0.0,0.0,0.0,0.0,4.6214,4.6212,4.6212,4.6432,4.6532,4.653,4.6627,4.6459,4.6139,4.6251,0.0,0.0,0.0,0.0,0.0,0.0,0.0,0.0,0.0,0.0,0.0,0.0,0.0,0.0,0.0,0.0,0.0,0.0,0.0,0.0,0.0,3.8862,3.8842,3.9484,3.9165,3.9247,4.0001,0.0,0.0,0.0,0.0,0.0,4.1668,4.2418,4.2738,4.256,4.2054,4.1777,4.1712,4.1553,4.1504,4.1498,4.0758,4.059,4.0837,0.0,0.0,0.0,0.0,0.0,0.0,0.0,0.0,0.0,0.0,0.0,0.0,0.0,0.0,0.0,0.0,0.0,0.0,0.0,0.0,0.0,0.0,0.0,0.0,0.0,0.0,0.0,0.0,0.0,0.0,0.0,0.0,0.0,0.0,0.0,0.0,0.0,0.0,0.0,0.0,0.0,4.5903,4.5972,0.0,0.0,0.0,0.0,0.0,0.0,0.0,0.0,0.0,0.0,0.0,0.0,0.0,4.6205,4.6195,4.6258,4.6282,4.6286,4.6288,4.6289,4.6308,4.7089,4.7421,4.7478,4.8219,0.0,4.6246,4.6873,0.0,0.0,0.0,0.0,0.0,0.0,0.0,0.0,0.0,0.0,0.0,0.0,0.0,0.0,0.0,0.0,0.0,0.0,0.0,0.0,0.0,3.9782,3.9558,3.9469,3.9119,3.9309,4.0237,4.0328,0.0,0.0,0.0,4.2338,4.2375,4.2729,4.27,4.231,4.1998,4.1729,4.1496,4.1431,4.1386,4.1363,4.0859,4.0865,4.1243,4.1186,0.0,0.0,0.0,0.0,0.0,0.0,0.0,0.0,0.0,0.0,0.0,0.0,0.0,0.0,0.0,0.0,0.0,0.0,0.0,0.0,0.0,0.0,0.0,0.0,0.0,0.0,0.0,0.0,0.0,0.0,0.0,0.0,0.0,0.0,0.0,0.0,0.0,0.0,0.0,4.5934,4.5978,4.5997,4.6024,4.6048,0.0,0.0,0.0,0.0,0.0,0.0,0.0,0.0,0.0,4.6256,4.6259,4.6266,4.6269,4.6777,4.6777,4.6308,4.6796,4.6777,4.6328,4.7207,4.7324,4.6953,4.83,4.8161,4.7055,4.7815,4.7941,4.7696,0.0,0.0,0.0,0.0,4.7964,4.7975,0.0,0.0,0.0,0.0,0.0,0.0,0.0,0.0,0.0,0.0,0.0,0.0,4.0969,4.0659,4.0314,3.9946,3.9592,3.9825,4.0821,4.0922,4.1566,0.0,4.3004,4.3013,4.3041,4.2892,4.2593,4.2145,4.192,4.1637,4.13,4.1266,4.1232,4.1197,4.1041,4.1198,4.1549,4.1482,4.1598,4.1838,0.0,0.0,0.0,0.0,0.0,0.0,0.0,0.0,0.0,0.0,0.0,0.0,0.0,0.0,0.0,0.0,0.0,0.0,0.0,0.0,0.0,0.0,0.0,0.0,0.0,0.0,0.0,0.0,0.0,0.0,0.0,0.0,0.0,0.0,0.0,0.0,0.0,4.6008,4.6034,4.602,4.6078,4.6088,0.0,0.0,0.0,0.0,0.0,0.0,4.6222,4.6225,4.6359,4.662,4.6621,4.6737,4.6938,4.7593,4.7614,4.6965,4.7614,4.7597,4.6992,4.7871,4.791,4.7383,4.8887,4.9179,4.861,4.8984,4.9001,4.8842,4.9028,4.8955,4.8736,4.888,4.8896,4.8878,0.0,0.0,0.0,0.0,0.0,0.0,0.0,0.0,0.0,0.0,0.0,4.2564,4.2493,4.1693,4.1415,4.2086,4.1602,4.1619,4.2429,4.2599,4.2856,4.3258,4.3276,4.3339,4.348,4.291,4.251,4.2287,4.1963,4.1725,4.1582,4.1448,4.1318,4.1209,4.1197,4.1283,4.1392,4.1146,4.1261,4.1637,4.1827,0.0,0.0,0.0,0.0,0.0,0.0,0.0,0.0,0.0,0.0,0.0,0.0,0.0,0.0,0.0,0.0,0.0,0.0,0.0,0.0,0.0,0.0,0.0,0.0,0.0,0.0,0.0,0.0,0.0,0.0,0.0,0.0,0.0,0.0,0.0,0.0,0.0,0.0,4.6089,4.6093,0.0,0.0,0.0,0.0,4.62,4.6261,4.6283,4.6291,4.6286,4.668,4.7518,4.7538,4.7906,4.8674,4.8784,4.8805,4.8762,4.8805,4.8808,4.8808,4.9668,5.0058,5.0058,5.0898,5.1247,5.1144,5.0367,4.9583,4.8961,4.9661,4.9473,4.8886,4.9586,4.9824,4.9943,0.0,0.0,0.0,0.0,0.0,0.0,0.0,0.0,4.2714,4.2849,4.2831,4.2816,4.2805,4.2271,4.181,4.1548,4.122,4.1186,4.1612,4.1953,4.2496,4.3267,4.3542,4.3667,4.3629,4.3004,4.2682,4.2759,4.2376,4.22,4.2238,4.2117,4.2057,4.2096,4.1792,4.1683,4.1683,4.1238,4.1175,4.1363,4.1424,4.1792,0.0,0.0,0.0,0.0,0.0,0.0,0.0,0.0,0.0,0.0,0.0,0.0,0.0,0.0,0.0,0.0,0.0,0.0,0.0,0.0,0.0,0.0,0.0,0.0,0.0,0.0,0.0,0.0,0.0,0.0,0.0,0.0,0.0,0.0,0.0,0.0,0.0,4.6096,4.6147,0.0,4.6138,4.6162,4.6203,4.6198,4.6254,4.6292,4.6299,4.6306,4.6699,4.7576,4.7596,4.8004,4.8857,4.9449,4.9451,4.8903,4.947,4.9433,4.8926,4.9766,4.9844,4.9433,5.081,5.1075,5.0582,5.0786,5.0721,5.0534,5.0757,5.0628,5.0376,5.0641,5.0706,5.0712,0.0,0.0,0.0,0.0,0.0,0.0,0.0,0.0,4.3278,4.3305,4.3022,4.2825,4.2805,4.2522,4.2147,4.168,4.1584,4.1636,4.186,4.2187,4.2741,4.3607,4.3876,4.3907,4.3701,4.3222,4.3004,4.3069,4.2769,4.2652,4.2699,4.2555,4.2544,4.2571,4.22,4.1984,4.186,4.1459,4.1244,4.1192,4.1243,4.1651,4.2183,0.0,0.0,0.0,0.0,0.0,0.0,0.0,0.0,0.0,0.0,0.0,0.0,0.0,0.0,0.0,0.0,0.0,0.0,0.0,0.0,0.0,0.0,0.0,0.0,0.0,0.0,0.0,0.0,0.0,0.0,0.0,0.0,0.0,0.0,4.6128,4.6128,4.6128,4.6166,4.6181,4.615,4.6172,4.6213,4.6232,4.6554,4.6745,4.6731,4.703,4.7578,4.8455,4.8475,4.8884,4.9739,5.0329,5.0311,4.9744,5.0331,5.0293,4.9764,5.0309,5.0247,4.977,5.0882,5.1045,5.0533,5.1052,5.1289,5.1337,5.1288,5.1239,5.1206,5.1208,5.1163,5.1092,0.0,0.0,0.0,0.0,0.0,0.0,0.0,4.3403,4.3341,4.3141,4.2881,4.2673,4.2629,4.2494,4.2478,4.2692,4.2892,4.3124,4.3388,4.3463,4.3759,4.4289,4.4243,4.4042,4.372,4.3563,4.3401,4.3205,4.3078,4.2985,4.2929,4.2779,4.2681,4.2609,4.2389,4.2156,4.1881,4.1686,4.1453,4.1232,4.134,4.1598,4.1959,0.0,0.0,0.0,0.0,0.0,0.0,0.0,0.0,0.0,0.0,0.0,0.0,0.0,0.0,0.0,0.0,0.0,0.0,0.0,0.0,0.0,0.0,0.0,0.0,0.0,0.0,0.0,0.0,0.0,0.0,0.0,0.0,0.0,4.61,4.616,4.6209,4.6209,4.6206,4.6204,4.6242,4.6243,4.6276,4.6361,4.7163,4.7643,4.7649,4.8437,4.9296,5.0174,5.0194,5.0583,5.1399,5.1404,5.1405,5.1405,5.1406,5.1403,5.1408,5.1398,5.1361,5.1295,5.1297,5.1291,5.1286,5.1239,5.1206,5.1206,5.1206,5.1206,5.1198,5.12,5.1159,5.1082,0.0,0.0,0.0,0.0,0.0,0.0,0.0,4.3471,4.3454,4.3393,4.3059,4.2881,4.2955,4.2767,4.2682,4.2835,4.3022,4.3223,4.3388,4.3695,4.4087,4.4568,4.4291,4.4083,4.3991,4.3722,4.3556,4.3488,4.3462,4.341,4.333,4.3059,4.2902,4.2873,4.2363,4.2114,4.204,4.1736,4.156,4.1475,4.1329,4.1552,4.198,0.0,0.0,0.0,0.0,0.0,0.0,0.0,0.0,0.0,0.0,0.0,0.0,0.0,0.0,0.0,0.0,0.0,0.0,0.0,0.0,0.0,0.0,0.0,0.0,0.0,0.0,0.0,0.0,0.0,0.0,0.0,4.6065,4.6105,4.6104,4.6152,4.6193,4.6208,4.6194,4.6458,4.7078,4.7138,4.7405,4.8056,4.8337,4.8466,4.8462,4.8701,4.9232,5.0095,5.0134,5.0544,5.1385,5.1398,5.1392,5.1392,5.1358,5.133,5.133,5.1326,5.1315,5.1294,5.1253,5.1222,5.1236,5.1214,5.1206,5.1206,5.1206,5.1175,5.1132,5.1124,5.1048,5.0948,0.0,0.0,0.0,0.0,0.0,0.0,0.0,4.3506,4.348,4.3393,4.3105,4.2929,4.3021,4.2805,4.2797,4.3114,4.3259,4.3478,4.3839,4.4117,4.4341,4.4524,4.4251,4.4094,4.4056,4.3836,4.3672,4.3607,4.3573,4.3453,4.325,4.305,4.291,4.2806,4.2381,4.2145,4.2082,4.1801,4.1615,4.1515,4.1408,4.1591,4.1952,4.217,4.2649,4.3248,4.3604,4.3923,4.4225,4.4446,0.0,0.0,0.0,0.0,0.0,0.0,0.0,0.0,0.0,0.0,0.0,0.0,0.0,0.0,0.0,0.0,0.0,0.0,0.0,0.0,0.0,0.0,0.0,0.0,4.6532,4.6729,4.7092,4.688,4.6857,4.7248,4.7289,4.7487,4.8004,4.8045,4.8253,4.8769,4.9147,4.9337,4.9338,4.9693,5.0125,5.0636,5.0963,5.1389,5.1897,5.2268,5.245,5.2449,5.2407,5.2373,5.235,5.2358,5.2338,5.2293,5.2254,5.2244,5.2241,5.2246,5.2251,5.2173,0.0,0.0,0.0,0.0,5.102,5.0948,0.0,0.0,0.0,0.0,0.0,0.0,0.0,4.3506,4.3437,4.3233,4.3031,4.291,4.29,4.2718,4.2834,4.3383,4.3479,4.3771,4.4397,4.4463,4.4407,4.4207,4.4071,4.396,4.3884,4.3838,4.3724,4.3519,4.347,4.325,4.2873,4.2825,4.27,4.254,4.2318,4.2145,4.203,4.1845,4.1615,4.1414,4.1515,4.1626,4.1784,4.2312,4.2716,4.3078,4.3825,4.424,4.4456,4.4541,0.0,0.0,0.0,0.0,0.0,0.0,0.0,0.0,0.0,0.0,0.0,0.0,0.0,0.0,0.0,0.0,0.0,0.0,0.0,0.0,0.0,0.0,0.0,0.0,4.7359,4.7731,4.8602,4.8105,4.7949,4.8705,4.8806,4.8845,4.8923,4.8943,4.9016,4.9202,4.994,5.0425,5.0501,5.1251,0.0,0.0,0.0,5.2749,5.273,5.3499,5.3889,5.3889,5.3871,5.3842,5.3804,5.3796,5.3758,5.3717,5.3695,5.3692,5.3692,5.3692,5.3692,5.3549,5.2004,5.1383,5.137,5.1375,5.134,5.1272,0.0,0.0,0.0,0.0,0.0,0.0,0.0,4.3506,4.3437,4.3233,4.3031,4.2881,4.2832,4.2738,4.2759,4.2995,4.3408,4.3769,4.4,4.3934,4.3772,4.3575,4.3493,4.3363,4.3196,4.3295,4.3241,4.3041,4.3022,4.292,4.2731,4.2414,4.2238,4.2176,4.187,4.1725,4.1692,4.1549,4.1448,4.1392,4.1318,4.1289,4.1368,4.1788,4.2107,4.2335,4.2645,4.3078,4.3502,4.3799,4.4064,4.4301,4.4531,4.4777,0.0,0.0,0.0,0.0,0.0,0.0,0.0,0.0,0.0,0.0,0.0,0.0,0.0,0.0,0.0,0.0,0.0,0.0,0.0,4.8129,4.8174,4.8497,4.9361,4.9346,4.914,4.8832,4.8806,4.904,4.9703,4.9761,5.0355,5.1762,5.2021,5.2407,5.3056,5.3235,5.3348,5.3333,5.3481,5.356,5.3576,5.3747,5.3821,5.3818,5.3758,0.0,5.3808,5.3741,5.3735,5.3783,5.3723,5.3692,5.3692,5.3692,5.3696,5.367,5.333,5.3134,5.3038,5.3092,5.3066,5.303,0.0,0.0,0.0,0.0,0.0,0.0,0.0,4.3506,4.3454,4.3323,4.3142,4.2994,4.2812,4.2796,4.2844,4.2948,4.3407,4.3693,4.3693,4.3569,4.3433,4.3303,4.3205,4.3124,4.3096,4.3068,4.2957,4.2747,4.2691,4.2506,4.2251,4.2075,4.1945,4.1838,4.1681,4.156,4.1493,4.1437,4.1335,4.125,4.1209,4.114,4.1123,4.1719,4.2096,4.2346,4.2721,4.3142,4.3545,4.3807,4.4003,4.4203,4.4467,4.4642,4.4795,0.0,0.0,0.0,0.0,0.0,0.0,0.0,0.0,0.0,0.0,0.0,0.0,0.0,0.0,4.7653,4.7649,0.0,4.8422,4.8844,4.8952,4.9444,5.0724,5.0952,5.0726,4.9987,5.0283,5.0719,5.1108,5.1587,5.2208,5.3071,5.3151,5.3324,5.3731,5.375,5.3772,5.3794,5.4195,5.4426,5.4451,5.4847,5.5052,5.5052,5.5025,5.5019,5.5054,5.5019,5.5019,5.5054,5.5019,5.4984,5.4945,5.4948,5.4936,5.49,5.4941,5.4369,5.3557,5.3542,5.3522,5.3502,0.0,0.0,0.0,0.0,0.0,0.0,0.0,4.3427,4.341,4.3323,4.3214,4.3031,4.2793,4.2805,4.2892,4.3032,4.3293,4.3424,4.3365,4.3178,4.3032,4.2966,4.2854,4.2854,4.2957,4.2815,4.2631,4.2432,4.2313,4.2075,4.1725,4.1751,4.1686,4.1509,4.1509,4.1453,4.1352,4.1346,4.125,4.1105,4.1123,4.1053,4.1018,4.1668,4.2099,4.241,4.294,4.3355,4.3685,4.3865,4.3999,4.4128,4.4364,4.446,4.4565,4.4893,4.5062,0.0,0.0,0.0,0.0,0.0,0.0,0.0,0.0,4.7573,4.8125,4.8134,4.8308,4.8459,4.8421,4.8558,4.8929,4.975,4.9977,5.0587,5.2092,5.2405,5.2191,5.1498,5.2079,5.2541,5.2573,5.3265,5.3759,5.3938,5.3966,5.4024,5.4155,5.4161,5.4189,5.4222,5.4859,5.5242,5.5313,5.5968,5.6272,5.6272,5.6272,5.6272,5.6272,5.6272,5.6272,5.6272,5.6265,5.6225,5.6174,5.6172,5.6133,5.6086,5.6133,5.5273,5.4041,5.3993,5.3973,5.3975,0.0,0.0,0.0,0.0,0.0,0.0,0.0,0.0,4.316,4.2985,4.2929,4.2844,4.2649,4.2629,4.2776,4.3142,4.2797,4.2635,4.2857,4.2468,4.2197,4.2136,4.2125,4.2115,4.2125,4.2104,4.2023,4.1888,4.1769,4.1615,4.1448,4.1323,4.1277,4.1243,4.1243,4.1243,4.122,4.1157,4.1117,4.1082,4.0982,4.0994,4.1093,4.1249,4.149,4.1842,4.2325,4.2796,4.3196,4.3268,4.3452,4.3691,4.3843,4.4005,4.4214,4.4552,4.4795,4.5143,4.6108,4.6937,4.7513,4.7392,4.7525,4.7698,0.0,4.778,4.7854,4.7921,4.8503,4.9038,4.9153,4.9811,5.0614,5.1476,5.163,5.1972,5.2939,5.3044,5.296,5.2883,5.3162,5.3409,5.3534,5.3632,5.4022,5.4802,5.4908,5.5193,5.5808,5.5834,5.5804,5.5752,5.5893,5.6009,5.6089,5.6179,5.6214,5.6214,5.6214,5.6214,5.6214,5.6214,5.6214,5.621,5.6153,5.6114,5.6106,5.6042,5.602,5.6012,5.5953,5.58,5.5646,5.5705,5.5684,5.5625,0.0,0.0,0.0,0.0,0.0,0.0,0.0,0.0,0.0,4.3021,4.3059,4.2975,4.2727,4.2756,4.2891,4.3187,4.2843,4.2621,4.2568,4.2203,4.1913,4.1776,4.1765,4.1765,4.1765,4.1688,4.1615,4.1571,4.1431,4.1318,4.1215,4.1169,4.114,4.1146,4.107,4.107,4.1129,4.1029,4.0982,4.0971,4.0923,4.0935,4.1011,4.1111,4.1295,4.1602,4.2192,4.2699,0.0,4.3313,4.3444,4.36,4.3841,4.3974,4.4202,4.4996,4.5337,4.5645,4.6683,4.7257,4.7566,4.7548,4.8025,4.8501,4.8501,4.8921,4.9315,4.9304,4.9628,4.9912,4.9937,5.0659,5.1362,5.1729,5.2214,5.2828,5.3711,5.3824,5.3979,5.4445,5.4607,5.4511,5.4134,5.4592,5.5093,5.5486,5.5544,5.5686,5.5979,5.5973,5.5977,5.5949,5.5967,5.602,5.6086,5.611,5.6141,5.6141,5.6188,5.6199,5.6218,5.6637,5.7094,5.7549,5.7501,5.7503,5.7498,5.7428,5.741,5.7386,5.7366,5.7337,5.7182,5.6271,5.5914,5.59,0.0,0.0,0.0,0.0,0.0,0.0,0.0,0.0,0.0,0.0,4.2806,4.2768,4.2562,4.2593,4.2682,4.2835,4.2611,4.2361,4.2081,4.1763,4.1496,4.1277,4.1266,4.1266,4.1266,4.1175,4.1094,4.1007,4.0925,4.0807,4.0692,4.0692,4.0692,4.0692,4.068,4.0728,4.0817,4.0805,4.0787,4.0787,4.0787,4.0799,4.0864,4.0953,4.1186,4.1558,4.2133,4.2632,4.3031,4.3375,4.3505,4.3573,4.3878,4.3997,4.4246,4.5345,4.6067,4.6675,4.7413,4.7828,4.8065,4.8111,4.8707,4.9269,4.9269,4.9811,5.0296,5.0255,5.051,5.0734,5.0706,5.1404,5.207,5.2334,5.292,5.3635,5.4472,5.4606,5.4811,5.5374,5.5463,5.5262,5.4732,5.5345,5.5807,5.5875,5.5885,5.588,5.586,5.5885,5.589,5.5875,5.5889,5.5913,5.5968,5.6036,5.608,5.608,5.6113,5.6261,5.6493,5.7256,5.7909,5.8471,5.8443,5.8442,5.8437,5.8382,5.8335,5.8253,5.8253,5.8192,5.7939,5.6805,5.6436,5.6479,0.0,0.0,0.0,0.0,0.0,0.0,0.0,0.0,0.0,0.0,0.0,0.0,0.0,4.1924,4.1924,4.1934,4.1744,4.152,4.1249,4.0978,4.0719,4.0449,4.0436,4.0436,4.0436,4.0424,4.0302,4.0041,4.0041,3.9902,3.9649,3.9649,3.9649,3.9662,3.9978,4.0121,4.0163,4.0395,4.0522,4.0522,4.0522,4.0583,4.0697,4.0709,4.1117,4.1742,4.2074,4.2428,4.2798,4.3312,4.3539,4.3632,4.3841,4.3997,4.4307,4.5312,4.6894,4.8327,4.8365,4.9025,4.9731,4.9731,4.9848,4.9973,4.9973,5.0044,5.0108,5.0108,5.0774,5.1389,5.1465,5.2126,5.2984,5.398,5.4152,5.4445,5.5248,5.5369,5.5345,5.5314,5.5365,5.5396,5.5369,5.5577,5.5734,5.5797,5.5861,5.5832,5.57,5.5826,5.588,5.5816,5.588,5.59,5.59,5.5971,5.5999,5.5999,5.5999,5.6405,5.7197,5.7994,5.8374,5.8407,5.8331,5.831,5.8305,5.8308,5.8158,5.7928,5.7928,5.7752,5.7537,5.7615,5.7767,5.7927,0.0,0.0,0.0,0.0,0.0,0.0,0.0,0.0,0.0,0.0,0.0,0.0,0.0,0.0,0.0,0.0,4.1759,4.1574,4.1357,4.1007,4.0664,4.0358,4.0171,4.0016,3.9864,3.9864,3.9825,3.9736,3.9645,3.9571,3.947,3.9282,3.9256,3.9322,3.9276,3.9342,3.9497,3.9601,3.9692,3.9812,4.0411,4.0849,4.117,4.1319,4.1781,4.2354,0.0,4.2613,4.3022,4.3375,4.3934,4.4387,4.397,4.4689,4.5895,4.6954,4.8088,4.9009,4.91,4.9389,4.9663,4.9663,5.0168,5.0685,5.0715,5.0776,5.0993,5.157,5.1534,5.156,5.2073,5.2879,5.3605,5.3943,5.4452,5.4911,5.5211,5.5275,5.5281,5.5358,5.5396,5.5403,5.539,5.5456,5.5531,5.5596,5.5668,5.5939,5.6461,5.659,5.6886,5.7442,5.7478,5.7489,5.7489,5.7503,5.7528,5.7528,5.7564,5.8007,5.8801,5.9074,5.9491,5.9991,5.9975,5.9963,5.9963,5.9965,5.9803,5.9561,5.9561,5.9418,5.9201,5.9125,5.9148,5.9059,0.0,0.0,0.0,0.0,0.0,0.0,0.0,0.0,0.0,0.0,0.0,0.0,0.0,0.0,0.0,0.0,0.0,4.1317,4.1094,4.0848,4.0524,4.0163,3.999,3.982,3.964,3.9773,3.9827,3.9774,3.9838,3.982,3.9728,3.9544,3.9474,3.9472,3.9403,3.9474,3.964,3.9767,3.9872,4.0035,4.0458,4.0891,4.1303,4.137,4.1817,0.0,4.2394,4.2899,4.3569,4.385,4.455,4.5253,4.4796,4.5695,4.7082,4.7874,4.8663,4.9324,4.9467,4.9536,4.9631,4.992,5.0463,5.102,5.134,5.1488,5.1722,5.2314,5.2273,5.2313,5.2838,5.3663,5.4268,5.4296,5.4728,5.5073,5.5121,5.5155,5.5304,5.5699,5.579,5.5924,5.6256,5.6282,5.6174,5.5911,5.624,5.6703,5.726,5.7357,5.7641,5.8212,5.8254,5.8266,5.8266,5.8286,5.8305,5.8305,5.8669,5.9083,5.9568,5.9895,6.0304,6.0771,6.0794,6.0734,6.0629,6.0654,6.0455,6.0146,6.0146,6.0015,5.9796,5.9713,5.9671,5.9501,0.0,0.0,0.0,0.0,0.0,0.0,0.0,0.0,0.0,0.0,0.0,0.0,0.0,0.0,0.0,0.0,0.0,0.0,4.0546,4.051,4.0313,3.9926,3.9888,3.9811,3.9651,4.0053,4.0169,4.0019,4.0424,4.0488,4.0252,4.0222,4.0101,3.9949,4.0204,4.0322,4.0337,4.0663,4.0879,4.0955,4.0636,4.0732,4.1077,4.0901,4.1295,4.1966,4.2264,4.3222,4.4378,4.4611,4.5313,4.611,4.6273,4.6937,4.7743,4.8045,4.8685,4.9335,4.9488,4.9549,4.9737,5.056,5.0841,5.1121,5.1892,5.2162,5.2292,5.2401,5.2995,5.3558,5.3716,5.4375,5.4916,5.4978,5.4992,5.5019,5.5057,5.5121,5.5474,5.635,5.6515,5.6908,5.7796,5.7937,5.7612,5.6772,5.7513,5.8011,5.8068,5.8112,5.8188,5.8226,5.8281,5.8317,5.8317,5.8388,5.8443,5.8481,5.9276,5.9634,5.9635,6.0417,6.0734,6.0679,6.0734,6.0591,6.0356,6.0406,6.0189,5.9801,5.9828,5.9637,5.9384,5.9542,5.9514,5.9384,0.0,0.0,0.0,0.0,0.0,0.0,0.0,0.0,0.0,0.0,0.0,0.0,0.0,0.0,0.0,0.0,0.0,0.0,4.0799,4.051,4.0263,4.0062,3.9759,3.9392,3.8884,3.9266,3.9328,3.8986,3.9277,3.9456,3.9468,3.9163,3.9066,3.9093,3.9064,3.9064,3.9078,3.9359,3.9498,3.9586,4.0125,4.0679,4.1188,4.1272,4.175,4.2313,4.1979,4.3139,4.4801,4.4562,4.5141,4.6177,4.7491,4.7774,4.7763,4.8485,4.8905,4.9297,4.9986,5.016,5.0382,5.1283,5.1971,5.2536,5.2884,5.2989,5.3225,5.3942,5.3731,5.3636,5.4328,5.4658,5.4829,5.4852,5.4886,5.5181,5.5866,5.599,5.6323,5.7184,5.7316,5.7413,5.7644,5.8254,5.8559,5.833,5.8122,5.8259,5.8859,5.8949,5.9294,5.9946,5.9984,5.999,5.999,6.0002,6.0309,6.091,6.0526,6.0648,6.1211,6.0667,6.0415,6.0395,6.0318,6.0512,6.0909,6.0905,6.106,6.128,6.138,6.0885,6.0199,6.0942,6.0745,6.0143,0.0,0.0,0.0,0.0,0.0,0.0,0.0,0.0,0.0,0.0,0.0,0.0,0.0,0.0,0.0,0.0,0.0,0.0,0.0,4.06,4.03,3.9901,3.9657,3.9279,3.8708,3.9069,3.9194,3.8941,3.931,3.9585,3.9764,3.978,3.9718,3.9597,3.978,3.9733,3.9526,3.9684,3.9809,0.0,0.0,4.0652,4.108,4.1156,4.15,4.1968,4.2229,4.3618,4.5373,4.5503,4.6159,4.7084,4.8087,4.8237,4.8149,4.8735,4.9248,4.9743,5.0255,5.0654,5.113,5.2051,5.2645,5.3135,5.3631,5.3756,5.3945,5.4495,5.4229,5.4048,5.4605,5.5046,5.532,5.532,5.57,5.6171,5.666,5.6736,5.7051,5.7936,5.8046,5.8217,5.8645,5.9147,5.9433,5.9433,5.9112,5.9132,5.9571,5.9981,6.0269,6.0372,6.1126,6.1536,6.1577,6.1577,6.1788,6.2228,6.1692,6.1676,6.2096,6.142,6.1119,6.108,6.1036,6.1155,6.1375,6.1399,6.1504,6.1682,6.175,6.1409,6.0943,6.1462,6.1329,6.0887,0.0,0.0,0.0,0.0,0.0,0.0,0.0,0.0,0.0,0.0,0.0,0.0,0.0,0.0,0.0,0.0,0.0,0.0,0.0,0.0,4.0241,3.9558,3.9506,3.9259,3.872,3.9115,3.928,3.9222,3.9693,4.0074,4.0352,4.0821,4.0847,4.0524,4.1044,4.1025,4.06,4.0614,4.0756,4.0946,4.0579,4.0611,4.0843,0.0,4.0925,4.1354,4.2716,4.4301,4.5871,4.6701,4.749,4.808,4.8151,4.8326,4.8569,4.8861,4.9533,5.0244,5.0536,5.1121,5.1848,5.2733,5.3009,5.3248,5.4049,5.4297,5.4364,5.4464,5.4489,5.4551,5.4783,5.5449,5.6007,5.612,5.6816,5.7378,5.7446,5.7448,5.7756,5.8632,5.8735,5.9075,5.9957,6.0057,6.0064,6.0064,6.0072,6.0076,6.0091,6.0814,6.0928,6.0281,6.1862,6.2731,6.2793,6.2801,6.2851,6.2928,6.2634,6.252,6.2594,6.2286,6.2099,6.2047,6.2081,6.1985,6.1812,6.1881,6.1857,6.1782,6.1792,6.1728,6.1653,6.1776,6.1738,6.1635,0.0,0.0,0.0,0.0,0.0,0.0,0.0,0.0,0.0,0.0,4.0066,4.0375,0.0,0.0,0.0,0.0,0.0,0.0,0.0,0.0,0.0,3.9122,3.899,3.8703,3.8228,3.8683,3.8704,3.8321,3.8794,3.9221,3.9587,3.9583,3.9733,4.0036,4.0127,4.0127,4.0049,4.0163,4.0224,4.0276,4.0209,4.032,4.057,4.0556,0.0,0.0,4.3086,4.4471,4.5552,4.665,4.7198,4.7472,4.7464,4.7759,4.8249,4.8946,4.9378,4.9929,5.1283,5.1735,5.2068,5.3006,5.3239,5.3367,5.3861,5.399,5.4072,5.4364,5.4415,5.4622,5.5326,5.5666,5.6053,5.6712,5.7006,5.7396,5.8104,5.8218,5.8501,5.9338,5.9432,5.9498,5.9664,5.9788,5.9849,5.9849,5.9893,5.9979,6.0084,6.0243,6.0586,6.1157,6.2212,6.278,6.2795,6.2855,6.3112,6.3536,6.2783,6.2688,6.3131,6.2203,6.1779,6.1751,6.1652,6.1904,6.2372,6.2364,6.2718,6.326,6.3359,6.2963,6.2423,6.319,6.3001,6.2337,0.0,0.0,0.0,0.0,0.0,0.0,0.0,3.9388,3.9362,3.9299,3.9315,3.954,4.0079,3.9965,0.0,0.0,0.0,0.0,0.0,0.0,0.0,0.0,0.0,0.0,3.7801,3.8019,3.8003,3.7801,0.0,3.8441,3.9088,3.9265,3.9508,3.9798,4.0122,4.0089,3.9794,3.9935,4.0037,4.0096,4.0096,4.0226,4.0399,0.0,0.0,0.0,0.0,4.4611,4.5863,4.6478,4.6801,4.6978,4.7214,4.7613,4.8166,4.8958,4.9631,5.0378,5.1581,5.2215,5.2629,5.3067,5.3258,5.3351,5.3534,5.3757,5.3944,5.4108,5.4268,5.4653,5.5443,5.6055,5.6688,5.7488,5.8057,5.8525,5.8923,5.8971,5.9122,5.9499,5.9555,5.9554,5.9607,5.9669,5.9901,6.0387,6.0415,6.0301,5.9998,6.0385,6.1202,6.2504,6.299,6.3383,6.3727,6.377,6.3846,6.3954,6.3418,6.3331,6.3588,6.298,6.2697,6.2697,6.262,6.2775,6.3074,6.3074,6.3282,6.362,6.3676,6.3438,6.3111,6.3502,6.3357,6.2966,0.0,0.0,0.0,0.0,0.0,0.0,0.0,3.8993,3.8939,3.8777,3.8583,3.8664,3.9229,3.9348,3.9375,0.0,0.0,0.0,0.0,0.0,0.0,0.0,0.0,0.0,0.0,0.0,0.0,3.7495,3.7495,0.0,0.0,0.0,0.0,0.0,4.0234,4.018,3.9794,3.9875,3.999,0.0,0.0,4.0175,0.0,0.0,0.0,0.0,0.0,4.4717,4.6209,4.6314,4.6577,4.6909,4.7292,4.7735,4.8286,4.9286,5.0162,5.0997,5.1812,5.249,5.2976,5.2976,5.3059,5.3151,5.3225,5.3474,5.371,5.3776,5.4063,5.4595,5.5589,5.6435,5.7302,5.828,5.9058,5.9528,5.9456,5.9466,5.9541,5.9701,5.9748,5.9756,5.98,5.9827,6.0135,6.0875,6.1076,6.0931,6.0421,6.1168,6.2201,6.3492,6.3727,6.4082,6.4549,6.4568,6.4444,6.4169,6.4023,6.3907,6.3822,6.3662,6.359,6.359,6.359,6.3579,6.3557,6.3557,6.3534,6.3511,6.3511,6.3511,6.35,6.34,6.3366,6.3342,0.0,0.0,0.0,0.0,0.0,0.0,0.0,3.8292,3.8221,3.8035,3.7992,3.8064,3.8307,3.8542,3.8788,0.0,0.0,0.0,0.0,0.0,0.0,0.0,0.0,0.0,0.0,0.0,0.0,3.7495,3.7495,0.0,0.0,0.0,0.0,0.0,0.0,3.9887,4.0062,3.9948,0.0,0.0,0.0,0.0,0.0,0.0,0.0,0.0,0.0,4.4717,4.6196,4.6209,4.6868,4.7687,4.7736,4.8085,4.8771,5.0284,5.0979,5.1425,5.2223,5.2495,5.2549,5.2549,5.2561,5.2652,5.2966,5.3063,5.3143,5.3405,5.3719,5.4438,5.6032,5.6649,5.7412,5.8952,5.9271,5.9337,5.9327,5.9327,5.9609,6.0407,6.0501,6.0501,6.0511,6.0567,6.0622,6.0725,6.1504,6.1991,6.1993,6.2815,6.33,6.3332,6.415,6.453,6.4415,6.4492,6.4367,6.4113,6.4092,6.3923,6.3624,6.3602,6.359,6.359,6.359,6.3534,6.3424,6.3424,6.3342,6.3237,6.3237,6.3237,6.3237,6.3225,6.3225,6.3213,0.0,0.0,0.0,0.0,0.0,0.0,3.8337,3.8323,3.8221,3.7948,3.7905,3.7876,3.779,3.7948,3.8132,0.0,0.0,0.0,0.0,0.0,0.0,0.0,0.0,0.0,0.0,0.0,3.7495,3.7495,3.7495,0.0,0.0,0.0,0.0,0.0,0.0,3.9755,3.9871,3.9973,0.0,0.0,0.0,0.0,0.0,0.0,0.0,0.0,0.0,0.0,4.6221,4.6392,4.7054,4.7906,4.8513,4.921,4.9959,5.0694,5.1032,5.1375,5.2269,5.2498,5.2498,5.2498,5.286,5.3131,5.2783,5.3192,5.358,5.3225,5.3791,5.4697,5.5884,5.6775,5.7687,5.8818,5.9178,5.9478,6.0022,6.0079,6.0398,6.1224,6.1318,6.1318,6.1318,6.1356,6.1356,6.1356,6.2567,6.3084,6.2588,6.2965,6.3096,6.2901,6.3836,6.4218,6.3973,6.4087,6.4023,6.3812,6.3812,6.3736,6.3609,6.3522,6.347,6.3488,6.3389,6.3319,6.3284,6.3284,6.3248,6.3201,6.3201,6.3201,6.3189,6.3099,6.3075,6.3063,0.0,0.0,0.0,0.0,0.0,3.8394,3.8351,3.8278,3.815,3.7876,3.7803,3.7715,3.7584,3.7642,3.7744,3.7832,0.0,0.0,0.0,0.0,0.0,0.0,0.0,0.0,0.0,0.0,3.7435,3.7495,3.7495,3.7816,0.0,0.0,3.8752,3.9415,0.0,0.0,0.0,0.0,0.0,0.0,0.0,0.0,0.0,0.0,0.0,0.0,0.0,0.0,0.0,0.0,0.0,4.8273,4.8994,5.0031,0.0,5.1161,5.1322,5.1589,5.2219,5.244,5.2552,5.2753,5.3072,5.3259,5.2933,5.3256,5.3546,5.3265,5.3876,5.4791,5.5899,5.6839,5.7754,5.8647,5.9005,5.9487,6.0454,6.0379,6.0717,6.2031,6.1956,6.191,6.2163,6.2181,6.2181,6.2181,6.3346,6.3738,6.3077,6.3059,6.2998,6.2876,6.3558,6.3822,6.3613,6.3713,6.3698,6.359,6.3557,6.3545,6.3534,6.34,6.3342,6.3342,6.3237,6.3177,6.3153,6.3153,6.3129,6.3081,6.3081,6.3081,6.3081,6.2978,6.2941,6.2929,0.0,0.0,0.0,0.0,0.0,0.0,3.8223,3.8035,3.7861,3.7715,3.7599,3.7554,3.7686,3.77,3.77,3.77,0.0,0.0,0.0,0.0,0.0,0.0,0.0,0.0,0.0,0.0,3.73,3.7495,3.7495,3.7714,3.8116,3.8305,3.8697,3.9206,0.0,0.0,0.0,0.0,0.0,0.0,0.0,0.0,0.0,0.0,0.0,0.0,0.0,0.0,0.0,0.0,0.0,0.0,0.0,0.0,0.0,0.0,5.2078,5.2257,5.2138,5.2293,5.2656,5.3315,5.2995,5.2715,5.3512,5.3078,5.2745,5.3542,5.3911,5.4616,5.6296,5.6871,5.7476,5.8617,5.8798,5.9235,6.0425,5.9853,6.0248,6.2782,6.2332,6.2154,6.3008,6.3101,6.3101,6.3101,6.3584,6.38,6.3613,6.3342,6.3294,6.3472,6.3502,6.3464,6.3394,6.3394,6.347,6.359,6.3477,6.3412,6.34,6.326,6.3201,6.3201,6.3201,6.3111,6.3014,6.3014,6.2929,6.2793,6.2793,6.2793,6.2793,6.2793,6.2793,6.2793,0.0,0.0,0.0,0.0,0.0,0.0,0.0,3.8151,3.8035,3.7861,3.7715,3.7612,3.7569,3.7569,3.7569,3.7569,0.0,0.0,0.0,0.0,0.0,0.0,0.0,0.0,0.0,0.0,3.7211,3.7495,3.7359,3.7639,3.8305,3.8363,3.8769,3.9415,3.9577,3.9716,0.0,0.0,0.0,0.0,0.0,0.0,4.3349,0.0,0.0,0.0,0.0,0.0,0.0,0.0,0.0,0.0,0.0,0.0,0.0,5.174,5.1895,5.2029,5.209,5.2162,5.2276,5.2492,5.2792,5.2973,5.2666,5.3333,5.3917,5.361,5.4544,5.5559,5.6079,5.7143,5.8038,5.8386,5.8828,5.9392,6.0152,6.0686,6.1428,6.2556,6.3169,6.3618,6.39,6.374,6.3422,6.288,6.3208,6.3153,6.2554,6.2768,6.2953,6.3032,6.3098,6.3152,6.3123,6.3225,6.3284,6.3319,6.3284,6.326,6.326,6.3123,6.3063,6.3051,6.2966,6.2892,6.2855,6.2855,6.283,6.2793,6.2793,6.2793,6.2793,6.2793,6.2793,6.2793,0.0,0.0,0.0,0.0,0.0,0.0,0.0,3.8078,3.7963,3.7847,3.7744,3.7658,3.751,3.7583,3.7627,3.7584,0.0,0.0,0.0,0.0,0.0,0.0,0.0,0.0,0.0,3.7447,3.7618,3.789,3.8006,3.8313,3.8821,3.9125,3.9511,3.9971,4.0405,4.0647,0.0,0.0,0.0,0.0,0.0,0.0,4.4152,0.0,0.0,0.0,0.0,0.0,0.0,0.0,0.0,0.0,0.0,0.0,0.0,0.0,5.1753,5.1845,5.1932,5.2011,5.2234,5.2796,5.312,5.3319,5.3396,5.4065,5.4603,5.4416,5.525,5.6096,5.6391,5.7248,5.793,5.8097,5.8463,5.8993,5.9767,6.0483,6.127,6.2164,6.3194,6.3846,6.3846,6.3697,6.3394,6.2891,6.2981,6.286,6.241,6.261,6.2743,6.2793,6.288,6.2953,6.3002,6.3075,6.3153,6.3201,6.3153,6.3111,6.3111,6.299,6.2929,6.2917,6.283,6.2793,0.0,6.2793,6.2793,6.2793,6.2793,6.2793,6.2793,6.2793,6.2793,6.2793,0.0,0.0,0.0,0.0,0.0,0.0,0.0,0.0,3.7715,3.7715,3.7715,3.7656,3.7539,3.7744,3.7847,3.7715,0.0,0.0,0.0,0.0,0.0,0.0,0.0,0.0,0.0,3.7947,3.837,3.8571,3.9187,3.9503,3.955,4.0328,4.0728,4.0787,4.1702,4.2105,0.0,0.0,0.0,0.0,0.0,0.0,0.0,0.0,0.0,0.0,0.0,0.0,0.0,0.0,0.0,0.0,0.0,0.0,0.0,0.0,0.0,0.0,0.0,5.1877,5.2413,5.3849,5.3733,5.3659,5.5151,5.506,0.0,5.5637,5.5961,5.6313,5.7062,5.7213,5.7369,5.7733,5.787,5.8267,5.9242,5.9475,6.0164,6.1805,6.2659,6.3096,6.3096,6.309,6.3078,6.3078,6.288,6.2836,6.2953,6.273,6.2641,6.2773,6.2768,6.2842,6.299,6.299,6.3051,6.3177,6.3051,6.299,6.299,6.2855,6.2793,6.2793,6.2793,6.2793,6.2793,6.2793,6.2793,6.2793,6.2793,6.2793,6.2793,6.2793,6.2793,6.2793,0.0,0.0,0.0,0.0,0.0,0.0,0.0,0.0,0.0,0.0,3.7861,3.7847,3.7803,3.7861,3.7847,0.0,0.0,0.0,0.0,0.0,0.0,0.0,0.0,0.0,0.0,3.8121,3.8466,3.9266,3.9314,3.9534,3.9891,4.0449,4.0889,4.1267,4.1843,4.2173,4.2277,0.0,0.0,0.0,0.0,0.0,0.0,0.0,0.0,0.0,4.7521,4.781,0.0,0.0,0.0,0.0,0.0,0.0,0.0,0.0,5.1703,5.1703,5.1703,0.0,5.201,5.2998,5.3118,5.3238,0.0,0.0,0.0,0.0,0.0,5.6971,5.717,5.7437,5.7685,5.778,5.8538,5.8881,5.8267,5.9252,6.073,6.2605,6.2973,6.3096,6.3096,6.2959,6.2874,6.2874,6.2641,6.2519,6.2545,6.2475,6.2467,6.2493,6.2493,6.2609,6.2842,6.2842,6.2855,6.288,6.2855,6.2842,6.2842,6.2805,6.2793,6.2793,6.2793,6.2793,6.2793,6.2793,6.2793,6.2793,6.2793,6.2793,6.2793,6.2793,6.2793,6.2798,0.0,0.0,0.0,0.0,0.0,0.0,0.0,0.0,0.0,0.0,0.0,0.0,0.0,0.0,0.0,0.0,0.0,0.0,0.0,0.0,0.0,0.0,0.0,0.0,3.8476,3.8622,3.9125,4.0008,4.0229,4.061,4.1099,4.1573,4.205,4.252,4.3018,4.3297,4.3362,4.3579,4.3951,4.442,4.4633,0.0,0.0,0.0,0.0,0.0,4.7782,4.8194,0.0,4.9881,5.0154,4.9998,0.0,0.0,0.0,0.0,5.1703,5.1703,5.1703,5.1703,5.197,5.3118,5.3403,5.3706,5.4835,0.0,0.0,0.0,0.0,5.7118,5.7118,5.7634,5.7947,5.7583,5.8665,5.9463,5.9198,5.9932,6.1005,6.2427,6.2599,6.2599,6.2599,6.2495,6.2428,6.2428,6.2296,6.223,6.231,6.231,6.2336,6.2402,6.2402,6.2467,6.2622,6.2679,6.2705,6.2705,6.2768,6.2793,6.2793,6.2793,6.2793,6.2793,6.2793,6.2793,6.2811,6.273,6.2705,6.2705,6.2629,6.2622,6.2622,6.2622,6.2622,6.2609,0.0,0.0,0.0,0.0,0.0,0.0,0.0,0.0,0.0,0.0,0.0,0.0,0.0,0.0,0.0,0.0,0.0,0.0,0.0,0.0,0.0,0.0,0.0,3.7969,3.8634,3.9329,4.0024,4.0751,4.1386,4.1948,4.2413,4.2959,4.3459,4.3933,4.4398,4.4598,4.464,4.4762,4.4913,4.5046,4.518,0.0,0.0,0.0,0.0,0.0,0.0,0.0,0.0,5.0528,5.0621,5.0258,5.1176,0.0,0.0,0.0,0.0,0.0,5.1703,5.1792,5.2208,5.3658,5.4001,5.4425,5.6026,0.0,0.0,0.0,0.0,5.7077,5.7186,5.7763,5.8076,5.7641,5.8709,5.991,6.0851,6.0856,6.1077,6.186,6.1955,6.1941,6.1941,6.1941,6.1941,6.1941,6.1941,6.1992,6.2096,6.2123,6.219,6.2296,6.2323,6.2336,6.2336,6.2488,6.2578,6.2578,6.2679,6.2748,6.2748,6.2748,6.2748,6.2748,6.2748,6.2748,6.2717,6.2616,6.2578,6.2552,6.2454,6.2402,6.2402,6.2402,6.2402,6.2402,0.0,0.0,0.0,0.0,0.0,0.0,0.0,0.0,0.0,0.0,0.0,0.0,0.0,0.0,0.0,0.0,0.0,0.0,0.0,0.0,0.0,0.0,3.8033,3.8665,3.9329,4.0056,4.0751,4.1447,4.1997,4.2318,4.2413,4.3295,4.3962,4.4485,4.4556,4.4668,4.4776,4.4913,4.5046,4.5177,4.5331,0.0,0.0,0.0,0.0,0.0,0.0,0.0,0.0,5.083,5.091,5.0973,5.125,0.0,0.0,0.0,0.0,0.0,5.1703,5.2202,5.2916,5.3782,5.4001,5.4425,5.6026,0.0,0.0,0.0,0.0,0.0,5.8055,5.7755,5.7786,5.9035,5.9452,6.0109,6.1611,6.1136,6.0928,6.174,6.1732,6.1662,6.1662,6.1662,6.1662,6.1662,6.1662,6.1662,6.169,6.1802,6.1868,6.1882,6.1992,6.206,6.206,6.231,6.2428,6.2428,6.2454,6.2467,6.2467,6.2467,6.2467,6.2467,6.2467,6.2467,6.2454,6.2441,6.2428,6.2428,6.2402,6.2402,6.2402,6.2402,6.2402,6.2389,0.0,0.0,0.0,0.0,0.0,0.0,0.0,0.0,0.0,0.0,0.0,0.0,0.0,0.0,0.0,0.0,0.0,0.0,0.0,0.0,0.0,3.7876,3.8353,3.89,3.9487,4.023,4.107,4.2029,4.2286,4.2649,4.3157,4.3889,4.4355,4.4598,4.4682,4.4751,4.4817,4.5019,4.5136,4.5203,0.0,0.0,0.0,0.0,0.0,0.0,0.0,0.0,0.0,0.0,5.0985,5.1119,5.1259,0.0,0.0,0.0,0.0,0.0,5.1703,5.197,5.2516,5.3624,5.4269,5.496,5.6133,0.0,0.0,0.0,0.0,0.0,5.8095,5.83,5.8944,6.062,6.0525,6.0652,6.1829,6.1629,6.147,6.1762,6.1746,6.1676,6.1605,6.1662,6.1676,6.1623,6.1732,6.1788,6.1704,6.1844,6.1913,6.1913,6.1969,6.201,6.201,6.2128,6.2222,6.2296,6.2362,6.2402,6.2402,6.2402,6.2402,6.2402,6.2402,6.2402,6.2389,6.2323,6.2296,6.2283,6.2203,6.2195,6.2195,6.2195,6.2195,6.2181,0.0,0.0,0.0,0.0,0.0,0.0,0.0,0.0,0.0,0.0,0.0,0.0,0.0,0.0,0.0,0.0,0.0,0.0,0.0,0.0,3.818,3.8121,3.8793,3.9317,3.9612,4.0388,4.1358,4.2444,4.268,4.3188,4.3991,4.444,4.464,4.4654,4.4793,4.4872,4.4913,4.5096,4.5234,4.5261,0.0,0.0,0.0,0.0,0.0,0.0,0.0,0.0,0.0,0.0,0.0,0.0,0.0,0.0,0.0,5.1665,5.1703,5.1703,5.1703,5.1845,5.2271,5.3531,0.0,0.0,0.0,0.0,0.0,0.0,5.7482,5.7985,5.8273,5.9092,6.0097,6.1254,6.1204,6.1263,6.1864,6.19,6.1798,6.1704,6.1662,6.1605,6.1491,6.1577,6.1587,6.1491,6.1672,6.1756,6.169,6.1812,6.1927,6.1955,6.1964,6.201,6.201,6.201,6.2046,6.215,6.2257,6.2315,6.2315,6.2315,6.2315,6.2315,6.2315,6.2315,6.2296,6.219,6.215,6.2136,6.2033,6.201,6.201,6.201,6.1982,6.1955,0.0,0.0,0.0,0.0,0.0,0.0,0.0,0.0,0.0,0.0,0.0,0.0,0.0,0.0,0.0,0.0,0.0,0.0,0.0,0.0,3.8107,3.7934,3.9611,4.037,3.9982,4.0932,4.181,4.2585,4.3456,4.4105,4.4542,4.4723,4.4793,4.4789,4.4927,4.5059,4.5163,4.519,4.5274,4.5384,4.5397,0.0,0.0,0.0,0.0,0.0,0.0,0.0,0.0,0.0,0.0,0.0,0.0,0.0,5.169,5.169,5.1703,5.1703,5.1703,5.2256,5.3006,5.3787,5.4037,0.0,5.6755,5.695,0.0,5.8524,5.8471,5.8402,5.9154,6.0056,6.0494,5.9873,6.0869,6.1744,6.1816,6.1544,6.1339,6.1343,6.1226,6.1138,6.1155,6.1138,6.1138,6.1155,6.1152,6.1211,6.1343,6.1516,6.1676,6.1816,6.1941,6.201,6.201,6.201,6.1992,6.2005,6.2019,6.2037,6.2037,6.2037,6.2037,6.2037,6.2037,6.2037,6.2037,6.2023,6.2005,6.2005,6.1992,6.201,6.201,6.201,6.1927,6.1816,0.0,0.0,0.0,0.0,0.0,0.0,0.0,0.0,0.0,0.0,0.0,0.0,0.0,0.0,0.0,0.0,0.0,0.0,0.0,0.0,3.8669,3.8583,3.986,4.0753,4.1115,4.2108,4.2906,4.3471,4.4162,4.4578,4.4737,4.4858,4.491,4.494,4.5059,4.515,4.522,4.5287,4.5357,4.5397,4.5397,4.5476,0.0,0.0,0.0,0.0,0.0,0.0,0.0,0.0,5.1025,5.118,5.1272,5.1428,5.1594,5.1678,5.1703,5.1703,5.1703,5.2197,5.2997,5.4153,5.4531,0.0,0.0,5.7703,5.8077,5.8702,5.9037,5.9378,5.9763,6.064,6.1187,6.0881,6.1308,6.1676,6.1676,6.1577,6.143,6.131,6.127,6.1197,6.1108,6.1182,6.1197,6.1108,6.1302,6.1372,6.1296,6.1491,6.1662,6.1802,6.1858,6.1927,6.201,6.201,6.201,6.201,6.201,6.201,6.201,6.201,6.201,6.201,6.201,6.201,6.201,6.201,6.201,6.201,6.201,6.201,6.1996,6.1913,6.1844,6.1788,0.0,0.0,0.0,0.0,0.0,0.0,0.0,0.0,0.0,0.0,0.0,0.0,0.0,0.0,0.0,0.0,0.0,0.0,3.8588,3.8862,3.9064,3.9182,4.0438,4.1402,4.2004,4.326,4.3985,4.416,4.4634,4.4872,4.4872,4.4991,4.5059,4.5073,4.5207,4.5261,4.5274,4.541,4.5463,4.5463,4.5515,4.5758,0.0,0.0,0.0,0.0,0.0,0.0,0.0,0.0,5.0985,5.1119,5.1259,5.1389,5.1531,5.1652,5.1826,5.1984,5.1984,5.2476,5.3318,5.4729,0.0,0.0,5.7726,5.8214,5.8492,5.928,5.973,6.0014,6.0167,6.0765,6.1213,6.1213,6.1386,6.1505,6.1505,6.1476,6.1404,6.1255,6.1241,6.1197,6.1108,6.1182,6.1197,6.1108,6.1299,6.1386,6.1314,6.143,6.1577,6.1732,6.1732,6.1802,6.1941,6.1882,6.1882,6.1941,6.19,6.19,6.1941,6.1941,6.1913,6.1872,6.1872,6.1872,6.1872,6.1872,6.1872,6.1872,6.1872,6.1872,6.1872,6.1774,6.1704,6.1669,0.0,0.0,0.0,0.0,0.0,0.0,0.0,0.0,0.0,0.0,0.0,0.0,0.0,0.0,0.0,0.0,0.0,0.0,3.8983,3.901,3.9195,3.9597,4.1471,4.2507,4.2507,4.4285,4.4974,4.4502,4.4841,4.4991,4.5005,4.5154,4.519,4.522,4.5344,4.5397,4.541,4.5554,4.5607,4.5602,4.5761,4.6367,4.7276,0.0,0.0,0.0,0.0,0.0,0.0,0.0,5.0985,5.1119,5.1259,5.1389,5.1518,5.1652,5.2123,5.2594,5.2594,5.3167,5.4139,5.5543,5.6035,5.6777,5.8922,5.8323,5.8042,6.0582,6.0586,6.0175,6.0362,6.0422,6.0422,6.0422,6.0895,6.1296,6.1296,6.1182,6.1093,6.1093,6.1093,6.1093,6.1093,6.1093,6.1093,6.1093,6.1093,6.1152,6.1281,6.1296,6.1386,6.1591,6.1609,6.1662,6.1802,6.1662,6.1662,6.1802,6.1662,6.1662,6.1802,6.1802,6.1718,6.1591,6.1591,6.1591,6.1591,6.1591,6.1591,6.1591,6.1591,6.1591,6.1591,6.1609,6.1476,6.1421,0.0,0.0,0.0,0.0,0.0,0.0,0.0,0.0,0.0,0.0,0.0,0.0,0.0,0.0,0.0,0.0,0.0,0.0,3.9405,3.9735,3.9973,4.0083,4.1958,4.2996,4.2996,4.4543,4.518,4.4838,4.5059,4.5154,4.5136,4.5274,4.5344,4.5357,4.5489,4.5541,4.5554,4.568,4.5731,4.5796,4.6386,4.6868,4.7346,0.0,0.0,0.0,0.0,0.0,0.0,0.0,0.0,0.0,5.1119,5.1185,5.1264,5.1492,5.1691,5.1856,5.194,5.2803,5.403,5.5518,5.6303,5.7314,5.9694,5.9489,5.9174,6.0596,6.0835,6.081,6.0886,6.0901,6.0901,6.0901,6.1036,6.1167,6.1167,6.1123,6.1093,6.1093,6.1093,6.1093,6.1093,6.1093,6.1093,6.1093,6.1093,6.1108,6.1152,6.1167,6.1226,6.1386,6.1386,6.1491,6.1648,6.1619,6.1619,6.1662,6.1619,6.1619,6.1662,6.1662,6.1633,6.1591,6.1591,6.1591,6.1591,6.1591,6.1591,6.1591,6.1591,6.1591,6.1649,6.209,6.22,6.223,0.0,0.0,0.0,0.0,0.0,0.0,0.0,0.0,0.0,0.0,0.0,0.0,0.0,0.0,0.0,0.0,0.0,0.0,0.0,4.0133,4.0379,4.0522,4.2255,4.3465,4.4074,4.4945,4.5318,4.5154,4.5234,4.5274,4.5274,4.5371,4.5397,4.541,4.5541,4.5607,4.5619,4.5795,4.6058,4.6402,4.695,4.7569,4.8294,0.0,0.0,0.0,0.0,0.0,0.0,0.0,0.0,0.0,5.1387,5.1546,5.1639,5.2183,5.2498,5.2719,5.2781,5.3839,5.5186,5.6353,5.724,5.8293,6.0114,6.022,6.0111,6.0678,6.0893,6.0986,6.0986,6.0986,6.0986,6.0986,6.0986,6.1001,6.1078,6.1093,6.1093,6.1093,6.1093,6.1093,6.1093,6.1093,6.1093,6.1093,6.1093,6.1093,6.1093,6.1093,6.1138,6.1226,6.1226,6.1299,6.1491,6.1433,6.1433,6.1491,6.1433,6.1404,6.1404,6.1462,6.1462,6.1404,6.1404,6.1404,6.1404,6.1404,6.1404,6.1404,6.1404,6.1601,6.191,6.229,6.2618,6.296,0.0,0.0,0.0,0.0,0.0,0.0,0.0,0.0,0.0,0.0,0.0,0.0,0.0,0.0,0.0,0.0,0.0,0.0,0.0,0.0,4.0527,4.0871,4.2391,4.3909,4.5389,4.5423,4.5423,4.5437,4.541,4.541,4.5423,4.5423,4.5423,4.5437,4.5581,4.5645,4.5641,4.5909,4.6442,4.7127,4.7412,4.8358,4.9605,4.9745,0.0,0.0,0.0,0.0,0.0,0.0,0.0,0.0,5.1919,5.2224,5.2459,5.3319,5.3974,5.4394,5.4409,5.5583,5.6928,5.757,5.8528,5.9499,6.0237,6.0576,6.077,6.077,6.0785,6.0785,6.0785,6.0785,6.0785,6.0785,6.0785,6.0848,6.1034,6.1064,6.1078,6.1078,6.1078,6.1093,6.1093,6.1093,6.1093,6.1093,6.1093,6.1093,6.1093,6.1093,6.1093,6.1093,6.1093,6.1167,6.1267,6.1167,6.1167,6.1267,6.1167,6.1093,6.1093,6.1241,6.1226,6.1093,6.1093,6.1093,6.1093,6.1093,6.1093,6.1093,6.1093,6.1539,6.2197,6.2268,6.2768,6.35,0.0,0.0,0.0,0.0,0.0,0.0,0.0,0.0,0.0,0.0,0.0,0.0,0.0,0.0,0.0,0.0,0.0,0.0,0.0,0.0,4.0817,4.09,4.2488,4.4048,4.5533,4.5567,4.5619,4.5705,4.5502,4.545,4.5567,4.5567,4.5602,4.5718,4.5846,4.5909,4.5922,4.6085,4.6265,4.6528,4.7823,4.8521,4.8894,5.0153,5.0746,0.0,0.0,0.0,0.0,0.0,0.0,0.0,5.1989,5.2491,5.3046,5.3344,5.3534,5.3658,5.3751,5.4857,5.615,5.6899,5.8637,6.0184,6.036,6.0441,6.0519,6.0625,6.0638,6.0638,6.0638,6.0638,6.0638,6.0638,6.0638,6.0655,6.0701,6.0805,6.0861,6.0861,6.1001,6.1093,6.1093,6.1093,6.1093,6.1093,6.1093,6.1093,6.1093,6.1093,6.1093,6.1093,6.1093,6.1108,6.1138,6.1108,6.1108,6.1138,6.1108,6.1093,6.1093,6.1123,6.1123,6.1093,6.1093,6.1093,6.1093,6.1093,6.1093,6.1093,6.1093,6.12,6.1432,6.2072,6.2768,6.3428,0.0,0.0,0.0,0.0,0.0,0.0,0.0,0.0,0.0,0.0,0.0,0.0,0.0,0.0,0.0,0.0,0.0,0.0,0.0,0.0,0.0,4.2061,4.2949,4.4156,4.5658,4.571,4.5718,4.5795,4.5654,4.5632,4.571,4.571,4.5731,4.5812,4.5935,4.5998,4.6028,4.655,4.6981,4.742,4.8626,4.9328,4.975,5.0588,5.0904,5.0904,5.0904,0.0,0.0,0.0,0.0,0.0,0.0,0.0,5.3819,5.4277,5.4397,5.4496,5.4934,5.5842,5.698,5.8141,5.9354,6.0283,6.038,6.0315,6.0315,6.0472,6.0503,6.0503,6.0503,6.0503,6.0503,6.0503,6.0503,6.0534,6.0578,6.0653,6.0696,6.0696,6.0848,6.0971,6.0971,6.1031,6.1093,6.1093,6.1093,6.1093,6.1093,6.1093,6.1093,6.1093,6.1093,6.1093,6.1093,6.1093,6.1093,6.1093,6.1093,6.1093,6.1093,6.1093,6.1093,6.1093,6.1093,6.1093,6.1093,6.1093,6.1093,6.1093,6.1093,6.1343,6.1733,6.2161,6.2768,6.341,0.0,0.0,0.0,0.0,0.0,0.0,0.0,0.0,0.0,0.0,0.0,0.0,0.0,0.0,0.0,0.0,0.0,0.0,0.0,0.0,0.0,4.3355,4.3638,4.4401,4.5799,4.5833,4.5846,4.5871,4.5846,4.5846,4.5871,4.5846,4.5846,4.5871,4.6125,4.6245,4.631,4.7206,4.7929,4.8578,4.9381,5.0096,5.0711,5.0851,5.0904,5.0922,5.1031,5.1487,5.2018,5.2158,0.0,0.0,0.0,0.0,5.4633,5.53,5.5493,5.5651,5.6403,5.728,5.8334,5.9738,6.0089,6.0155,6.0299,6.0218,6.0155,6.0315,6.0348,6.0348,6.0348,6.0348,6.0348,6.0348,6.0348,6.0378,6.0501,6.0532,6.0565,6.0565,6.0666,6.0773,6.0773,6.0941,6.1049,6.1049,6.1078,6.1093,6.1093,6.1093,6.1093,6.1093,6.1093,6.1093,6.1093,6.1093,6.1093,6.1093,6.1093,6.1093,6.1093,6.1093,6.1093,6.1093,6.1093,6.1093,6.1093,6.1093,6.1093,6.1093,6.1093,6.1504,6.209,6.209,6.2571,6.3196,0.0,0.0,0.0,0.0,0.0,0.0,0.0,0.0,0.0,0.0,0.0,0.0,0.0,0.0,0.0,0.0,0.0,0.0,0.0,0.0,0.0,4.3435,4.426,4.5119,4.5955,4.5972,4.6023,4.6147,4.6023,4.6035,0.0,0.0,4.6035,4.6182,4.6886,4.7214,4.7267,4.8034,4.842,4.8578,4.9381,4.9763,4.9938,5.0641,5.0904,5.0978,5.1628,5.1912,5.2106,5.2786,5.3538,0.0,0.0,0.0,5.5352,5.5458,5.5493,5.5651,5.6403,5.7702,5.9053,5.9879,6.0089,6.0123,6.0121,6.0123,6.0123,6.0121,6.0155,6.0155,6.0155,6.0155,6.0155,6.0155,6.0155,6.0155,6.0153,6.0315,6.0427,6.0427,6.055,6.0625,6.0625,6.0757,6.083,6.083,6.1001,6.1093,6.1093,6.1093,6.1093,6.1093,6.1093,6.1093,6.1093,6.1093,6.1093,6.1093,6.1093,6.1093,6.1093,6.1093,6.1093,6.1093,6.1093,6.1093,6.1093,6.1093,6.1093,6.1093,6.1093,6.1165,6.1254,6.1254,6.1753,6.2357,0.0,0.0,0.0,0.0,0.0,0.0,0.0,0.0,0.0,0.0,0.0,0.0,0.0,0.0,0.0,0.0,0.0,0.0,0.0,0.0,0.0,4.4237,4.4743,4.5364,4.611,4.611,4.6135,4.6196,4.6135,0.0,0.0,4.6135,4.6135,0.0,4.7046,4.741,4.748,4.8661,4.917,4.924,5.0061,5.0623,5.0978,5.0908,5.1154,5.1558,5.1877,5.2295,5.2786,5.3559,5.4331,5.4966,5.4966,0.0,0.0,0.0,5.5493,5.5756,5.6947,5.8342,5.954,5.9985,6.0089,6.0073,5.9959,6.0025,6.0073,5.9959,6.0025,6.0089,6.0089,6.0089,6.0089,6.0089,6.0089,6.0089,6.0089,6.0171,6.0218,6.0218,6.0378,6.0487,6.0487,6.0609,6.0684,6.0684,6.0833,6.0923,6.0923,6.1049,6.1093,6.1093,6.1093,6.1093,6.1093,6.1093,6.1093,6.1093,6.1093,6.1343,6.1768,6.1307,6.1093,6.1093,6.1093,6.1361,6.1768,6.1768,6.1768,6.1768,6.1768,6.1504,6.1147,6.1626,6.2,6.2322,0.0,0.0,0.0,0.0,0.0,0.0,0.0,0.0,0.0,0.0,0.0,0.0,0.0,0.0,0.0,0.0,0.0,0.0,0.0,0.0,0.0,4.4907,4.5225,4.5647,4.6196,4.6196,4.6196,4.6196,0.0,0.0,4.6196,4.6196,4.6302,0.0,4.7345,4.7783,0.0,4.9429,4.9991,5.0079,5.0855,5.1505,5.1965,5.161,5.1821,5.2299,5.2299,5.2804,5.3573,5.4121,5.4826,5.5493,5.5493,5.5493,0.0,0.0,0.0,5.6087,5.7438,5.8678,5.9667,5.9956,6.0025,5.9977,5.9797,5.9864,5.9945,5.9812,5.9927,6.0041,6.0089,6.0089,6.0089,6.0089,6.0089,6.0089,6.0089,6.0089,6.0089,6.0089,6.0218,6.0315,6.0315,6.0456,6.055,6.055,6.0668,6.0755,6.08,6.0938,6.1049,6.1093,6.1093,6.1093,6.1093,6.1289,6.1397,6.1414,6.1593,6.2003,6.2571,6.195,6.1682,6.1664,6.1486,6.1843,6.2589,6.2589,6.2464,6.2322,6.2518,6.2107,6.1504,6.2286,6.2589,6.2661,0.0,0.0,0.0,0.0,0.0,0.0,0.0,0.0,0.0,0.0,0.0,0.0,0.0,0.0,4.0888,4.0912,4.1538,4.2372,4.3365,4.4284,4.4866,4.5086,4.5758,0.0,4.6196,4.6196,4.6196,4.6196,0.0,0.0,4.6196,4.6196,4.6612,4.7362,4.8104,4.8872,4.964,0.0,0.0,0.0,5.1632,5.1965,5.207,5.2801,5.3099,5.3134,5.3134,5.3612,5.4261,5.4296,5.4826,5.5493,5.5493,5.5493,5.5493,0.0,0.0,0.0,5.7579,5.8406,5.9166,5.9687,5.9812,5.9781,5.9653,5.9621,5.9669,5.9781,5.9812,5.9861,6.0057,6.0089,6.0089,6.0089,6.0089,6.0089,6.0089,6.0089,6.0089,6.0089,6.0105,6.0123,6.0123,6.0299,6.0411,6.0411,6.0534,6.0668,6.08,6.0815,6.0908,6.1093,6.1093,6.1093,6.1093,6.1875,6.2232,6.225,6.2946,6.3303,6.3339,6.3303,6.3285,6.325,6.2536,6.2661,6.3339,6.3339,6.2928,6.2375,6.3071,6.2893,6.2322,6.3071,6.3339,6.3357,0.0,0.0,0.0,0.0,0.0,0.0,0.0,0.0,0.0,0.0,0.0,0.0,0.0,4.1674,4.1941,4.246,4.2853,4.3455,4.4336,4.479,4.526,4.5775,4.6056,4.6196,4.6196,4.6196,4.6196,0.0,0.0,4.6196,4.6196,4.6196,4.6881,4.8122,4.8385,4.896,4.9745,5.0553,0.0,5.1632,5.1895,5.2579,5.3471,5.3275,5.3485,5.391,5.391,5.4086,5.4384,5.4896,5.5265,5.5493,5.5493,5.5493,5.5493,5.5493,5.5959,5.6668,5.7566,5.8275,5.8878,5.9206,5.9545,5.9625,5.8992,5.9303,5.9601,5.9182,5.93,5.9501,5.9567,5.988,6.0089,6.0089,6.0089,6.0089,6.0089,6.0089,6.0089,6.0089,6.0089,6.0089,6.0089,6.0171,6.0202,6.0202,6.0378,6.0487,6.0547,6.0622,6.0727,6.0908,6.0908,6.0971,6.1093,6.1379,6.1804,6.2304,6.2571,6.3199,6.4144,6.316,6.3234,6.4109,6.2842,6.2714,6.341,6.341,6.325,6.3036,6.3303,6.325,6.3107,6.3877,6.418,6.4251,0.0,0.0,0.0,0.0,0.0,0.0,0.0,0.0,0.0,0.0,0.0,0.0,0.0,0.0,4.2975,4.3756,4.3955,4.4396,4.5213,4.5393,4.57,4.6179,4.6196,4.6196,4.6196,4.6196,4.6196,4.6196,4.6196,4.6337,0.0,4.6612,4.742,4.8894,4.8894,4.9346,0.0,5.0676,5.1171,5.1681,5.219,5.2857,5.3527,5.3559,5.3875,5.4279,5.4015,5.4261,5.4738,5.5001,5.541,5.5766,5.5566,5.5493,5.5493,5.5493,5.5769,5.6355,5.7496,5.7987,5.8337,5.8878,5.9027,5.8949,5.8524,5.878,5.9022,5.8737,5.8909,5.9081,5.8995,5.9351,5.9732,6.0041,6.0089,6.0089,6.0089,6.0089,6.0057,5.9945,5.9928,5.988,5.9732,5.9732,5.9799,5.9928,6.0059,6.0204,6.0396,6.0472,6.0607,6.08,6.0878,6.0971,6.1093,6.1361,6.1896,6.2679,6.2946,6.3609,6.4575,6.3538,6.3484,6.4162,6.3395,6.3341,6.3805,6.3805,6.3805,6.3823,6.4091,6.4037,6.3895,6.4715,6.5003,6.5074,0.0,0.0,0.0,0.0,0.0,0.0,0.0,0.0,0.0,4.3086,0.0,0.0,0.0,0.0,0.0,4.4674,4.4744,4.5095,4.5945,4.6122,4.6196,4.6196,4.6196,4.6196,4.6196,4.6196,4.6196,4.6196,4.6214,4.663,4.741,4.7427,4.8235,4.9693,4.9693,5.0149,5.0904,5.0904,5.0922,5.108,5.259,5.2765,5.2228,5.3755,5.4349,5.4244,5.352,5.4244,5.5405,5.4633,5.5266,5.6278,5.5694,5.5493,5.5493,5.5493,0.0,0.0,0.0,0.0,0.0,5.8666,5.829,5.7758,5.8321,5.8066,5.7895,5.8496,5.865,5.8597,5.8405,5.8527,5.8978,5.9895,6.0057,6.0075,6.0057,6.0057,5.9945,5.9618,5.9585,5.9436,5.9047,5.8995,5.9166,5.9569,5.9602,5.9832,6.0364,6.0396,6.0516,6.0785,6.0986,6.1111,6.1129,6.1911,6.2679,6.3446,6.4234,6.461,6.4628,6.461,6.418,6.3482,6.4251,6.4575,6.4593,6.4593,6.4593,6.4682,6.5465,6.5304,6.4717,6.5518,6.5804,6.5804,0.0,0.0,0.0,0.0,0.0,0.0,0.0,0.0,4.3096,0.0,0.0,0.0,4.4331,4.4963,4.5456,4.5765,4.5782,4.5882,4.6135,4.6172,4.6196,4.6196,4.6196,4.6196,4.6196,4.6196,4.6196,4.6196,4.677,4.7187,4.7397,4.7959,4.8731,4.9693,4.9693,5.0149,5.0904,5.0904,5.1207,5.1786,5.2801,5.3398,5.3773,5.4773,5.5159,5.5142,5.4946,5.5416,5.6116,5.5904,5.6084,5.6278,5.5694,5.5493,0.0,5.5493,0.0,0.0,5.699,0.0,0.0,0.0,0.0,0.0,5.7038,5.7551,5.7959,5.7084,5.7421,5.7883,5.7828,5.7865,5.8118,5.8771,5.9115,5.925,5.9115,5.9199,5.9267,5.9183,5.9166,5.9115,5.9012,5.8995,5.9166,5.9569,5.9602,5.9766,6.0155,6.0315,6.0472,6.0638,6.0803,6.1238,6.1965,6.2197,6.2964,6.4271,6.4485,6.4896,6.5447,6.486,6.4468,6.4251,6.3895,6.4055,6.4593,6.4593,6.4593,6.461,6.4842,6.5145,6.55,6.5732,6.5804,6.5804,0.0,0.0,0.0,0.0,0.0,0.0,4.3002,4.3536,4.4014,0.0,0.0,0.0,4.5269,4.5735,4.6048,4.6184,4.6147,4.6135,4.6214,4.6196,4.6196,4.6196,4.6196,4.6196,4.6196,4.6196,4.6354,4.67,4.7169,4.7743,4.8376,4.8802,4.9434,5.0202,0.0,0.0,0.0,5.1224,5.1435,5.1645,5.2748,5.326,5.3457,5.458,5.4957,5.4966,5.5266,5.5771,5.633,5.6662,5.6798,5.679,5.6368,5.6352,5.6388,5.6069,5.6322,0.0,0.0,0.0,0.0,5.7582,0.0,0.0,5.6769,5.7145,5.7446,5.6783,5.7083,5.742,5.7252,5.7289,5.7422,5.7665,5.8029,5.8386,5.865,5.8875,5.8944,5.8823,5.8788,5.8736,5.8562,5.8527,5.8702,5.9115,5.9268,5.9585,6.0073,6.0283,6.0615,6.1089,6.1224,6.1765,6.275,6.2768,6.3377,6.4593,6.4593,6.468,6.4787,6.4646,6.4236,6.3663,6.3823,6.418,6.4628,6.4949,6.5092,6.5092,6.5092,6.5393,6.5804,6.5804,6.5804,6.5804,0.0,0.0,0.0,4.1805,4.2109,4.276,4.4456,4.4714,4.4997,0.0,4.5871,4.5947,4.6172,4.6085,4.606,4.6184,4.6085,4.6073,4.6184,4.6196,4.6196,4.6196,4.6196,4.6196,4.6196,4.6284,4.6683,4.741,4.7568,4.8358,4.9693,4.9798,5.0219,5.0904,0.0,0.0,0.0,5.1821,5.1737,5.1246,5.2702,5.2864,5.2393,5.3951,5.4446,5.4421,5.5187,5.5831,5.6439,5.7153,5.7458,5.747,5.7203,5.7346,5.7462,5.6657,5.661,0.0,0.0,0.0,0.0,5.7285,5.6779,0.0,5.7003,5.6781,5.6534,5.6902,5.7018,5.6907,5.6547,5.6659,5.6735,5.6544,5.6896,5.7505,5.8386,5.8702,5.8736,5.8437,5.8419,5.8277,5.7936,5.79,5.8081,5.8508,5.8909,5.9401,6.0057,6.0267,6.0811,6.176,6.1918,6.2464,6.352,6.352,6.393,6.4735,6.4735,6.4358,6.3696,6.4412,6.4002,6.2768,6.4144,6.4735,6.4789,6.5518,6.5804,6.5804,6.5804,6.5804,6.5804,6.5804,6.5804,6.5804,0.0,0.0,0.0,4.1974,4.2789,4.364,4.4693,4.5528,4.6089,4.6254,4.6272,4.6265,4.6209,4.6172,4.6159,4.6196,4.6172,4.6159,4.6196,4.6196,4.6196,4.6196,4.6196,4.6196,4.6196,4.6823,4.7239,4.741,4.8639,4.9412,4.971,5.036,5.0746,5.0939,5.1523,5.179,5.1842,5.2642,5.2786,5.2603,5.3547,5.383,5.3848,5.5402,5.5872,5.5837,5.6728,5.7371,5.7809,5.7965,5.7834,5.7393,5.6268,5.6154,5.6282,5.5527,5.5786,5.6269,5.5941,5.5747,5.5753,5.6126,5.6096,0.0,5.6125,5.6096,5.5825,5.519,5.5183,5.5275,5.5183,5.5347,5.5474,5.5419,5.5977,5.662,5.7245,5.7645,5.7863,5.779,5.7918,5.7989,5.7917,5.79,5.8171,5.884,5.9518,5.9945,6.0089,6.0139,6.065,6.1777,6.1827,6.2639,6.4343,6.4376,6.4771,6.5572,6.5572,6.5482,6.534,6.55,6.5393,6.5126,6.5447,6.5572,6.559,6.5732,6.5804,6.5804,6.5804,6.5804,6.5804,6.5804,6.5804,6.5804,0.0,4.0918,4.1346,4.2633,4.3244,4.4009,4.5352,4.5916,4.6247,4.6369,4.6332,4.6296,4.6289,4.6246,4.6196,4.6196,4.6196,4.6196,4.6196,4.6196,4.6196,4.6196,4.6196,4.6196,4.6196,4.6993,4.7573,4.7959,4.9131,4.9903,5.0307,5.0711,5.106,5.136,5.1411,5.1818,5.2467,5.2986,5.3355,5.3623,5.3955,5.4283,5.468,5.5828,5.6365,5.6657,5.7553,5.8171,5.8579,5.841,5.8256,5.793,5.6696,5.6731,5.7089,5.6372,5.6507,5.6837,5.6533,5.6241,5.6102,5.626,5.6302,0.0,0.0,5.6001,5.5714,5.5622,5.5378,5.5304,5.5688,5.5904,5.5998,5.5921,5.6296,5.6684,5.6956,5.7252,5.7458,5.7458,5.7625,5.7753,5.7753,5.7827,5.8378,5.9513,5.9941,6.0309,6.067,6.1037,6.1602,6.2362,6.2767,6.3655,6.5181,6.5215,6.5411,6.5804,6.5804,6.559,6.5217,6.5625,6.559,6.5217,6.5625,6.5804,6.5804,6.5804,6.5804,6.5804,6.5804,6.5804,6.5788,6.5691,6.5641,6.5641,4.1128,0.0,4.187,4.3286,4.367,4.4324,4.5939,4.6149,4.6198,4.6459,4.6498,4.6537,4.661,4.6646,4.6635,4.6635,4.6635,4.6582,4.6442,4.6425,4.6412,4.6387,4.6412,4.6482,4.6598,4.742,4.8135,4.8736,4.9552,5.0254,5.0904,5.0904,5.1156,5.1626,5.1387,5.1899,5.297,5.3389,5.3876,5.444,5.4438,5.4682,5.5129,5.6001,5.6621,5.712,5.8022,5.8631,5.8927,5.846,5.8389,5.8321,5.7047,5.7298,5.793,5.72,5.7098,5.7202,5.7202,5.6746,5.6299,5.6448,5.6481,5.6534,0.0,0.0,0.0,5.6365,5.5921,5.5625,5.6207,5.6495,5.6521,5.6236,5.6528,5.6737,5.6606,5.6917,5.7233,5.7346,5.7476,5.7569,5.7643,5.7863,5.8587,5.9979,6.022,6.0599,6.1268,6.1985,6.2624,6.3144,6.3761,6.4633,6.5722,6.5788,6.5804,6.5804,6.5804,6.5465,6.4842,6.55,6.5447,6.486,6.5518,6.5788,6.574,6.574,6.574,6.5707,6.5772,6.5788,6.5722,6.556,6.5477,6.5446,4.1209,4.1772,0.0,4.3511,4.4263,4.5075,4.6044,4.6386,4.659,4.6749,4.7263,4.7584,4.7486,4.7917,4.8232,4.8232,4.8232,4.7964,4.7309,4.7257,4.7211,4.7089,4.7199,4.7509,4.8046,4.8978,4.9482,4.9552,5.0377,5.0816,5.0904,5.0904,5.0943,5.1039,5.2176,5.287,5.3232,5.4336,5.4844,5.4968,5.5494,5.5483,5.5311,5.6673,5.7107,5.7173,5.8442,5.8944,5.8841,5.7861,5.7733,5.7664,5.5866,5.6039,5.6742,5.6008,5.5802,5.5828,5.5828,5.531,5.4906,5.5568,5.5717,5.5899,5.6547,0.0,5.5617,5.5717,0.0,5.4918,5.5002,0.0,0.0,5.4421,5.5262,5.5786,5.5155,5.6039,5.6968,5.7514,5.742,5.7476,5.7827,5.8206,5.8771,5.9607,6.0283,6.0835,6.1284,6.1985,6.2787,6.3672,6.3962,6.455,6.5526,6.5706,6.5804,6.5804,6.5804,6.575,6.5679,6.5768,6.575,6.5679,6.5768,6.569,6.5526,6.5526,6.5462,6.5398,6.5691,6.569,6.5544,6.5511,6.543,6.5332,4.1352,4.2089,0.0,4.3787,4.466,4.5546,4.6412,4.6714,4.6853,4.6911,4.7506,4.7896,4.7848,4.8352,4.8667,4.8667,4.8577,4.856,4.8727,4.8328,0.0,4.8636,4.8254,4.8149,4.8399,4.9267,4.9693,4.9693,5.0518,5.0904,5.0904,5.0904,5.1095,5.1441,5.2015,5.2741,5.3585,5.4097,5.482,5.5655,5.5906,5.6194,5.6514,5.7323,5.7851,5.8234,5.8805,5.8995,5.8858,5.7991,5.779,5.7689,5.6421,5.6352,5.665,5.6332,5.6249,5.6249,5.6249,5.5922,5.5699,5.6128,5.6153,5.6178,5.6594,5.6133,5.5717,5.615,0.0,0.0,0.0,0.0,0.0,0.0,5.6119,5.6437,5.6121,5.6433,5.6834,5.7214,5.7289,5.7551,5.8188,5.8188,5.8715,6.0127,6.0339,6.0857,6.1881,6.2669,6.3314,6.378,6.434,6.488,6.538,6.548,6.5513,6.5513,6.5513,6.5562,6.5625,6.5625,6.5625,6.5625,6.5625,6.5528,6.538,6.538,6.5347,6.5299,6.5197,6.5247,6.5347,6.4995,6.4825,6.4723,4.1892,0.0,4.3599,4.434,4.5216,4.6017,4.6695,4.7147,4.7392,4.7342,4.8181,4.8734,4.8638,4.9114,4.9426,4.9426,4.9442,4.9613,5.0009,4.9714,4.9754,5.0254,4.9548,4.9249,4.9403,4.9864,5.0066,5.0026,5.0663,5.0931,5.0904,5.0904,5.1134,5.157,5.1948,5.2648,5.3594,5.4131,5.5021,5.6079,5.6449,5.7011,5.7641,5.7771,5.8306,5.8995,5.8909,5.8858,5.8737,5.7825,5.7585,5.7498,5.6544,5.6376,5.6541,5.6541,5.6541,5.6561,5.6603,5.6522,5.6444,5.6641,5.66,5.6522,5.6677,5.6282,5.6048,5.6581,5.6266,0.0,0.0,0.0,5.6806,5.647,0.0,5.6844,5.6644,5.6718,5.6853,5.7063,5.7252,5.7662,5.8349,5.8206,5.8713,6.0267,6.0357,6.0945,6.2337,6.316,6.3738,6.4048,6.468,6.5064,6.5216,6.5266,6.5299,6.5299,6.5299,6.5364,6.5494,6.5494,6.5544,6.5576,6.551,6.543,6.5299,6.5249,6.5199,6.5098,6.4688,6.4706,6.4911,6.4411,6.4217,6.4128,4.3045,4.37,4.4496,4.5315,4.6059,4.6631,4.6784,4.7735,4.8385,4.8198,4.9656,5.0588,5.0258,5.0698,5.1021,5.1021,5.1538,5.161,5.0922,5.1523,5.184,5.1749,5.1156,5.1099,5.1682,5.1274,5.099,5.0869,5.1008,5.1025,5.0904,5.0904,5.0922,5.0996,5.2284,5.2895,5.3058,5.5023,5.5854,5.6027,5.7319,5.8084,5.8407,5.7844,5.8187,5.8961,5.8631,5.8525,5.8317,5.6982,5.6761,5.6813,5.5468,5.5552,5.6126,5.6126,5.6126,5.6165,5.6366,5.6405,5.6444,5.6641,5.6697,5.668,5.6699,5.6683,5.6683,5.6699,5.6683,5.6683,5.6699,5.6716,5.6484,0.0,0.0,0.0,0.0,5.6421,5.7063,5.7271,5.7476,5.7753,5.817,5.8367,5.8806,5.957,6.0282,6.1182,6.2354,6.316,6.3934,6.4653,6.4877,6.4997,6.5013,6.5198,6.5299,6.5299,6.5299,6.5364,6.5494,6.5494,6.5609,6.5788,6.5593,6.543,6.5282,6.5081,6.4895,6.4672,6.4288,6.4146,6.4111,6.3896,6.375,6.3619,4.476,4.5109,4.5354,4.5588,4.6252,4.6979,4.7745,4.8043,4.8424,4.9105,4.9943,5.0428,5.0322,5.1211,5.1828,5.1828,5.2413,5.2892,5.3138,5.281,5.2813,5.3294,5.252,5.1999,5.1812,5.1727,5.1423,5.0904,5.1025,5.1025,5.0904,5.0904,5.0904,5.0961,5.2302,5.3117,5.3609,5.5222,5.6413,5.7303,5.8016,5.7926,5.7404,5.7677,5.8003,5.826,5.8135,5.8026,5.7793,5.7063,5.6825,5.6685,5.5949,5.5909,5.6106,5.6106,5.6106,5.6106,5.6185,5.6106,5.6086,5.6424,5.6405,5.6366,5.6641,5.6699,5.6661,5.6522,5.6619,5.6658,5.6522,5.6619,0.0,0.0,0.0,0.0,0.0,5.6589,5.693,5.7252,5.7588,5.7971,5.8349,5.8455,5.8823,5.9535,5.9829,6.0466,6.16,6.2389,6.3161,6.3951,6.4512,6.4809,6.4809,6.4878,6.4912,6.4912,6.4912,6.4997,6.5181,6.5298,6.5397,6.548,6.5495,6.5347,6.5115,6.503,6.4723,6.427,6.3912,6.3602,6.3361,6.3305,6.323,6.3153,4.5757,4.6083,4.6224,4.6101,4.6799,4.7692,4.8641,4.8987,4.931,4.9782,5.0418,5.08,5.0736,5.1613,5.2212,5.2284,5.3074,5.3787,5.4279,5.3941,5.3958,5.4482,5.3604,5.2901,5.2515,5.2187,5.1744,5.1212,5.1139,5.1025,5.0904,5.1171,5.1294,5.1347,5.2761,5.3707,5.432,5.5772,5.6983,5.7927,5.8095,5.7612,5.6804,5.7217,5.7382,5.7435,5.7524,5.7458,5.7233,5.6875,5.6583,5.6326,5.595,5.585,5.585,5.585,5.585,5.587,5.5966,5.5903,5.5903,5.6287,5.6248,5.6185,5.6522,5.6541,5.6444,5.6326,5.6463,5.6541,5.6326,5.6522,5.6677,0.0,0.0,0.0,0.0,5.6872,5.7044,5.7364,5.7569,5.79,5.8455,5.8596,5.8944,5.9552,5.97,6.0213,6.1249,6.1739,6.2511,6.3582,6.4056,6.4426,6.4706,6.4706,6.4706,6.4706,6.4706,6.4809,6.4997,6.5216,6.5332,6.5382,6.5462,6.538,6.5181,6.5114,6.4826,6.4376,6.3876,6.3473,6.3172,6.2904,6.2789,6.2751,4.6104,4.6702,4.7171,4.7054,4.7839,4.8722,4.947,5.0479,5.0931,5.0275,5.1171,5.1778,5.1571,5.2006,5.2362,5.2484,5.363,5.4352,5.4352,5.4871,5.5184,5.5184,5.4323,5.3818,5.3798,5.2676,5.2022,5.185,5.1419,5.1148,5.1027,5.1719,5.2053,5.2123,5.3632,5.4565,5.5137,5.6615,5.7483,5.7826,5.7648,5.7197,5.6592,5.6447,5.6388,5.6452,5.6834,5.6834,5.6622,5.6375,5.6037,5.5742,5.5487,5.5389,5.5389,5.5389,5.5389,5.5466,5.5742,5.5802,5.5886,5.6303,5.6228,5.6145,5.6346,5.6244,5.6106,5.6086,5.6244,5.6326,5.6145,5.6424,5.6638,0.0,0.0,0.0,5.6968,5.7176,5.7383,5.7569,5.7439,5.7625,5.8401,5.8789,5.9149,5.9535,5.9912,6.0439,6.1195,6.1265,6.2002,6.3477,6.3565,6.3951,6.4689,6.4706,6.4706,6.4706,6.4706,6.4809,6.4997,6.5181,6.5347,6.5477,6.5511,6.5494,6.5477,6.5347,6.5148,6.4878,6.4145,6.3747,6.3503,6.271,6.24,6.24,4.7586,4.8262,4.9076,5.018,4.9814,4.968,5.0552,5.0682,5.0892,5.1513,5.209,5.2397,5.2183,5.326,5.3933,5.3831,5.4522,5.4962,5.4962,5.4933,5.4902,5.4902,5.4541,5.4114,5.3647,5.3544,5.3203,5.2615,5.2751,5.2746,5.2607,5.2801,5.2888,5.2927,5.3763,5.4682,5.563,5.6174,5.6641,5.7024,5.7281,5.6597,5.5492,5.5991,5.5765,5.5284,5.6219,5.6326,5.6026,5.595,5.573,5.5487,5.5409,5.5389,5.5389,5.5389,5.5389,5.5466,5.5742,5.5802,5.5863,5.6106,5.6145,5.6106,5.6165,5.6145,5.6066,5.5923,5.6046,5.6165,5.6106,5.6323,5.6502,5.6619,0.0,5.693,5.6987,5.7176,5.7383,5.7569,5.7551,5.7662,5.8026,5.8632,5.9047,5.9149,5.9881,6.0355,6.0388,6.1062,6.1852,6.2686,6.3301,6.3951,6.4689,6.4706,6.4706,6.4706,6.4706,6.4724,6.4792,6.498,6.5182,6.5365,6.5462,6.5494,6.5511,6.5462,6.4927,6.4128,6.4484,6.4167,6.3418,6.2679,6.24,6.24,4.8286,4.9382,5.0466,5.1241,5.1106,5.1025,5.1429,5.1496,5.1654,5.208,5.2652,5.2989,5.2931,5.3848,5.4414,5.4314,5.4851,5.5184,5.5126,5.4917,5.4813,5.4813,5.4623,5.4336,5.4013,5.4192,5.3975,5.3285,5.3581,5.352,5.3204,5.3538,5.3678,5.3699,5.4387,5.5179,5.5955,5.6336,5.6382,5.6271,5.6684,5.6183,0.0,5.578,5.5582,5.5112,5.5879,5.5927,5.5625,5.5625,5.5527,5.5409,5.5527,5.5568,5.5588,5.5669,5.5629,5.5625,5.5866,5.5863,5.5883,5.6165,5.6165,5.6106,5.6106,5.6026,5.5906,5.5665,5.5806,5.5927,5.581,5.6129,5.6502,5.6776,5.693,5.7025,5.712,5.7308,5.7476,5.7588,5.768,5.7772,5.7881,5.8579,5.8995,5.8995,5.9865,6.0283,5.9975,6.064,6.1335,6.1994,6.2702,6.3442,6.4214,6.4531,6.4706,6.4706,6.4706,6.4706,6.4706,6.4912,6.5047,6.5181,6.5413,6.5363,6.5146,6.5213,6.4671,6.3857,6.4358,6.432,6.3937,6.3514,6.2939,6.24,4.8834,5.0292,5.1425,5.1279,5.1907,5.2353,5.2137,5.2495,5.2682,5.2421,5.3086,5.3621,5.3718,5.4183,5.4486,5.4472,5.4904,5.5139,5.5007,5.4871,5.4797,5.4764,5.459,5.4563,5.4634,5.479,5.4599,5.4091,5.4306,5.4084,5.352,5.4156,5.4472,5.4492,5.5133,5.5632,5.5999,5.6593,5.6348,5.5597,5.6072,5.5921,5.5426,5.5665,5.5604,5.5446,5.5706,5.5625,5.5409,5.5446,5.545,5.5507,5.5762,5.5843,5.5883,5.6046,5.5983,5.5883,5.6086,5.6006,5.5947,5.6307,5.6284,5.6126,5.6066,5.5943,5.5726,5.5507,5.5645,5.5726,5.5568,5.6033,5.6616,5.7161,5.7187,5.7176,5.7327,5.7551,5.7717,5.7717,5.7863,0.0,5.7989,5.8632,5.903,5.8995,5.9897,6.025,5.9861,6.0186,6.0732,6.1458,6.2085,6.2792,6.3583,6.432,6.4706,6.4706,6.4706,6.4706,6.4706,6.4878,6.498,6.5013,6.5314,6.5164,6.4705,6.4824,6.4533,6.4042,6.413,6.4412,6.4749,6.4749,6.3869,6.2705,5.0748,5.1522,5.1939,5.2139,5.2394,5.2592,5.2656,5.2648,5.2816,5.3285,5.4054,5.4493,5.4363,5.5008,5.5411,5.5297,5.5219,5.5139,5.5007,5.4871,5.4733,5.4559,5.4512,5.4772,5.5392,5.5585,5.569,5.569,5.5909,5.5677,5.5104,5.5229,5.5282,5.5267,5.5152,5.5122,5.5233,5.5836,5.5842,5.5474,5.5961,5.585,5.5409,5.545,5.5446,5.5446,5.5706,5.5625,5.543,5.5665,5.5742,5.5782,5.5986,5.6046,5.6046,5.6086,5.6086,5.6086,5.6287,5.6326,5.6307,5.6385,5.6366,5.6248,5.5943,5.5823,5.5782,5.5742,5.5762,5.5903,5.6169,5.6463,5.7091,5.8435,5.8142,5.7698,5.7569,5.8007,5.8331,5.8331,5.8367,5.8384,5.8384,5.8909,5.9183,5.9012,5.9977,6.0407,6.0073,6.0283,6.0685,6.1314,6.2036,6.2792,6.3583,6.432,6.4706,6.4706,6.4706,6.4706,6.4706,6.4741,6.4844,6.4997,6.5064,6.4945,6.4688,6.4722,6.4913,6.516,6.4687,6.4911,6.5514,6.5514,6.4952,6.4208,5.1168,5.1777,5.2234,5.2642,5.2653,5.2852,5.3561,5.3563,5.3653,5.4055,5.4783,5.5217,5.5128,5.5408,5.5505,5.5267,5.5141,5.499,5.4745,5.4684,5.4763,5.5047,5.5065,5.5427,5.6219,5.6697,5.6652,5.6105,5.6601,5.6405,5.5493,5.5493,5.5446,5.5341,5.5111,5.4786,5.4471,5.5221,5.5344,5.5068,5.5543,5.5608,5.5389,5.5389,5.5389,5.5426,5.5564,5.5507,5.5446,5.5706,5.5802,5.5843,5.6026,5.6185,5.6284,5.6385,5.6346,5.6287,5.6502,5.6483,5.6424,5.6541,5.6483,5.6326,5.6026,5.5963,5.5943,5.5823,5.5883,5.6129,5.6705,5.7232,5.7863,5.8699,5.8895,5.8776,5.8384,5.8579,5.8771,5.8771,5.8771,5.8806,5.8892,5.9401,5.9451,5.8788,5.9895,6.0423,5.9975,6.0218,6.054,6.0815,6.1841,6.2599,6.2985,6.4127,6.4706,6.4706,6.4706,6.4706,6.4706,6.4706,6.474,6.4861,6.4946,6.4672,6.4092,6.3695,6.4105,6.5002,6.4718,6.5273,6.6271,6.6271,6.6051,6.5645,5.1428,5.1981,5.2491,5.3024,5.3037,5.3289,5.4306,5.4483,5.4559,5.4707,5.5264,5.5634,5.5604,5.5505,5.5326,5.5083,5.5022,5.4869,5.4575,5.4559,5.4871,5.5565,5.5599,5.6047,5.7012,5.7548,5.7388,5.6466,5.6983,5.66,5.5371,5.5463,5.5397,5.5201,5.498,5.4599,5.4151,5.4809,5.4973,5.4809,5.5179,5.5348,5.5405,5.5364,5.5348,5.5409,5.5466,5.5446,5.5446,5.5746,5.5863,5.5903,5.6106,5.6307,5.6502,5.6641,5.66,5.6502,5.6658,5.6583,5.6502,5.6658,5.658,5.6405,5.6225,5.6228,5.6244,5.6086,5.6307,5.6793,5.7705,5.8165,5.8557,5.9063,5.9495,5.9598,5.9082,5.9064,5.9132,5.9132,5.9132,5.9183,5.9351,5.9847,5.9782,5.8858,5.9911,6.0374,5.9877,6.0202,6.0396,6.0396,6.1729,6.2455,6.2455,6.3951,6.4706,6.4706,6.4706,6.4706,6.4706,6.4706,6.4637,6.4585,6.474,6.4305,6.3433,6.2693,6.3176,6.4377,6.4546,6.5408,6.6592,6.6724,6.6791,6.6622,5.2396,5.271,5.2923,5.3446,5.3866,5.4181,5.4293,5.4758,5.5124,5.5154,5.5363,5.5446,5.5259,5.5244,5.5214,5.5184,5.5066,5.4948,5.478,5.4764,5.5015,5.5581,5.5599,5.6289,5.7771,5.7688,5.7671,5.7735,5.7261,5.633,5.4957,5.5326,5.5386,5.5182,5.4686,5.459,5.4814,5.4764,5.4866,5.5058,5.5102,5.5241,5.5369,5.5196,5.5241,5.543,5.5681,5.5604,5.547,5.5927,5.6066,5.6106,5.6307,5.6502,5.6677,5.668,5.668,5.6677,5.668,5.668,5.6677,5.6697,5.668,5.6622,5.6424,5.6641,5.6911,5.6891,5.7443,5.8361,5.984,5.9165,5.8854,6.0287,5.9871,5.9269,5.903,5.9301,5.9535,5.9535,5.9535,5.9552,5.9569,6.006,6.0171,5.9715,6.0248,6.0454,6.0089,6.0283,6.0396,6.0396,6.1878,6.2671,6.2671,6.4019,6.4706,6.4706,6.4706,6.4706,6.4706,6.4706,6.4515,6.4146,6.4181,6.375,6.3021,6.2576,6.2871,6.3663,6.4343,6.5087,6.5865,6.6559,6.6791,6.6774,5.2214,5.2609,5.3063,5.3725,5.3926,5.4146,5.4648,5.4919,5.5005,5.4805,5.5022,5.5159,5.5081,5.5081,5.5005,5.479,5.473,5.4637,5.4464,5.4448,5.4998,5.6271,5.6322,5.6997,5.8411,5.8359,5.8119,5.7723,5.7116,5.6346,5.5432,5.5589,5.5528,5.5245,5.4992,5.4764,5.4572,5.4826,5.4917,5.4922,5.4922,5.4964,5.5031,5.5072,5.5155,5.5241,5.5466,5.5487,5.543,5.5629,5.587,5.6145,5.6326,5.6541,5.6699,5.6699,5.6699,5.6699,5.6699,5.6699,5.6757,5.7006,5.6968,5.6949,5.72,5.7351,5.75,5.7646,5.7994,5.8595,5.9563,5.965,5.9754,6.027,6.0425,6.0307,5.9736,5.9799,5.9896,5.9896,5.9896,5.9962,6.0076,6.0267,6.0331,6.0171,6.0362,6.0456,6.0407,6.0282,6.0283,6.0396,6.1779,6.2522,6.2522,6.3968,6.4706,6.4706,6.4706,6.4706,6.4689,6.4463,6.4128,6.3785,6.3547,6.3268,6.2981,6.2557,6.3091,6.4191,6.4478,6.5324,6.6406,6.6673,6.6791,6.6791,5.2505,5.2903,5.3457,5.4181,5.4216,5.4335,5.4861,5.4884,5.4761,5.4527,5.4652,5.4792,5.4853,5.4917,5.4824,5.4527,5.4448,5.4335,5.4159,5.4191,5.4941,5.6636,5.6705,5.7378,5.8771,5.8666,5.8357,5.7774,5.7157,5.6552,5.5909,5.5619,5.5501,5.5541,5.5284,5.4914,5.4475,5.4909,5.4927,5.4692,5.4692,5.4734,5.4813,5.4964,5.5047,5.5134,5.5323,5.5389,5.5409,5.5568,5.583,5.6126,5.6284,5.6502,5.6699,5.6699,5.6699,5.6699,5.6699,5.6834,5.7025,5.7327,5.7404,5.7517,5.7903,5.8067,5.8245,5.8528,5.872,5.8961,5.9451,5.9952,6.0278,6.0129,6.0581,6.0739,6.0177,6.0089,6.0089,6.0089,6.0089,6.0155,6.0299,6.0299,6.0348,6.0396,6.0589,6.0672,6.0552,6.0331,6.0371,6.0809,6.1901,6.2545,6.2621,6.4022,6.4637,6.4533,6.4637,6.4637,6.4515,6.4003,6.3657,6.3397,6.2983,6.2811,6.2808,6.2518,6.3007,6.3971,6.4191,6.5053,6.6187,6.6406,6.6626,6.6791,5.3681,5.3895,5.4199,5.4866,5.499,5.4946,5.4826,5.4622,5.4512,5.4496,5.4335,5.4287,5.4478,5.4686,5.4717,5.4512,5.4319,5.4159,5.4013,5.4127,5.4893,5.6454,5.6505,5.7226,5.8771,5.8419,5.8206,5.8189,5.76,5.6935,5.6184,5.5179,5.5206,5.6062,5.5478,5.5049,5.4797,5.501,5.4827,5.4396,5.4396,5.4555,5.4792,5.4792,5.4922,5.5134,5.5323,5.5389,5.547,5.5947,5.6106,5.6106,5.6106,5.6366,5.6699,5.6699,5.6699,5.6699,5.6699,5.7139,5.7588,5.7588,5.7993,5.8369,5.8387,5.8702,5.9149,5.9666,5.978,5.9862,6.0057,6.0107,6.0107,6.0089,6.0107,6.0107,6.0089,6.0089,6.0089,6.0089,6.0089,6.0089,6.0105,6.0105,6.0186,6.0396,6.1065,6.1169,6.0431,6.0396,6.0809,6.176,6.2379,6.2858,6.3188,6.4182,6.4498,6.4111,6.4515,6.4498,6.4075,6.3343,6.3002,6.2983,6.2576,6.2417,6.2417,6.24,6.2398,6.2502,6.3223,6.3967,6.4715,6.5425,6.617,6.6791,5.3508,5.3973,5.4373,5.4443,5.4573,5.4589,5.4415,5.4335,5.4255,5.4159,5.4094,5.4045,5.3964,5.4223,5.4271,5.398,5.3915,5.3832,5.38,5.4425,5.5309,5.6454,5.6969,5.7655,5.8579,5.8331,5.8134,5.8007,5.744,5.7034,5.6778,5.5871,5.5836,5.6469,5.5693,5.5199,5.5005,5.4922,5.4697,5.4375,5.4242,5.4253,5.4375,5.4687,5.4854,5.4943,5.5282,5.5389,5.545,5.5786,5.6003,5.6126,5.6248,5.6483,5.6699,5.6699,5.6699,5.6757,5.7044,5.7252,5.7532,5.808,5.8813,5.9389,5.9253,5.9485,5.9797,5.9977,5.9991,6.0025,6.0089,6.0089,6.0089,6.0089,6.0089,6.0089,6.0089,6.0089,6.0089,6.0089,6.0089,6.0089,6.0089,6.0089,6.0349,6.0977,6.0843,6.0735,6.0668,6.098,6.1402,6.1916,6.2296,6.2741,6.3257,6.4217,6.4498,6.411,6.4654,6.455,6.3878,6.3287,6.2849,6.2576,6.2476,6.24,6.24,6.24,6.2702,6.3176,6.3409,6.4258,6.5395,6.5615,6.617,6.6791,5.3728,5.4073,5.4319,5.4159,5.4223,5.4255,5.4143,5.4062,5.4013,5.3997,5.3866,5.3819,5.3974,5.4142,5.4192,5.4108,5.4125,5.4211,5.4432,5.5077,5.5826,5.6679,5.7175,5.7722,5.8367,5.8188,5.8026,5.79,5.7568,5.7401,5.7366,5.6531,5.6347,5.6661,5.5794,5.5241,5.4984,5.4838,5.4592,5.4263,5.4151,5.4103,5.4146,5.4507,5.4713,5.4854,5.5175,5.5344,5.5446,5.5706,5.5883,5.6075,5.6636,5.6815,5.6796,5.6719,5.6898,5.7141,5.7279,5.7642,5.8179,5.8936,5.9719,6.0306,6.0243,6.0156,6.0089,6.0089,6.0335,6.0458,6.0159,6.0352,6.044,6.0142,6.0089,6.0089,6.0089,6.0089,6.0089,6.0089,6.0089,6.0089,6.0089,6.0089,6.0455,6.131,6.1381,6.1463,6.1691,6.1308,6.1616,6.2736,6.2383,6.2577,6.3397,6.4113,6.4199,6.3695,6.4352,6.4245,6.3493,6.3275,6.2906,6.24,6.24,6.24,6.24,6.24,6.2668,6.3091,6.3091,6.3818,6.4901,6.5172,6.5747,6.644,5.4206,5.4191,5.4126,5.3997,5.398,5.398,5.3964,5.38,5.3733,5.3915,5.36,5.3653,5.4397,5.4359,5.4479,5.4873,5.4856,5.5059,5.5631,5.5907,5.6369,5.7066,5.7151,5.7491,5.8189,5.7991,5.79,5.79,5.79,5.7881,5.7827,5.7044,5.6661,5.6583,5.5733,5.5155,5.4792,5.4792,5.4523,5.4124,5.4124,5.4103,5.4109,5.4327,5.4576,5.4834,5.5047,5.5221,5.5446,5.5706,5.5835,5.6079,5.7155,5.7309,5.7053,5.684,5.7302,5.78,5.7434,5.826,5.9386,6.0046,6.0616,6.1087,6.1391,6.0791,6.0194,6.0247,6.0862,6.1125,6.0317,6.0791,6.1037,6.023,6.0089,6.0089,6.0089,6.0089,6.0089,6.0089,6.0089,6.0089,6.0089,6.0089,6.0503,6.1506,6.2406,6.3041,6.3344,6.1573,6.1671,6.4058,6.2677,6.2456,6.362,6.3913,6.3731,6.3059,6.3722,6.3668,6.3019,6.3306,6.3057,6.24,6.24,6.24,6.24,6.24,6.24,6.24,6.24,6.2854,6.3579,6.4326,6.507,6.5818,5.4078,5.4045,5.398,5.38,5.3899,5.3899,5.3584,5.35,5.345,5.3399,5.3179,5.3361,5.424,5.4324,5.4796,5.5996,5.5449,5.5144,5.5452,5.6188,5.6754,5.71,5.7645,5.8019,5.8206,5.7991,5.79,5.79,5.79,5.7735,5.742,5.6724,5.6238,5.5917,5.5237,5.488,5.4792,5.4576,5.4433,5.4327,5.4151,5.4103,5.4109,5.4327,5.4576,5.4834,5.5047,5.5221,5.5446,5.5706,5.6278,5.6934,5.7379,5.7772,5.8009,5.7642,5.809,5.857,5.7938,5.8624,5.9638,6.0272,6.0717,6.1349,6.2742,6.2003,6.1178,6.1756,6.2019,6.1914,6.1142,6.1178,6.1037,6.023,6.0089,6.0089,6.0089,6.0089,6.0089,6.0089,6.0089,6.0089,6.0089,6.0089,6.0749,6.2299,6.2195,6.2889,6.4709,6.3229,6.2972,6.4431,6.3321,6.3118,6.3967,6.3803,6.3676,6.3623,6.3364,6.3232,6.3141,6.2824,6.2567,6.24,6.24,6.24,6.24,6.24,6.24,6.24,6.24,6.2854,6.3579,6.4326,6.507,6.5818,5.3899,5.3866,5.3816,5.3634,5.3684,5.3668,5.3366,5.3298,5.3365,5.3546,5.3475,5.3807,5.4912,5.5029,5.5445,5.6491,5.6069,5.5893,5.6247,5.6743,5.7108,5.7324,5.7715,5.7971,5.8062,5.7971,5.79,5.79,5.79,5.7698,5.7289,5.6611,5.61,5.5677,5.5072,5.4734,5.4613,5.4454,5.4348,5.4242,5.413,5.4103,5.4109,5.4237,5.4486,5.4813,5.4922,5.5155,5.5409,5.5584,5.6255,5.7168,5.7699,5.8405,5.9041,5.9064,5.9283,5.9422,5.8998,5.9791,6.09,6.1606,6.1983,6.243,6.3373,6.267,6.1915,6.2318,6.2405,6.2177,6.1441,6.13,6.1037,6.023,6.0089,6.0089,6.0089,6.0089,6.0089,6.0089,6.0089,6.0089,6.0089,6.0089,6.0679,6.2053,6.2264,6.297,6.4395,6.4007,6.3969,6.4475,6.3345,6.3006,6.3603,6.323,6.3174,6.3437,6.3286,6.3076,6.2851,6.2876,6.2719,6.24,6.24,6.24,6.24,6.24,6.24,6.24,6.24,6.2634,6.3125,6.4208,6.485,6.5341,5.3684,5.3617,5.3584,5.3433,5.3416,5.3348,5.3179,5.3228,5.3444,5.3906,5.4021,5.4534,5.5771,5.5902,5.6129,5.6707,5.6627,5.6766,5.722,5.7252,5.7346,5.7551,5.7551,5.7643,5.7808,5.7827,5.7845,5.7845,5.779,5.7551,5.7122,5.6456,5.5941,5.5495,5.4968,5.4592,5.4333,5.4333,5.4242,5.4103,5.4103,5.4103,5.4103,5.4103,5.4359,5.475,5.4904,5.5127,5.538,5.5518,5.6258,5.7221,5.7933,5.8966,6.0018,6.0463,6.0468,6.031,6.009,6.1033,6.2273,6.3067,6.3429,6.3618,6.3741,6.3144,6.2616,6.2705,6.2757,6.2512,6.1774,6.1652,6.1353,6.0423,6.0282,6.023,6.0107,6.0089,6.0089,6.0089,6.0089,6.0089,6.0089,6.0089,6.0538,6.1612,6.243,6.3074,6.3601,6.4234,6.4446,6.4199,6.3073,6.2634,6.2906,6.2576,6.2576,6.2904,6.3199,6.3007,6.2434,6.3057,6.299,6.24,6.24,6.24,6.24,6.24,6.24,6.24,6.24,6.24,6.2567,6.4055,6.4597,6.4816,5.3332,5.3281,5.3213,5.3041,5.299,5.2972,5.2938,5.3334,5.3644,5.3743,5.4147,5.4806,5.5784,5.5902,5.6185,5.6882,5.6944,5.6965,5.7027,5.7044,5.7139,5.7346,5.7346,5.7364,5.7383,5.7551,5.7643,5.7643,5.7308,5.6913,5.6436,5.5838,5.5209,5.4607,5.4502,5.4327,5.4151,5.4151,5.413,5.4103,5.4103,5.4103,5.4103,5.4103,5.4258,5.4576,5.5352,5.5424,5.5256,5.606,5.7109,5.7998,5.7531,5.8797,6.049,6.0571,6.1052,6.1248,6.0023,6.0786,6.211,6.2858,6.3326,6.3758,6.439,6.3951,6.3583,6.4197,6.4338,6.4127,6.3372,6.3231,6.2775,6.1353,6.1107,6.0879,6.0194,6.0089,6.0089,6.0089,6.0089,6.0089,6.0089,6.0089,6.0767,6.2389,6.2353,6.2835,6.4201,6.4059,6.3732,6.323,6.3015,6.2768,6.2498,6.242,6.242,6.2479,6.2555,6.2499,6.24,6.2516,6.2499,6.24,6.24,6.24,6.24,6.24,6.24,6.24,6.24,6.24,6.2567,6.4055,6.4597,6.4816,5.3213,5.311,5.3041,5.3059,5.3059,5.3024,5.2921,5.31,5.3513,5.4207,5.4514,5.509,5.62,5.6428,5.6599,5.6817,5.6834,5.6834,5.6834,5.6834,5.693,5.7139,5.7139,5.7195,5.7308,5.7495,5.7495,5.7271,5.7082,5.6644,5.5961,5.5475,5.4941,5.4396,5.4285,5.4194,5.4103,5.4103,5.4103,5.4103,5.4103,5.4103,5.4103,5.4103,5.4221,5.4486,5.5064,5.5195,5.5247,5.6189,5.721,5.8038,5.7818,5.8977,6.0485,6.0824,6.1656,6.2375,6.2003,6.2451,6.31,6.3624,6.3886,6.4147,6.4601,6.4443,6.4285,6.4636,6.4373,6.4004,6.3653,6.2915,6.2125,6.1423,6.0932,6.051,6.0142,6.0089,6.0089,6.0089,6.0089,6.0089,6.0089,6.0493,6.0988,6.1574,6.2312,6.2805,6.2984,6.329,6.3216,6.2693,6.2673,6.2576,6.24,6.24,6.24,6.24,6.24,6.24,6.24,6.24,6.24,6.24,6.24,6.24,6.24,6.24,6.24,6.24,6.24,6.24,6.2516,6.3616,6.4258,6.4749,5.2765,5.273,5.273,5.2851,5.2938,5.2972,5.2851,5.2949,5.338,5.4406,5.48,5.5358,5.6335,5.6734,5.6853,5.6658,5.6638,5.6638,5.6638,5.6638,5.6719,5.693,5.693,5.7006,5.7158,5.7271,5.7176,5.6853,5.6644,5.6215,5.5556,5.5127,5.4712,5.4327,5.4237,5.413,5.4103,5.4103,5.4103,5.4103,5.4103,5.4103,5.4103,5.4103,5.4289,5.4608,5.4931,5.5254,5.5651,5.6476,5.7277,5.7909,5.792,5.895,6.0251,6.0684,6.1851,6.3116,6.3691,6.3753,6.3793,6.4235,6.4411,6.4515,6.4654,6.4706,6.4654,6.4478,6.3986,6.353,6.3371,6.2494,6.1722,6.1353,6.0932,6.051,6.0142,6.0089,6.0089,6.0089,6.0265,6.037,6.037,6.1008,6.1368,6.1239,6.2283,6.2695,6.2115,6.2664,6.2834,6.24,6.24,6.24,6.24,6.24,6.24,6.24,6.24,6.24,6.24,6.24,6.24,6.24,6.24,6.24,6.24,6.24,6.24,6.24,6.24,6.24,6.2482,6.3223,6.3971,6.4715,5.1568,5.1824,5.2022,5.1908,5.2212,5.2498,5.2605,5.3047,5.3458,5.3738,5.4804,5.5587,5.5667,5.6302,5.6641,5.6444,5.6424,5.6424,5.6424,5.6424,5.6522,5.6699,5.6719,5.6719,5.6738,5.658,5.6483,5.6444,5.5637,5.5209,5.5127,5.467,5.4327,5.413,5.4306,5.4263,5.4103,5.4103,5.4103,5.4103,5.4103,5.4103,5.4103,5.4103,5.4498,5.5116,5.557,5.6157,5.6841,5.7355,5.7683,5.7811,5.7315,5.8367,5.9717,5.9649,6.1233,6.3078,6.3507,6.3355,6.324,6.4024,6.4446,6.4672,6.4706,6.4706,6.4496,6.3811,6.3635,6.3354,6.2634,6.3002,6.2951,6.1529,6.181,6.1738,6.03,6.0089,6.0089,6.0089,6.0756,6.1213,6.1213,6.1547,6.2057,6.2788,6.225,6.2204,6.2882,6.262,6.244,6.24,6.24,6.24,6.24,6.24,6.24,6.24,6.24,6.24,6.24,6.24,6.24,6.24,6.24,6.24,6.24,6.24,6.24,6.24,6.24,6.24,6.2482,6.3223,6.3971,6.4715,5.1385,5.1657,5.1891,5.1911,5.2269,5.2535,5.2589,5.2768,5.3083,5.364,5.4406,5.5104,5.5551,5.6266,5.6661,5.66,5.66,5.6408,5.5977,5.5974,5.5997,5.6076,5.6076,5.5897,5.5462,5.5503,5.5462,5.5357,5.5012,5.4779,5.4649,5.4348,5.4173,5.4087,5.4173,5.4173,5.4103,5.4103,5.4103,5.4103,5.4103,5.4103,5.415,5.4555,5.4618,5.4652,5.6006,5.6365,5.6413,5.7786,5.7999,5.7704,5.762,5.783,5.8272,5.922,6.0953,6.2603,6.2757,6.3082,6.3511,6.4057,6.4304,6.4428,6.4655,6.4338,6.3934,6.3653,6.3213,6.2915,6.3108,6.2599,6.2125,6.1985,6.1422,6.0756,6.0177,6.0089,6.0282,6.0774,6.1107,6.1378,6.1599,6.2196,6.2456,6.2284,6.2434,6.2561,6.2618,6.2479,6.24,6.24,6.24,6.24,6.24,6.24,6.24,6.24,6.24,6.24,6.24,6.24,6.24,6.24,6.24,6.24,6.24,6.24,6.24,6.24,6.24,6.24,6.2434,6.2702,6.3565,6.4647,5.0895,5.1172,5.1431,5.1512,5.1984,5.2357,5.2357,5.2628,5.298,5.3369,5.415,5.4792,5.5152,5.5863,5.6271,5.6192,5.6192,5.5994,5.5552,5.5515,5.5458,5.5377,5.5377,5.5156,5.4701,5.4768,5.4742,5.4612,5.4549,5.4438,5.4306,5.4173,5.4103,5.4103,5.4103,5.4103,5.4103,5.4103,5.406,5.3995,5.4081,5.406,5.4096,5.4834,5.495,5.4942,5.6373,5.6861,5.699,5.82,5.8162,5.7643,5.7837,5.7601,5.7577,5.9317,6.0754,6.1832,6.2206,6.2738,6.3305,6.3767,6.3983,6.4181,6.4515,6.4251,6.3881,6.3653,6.316,6.2879,6.3178,6.2354,6.1739,6.2019,6.116,6.0388,6.0142,6.0089,6.0388,6.1195,6.1494,6.1783,6.2127,6.2787,6.2916,6.2217,6.2578,6.2693,6.24,6.24,6.24,6.24,6.24,6.24,6.24,6.24,6.24,6.24,6.24,6.24,6.24,6.24,6.24,6.24,6.24,6.24,6.24,6.24,6.24,6.24,6.24,6.24,6.24,6.24,6.3328,6.4576,4.9896,5.0214,5.0506,5.0506,5.1207,5.1813,5.1794,5.2715,5.3269,5.2859,5.4085,5.4832,5.4361,5.4968,5.5323,5.5113,5.5093,5.5093,5.5093,5.5081,5.4946,5.4701,5.468,5.4701,5.468,5.4486,5.4375,5.4396,5.4194,5.4103,5.4103,5.4103,5.4103,5.4103,5.4103,5.4103,5.4103,5.4103,5.3974,5.3811,5.4033,5.399,5.3889,5.4768,5.555,5.624,5.674,5.7811,5.8944,5.8679,5.8162,5.7626,5.7821,5.7704,5.7909,5.9991,6.0588,6.0854,6.1973,6.2293,6.245,6.3049,6.3496,6.3914,6.4305,6.4533,6.4478,6.3741,6.3583,6.3337,6.2529,6.2389,6.216,6.1423,6.13,6.102,6.0212,6.0107,6.0405,6.1213,6.195,6.2571,6.2962,6.3352,6.3416,6.3038,6.2635,6.24,6.24,6.24,6.24,6.24,6.24,6.24,6.24,6.24,6.24,6.24,6.24,6.24,6.24,6.24,6.24,6.24,6.24,6.24,6.24,6.24,6.24,6.24,6.24,6.24,6.24,6.24,6.3328,6.4556,4.9896,5.0214,5.0467,5.0315,5.1269,5.2042,5.1893,5.2668,5.3219,5.3104,5.3915,5.446,5.4321,5.483,5.5225,5.5303,5.5003,5.4612,5.4147,5.3667,5.3377,5.329,5.3738,5.3782,5.3312,5.3239,5.3283,5.3496,5.3431,5.3474,5.3612,5.3817,5.3779,5.3618,5.3937,5.4017,5.3898,5.4038,5.3974,5.3811,5.3876,5.3854,5.3937,5.5128,5.5528,5.5658,5.7449,5.8151,5.8335,5.889,5.8437,5.7464,5.6665,5.6816,5.7529,5.8812,5.966,6.0366,6.1237,6.1461,6.1669,6.2569,6.2878,6.303,6.3291,6.3098,6.2812,6.2605,6.2439,6.223,6.1901,6.1498,6.1179,6.1103,6.0531,6.0029,5.9784,6.0435,6.1032,6.1259,6.2196,6.2874,6.2986,6.311,6.3002,6.2615,6.2459,6.24,6.24,6.24,6.24,6.24,6.24,6.24,6.24,6.24,6.24,6.24,6.24,6.24,6.24,6.24,6.24,6.24,6.24,6.24,6.24,6.24,6.24,6.24,6.24,6.24,6.2381,6.2189,6.2753,6.366,5.0279,5.0525,5.0743,5.0894,5.1705,5.2309,5.2191,5.2944,5.3455,5.3259,5.3824,5.415,5.3968,5.4326,5.4581,5.4607,5.4338,5.3975,5.3493,5.3084,5.2803,5.2713,5.3106,5.3113,5.2713,5.2803,5.2937,5.3093,5.3182,5.3283,5.3399,5.3562,5.3562,5.3399,5.3699,5.3758,5.3649,5.3764,5.3649,5.3358,5.3446,5.3602,5.391,5.5189,5.572,5.6007,5.7917,5.8482,5.8425,5.9081,5.855,5.7404,5.6263,5.6317,5.7018,5.832,5.9113,5.9794,6.0821,6.1102,6.1248,6.1854,6.2195,6.2433,6.2723,6.2592,6.2415,6.2415,6.2315,6.2119,6.1753,6.1205,6.0739,6.0479,5.9837,5.9301,5.9149,6.0045,6.0825,6.1149,6.2051,6.2738,6.2971,6.2908,6.2661,6.2268,6.2341,6.24,6.24,6.24,6.24,6.24,6.24,6.24,6.24,6.24,6.24,6.24,6.24,6.24,6.24,6.24,6.24,6.24,6.24,6.24,6.24,6.24,6.24,6.24,6.24,6.2341,6.2209,6.2056,6.2445,6.3116,5.0852,5.0994,5.1175,5.187,5.2356,5.2632,5.2591,5.3381,5.3825,5.338,5.3777,5.3894,5.3443,5.3606,5.3665,5.3421,5.3377,5.3299,5.3071,5.3049,5.296,5.2713,5.2691,5.2691,5.2691,5.2937,5.3049,5.3049,5.3239,5.3349,5.3349,5.3418,5.3449,5.3427,5.3533,5.3565,5.3543,5.3565,5.3315,5.2928,5.3099,5.3394,5.3875,5.509,5.6049,5.6858,5.8096,5.8724,5.9017,5.9103,5.841,5.7323,5.6351,5.6046,5.6424,5.8226,5.881,5.9177,6.0601,6.1053,6.1102,6.1102,6.1506,6.2017,6.2377,6.2627,6.2762,6.2762,6.2768,6.2533,6.1765,6.1179,6.0516,5.962,5.9148,5.8806,5.8489,5.928,6.014,6.0875,6.1647,6.2345,6.2838,6.2663,6.2394,6.2056,6.2229,6.2381,6.24,6.24,6.24,6.24,6.24,6.24,6.24,6.24,6.24,6.24,6.24,6.24,6.24,6.24,6.24,6.24,6.24,6.24,6.24,6.24,6.24,6.24,6.2381,6.2209,6.1997,6.1957,6.2273,6.2773,5.0792,5.0869,5.0967,5.1643,5.245,5.2876,5.2502,5.3227,5.3732,5.342,5.3664,5.3752,5.3421,5.3459,5.3459,5.3399,5.3255,5.3071,5.2803,5.2781,5.2758,5.2691,5.2691,5.2691,5.2691,5.2758,5.2781,5.2781,5.2848,5.2855,5.287,5.3598,5.3839,5.3673,5.457,5.4886,5.4743,5.4894,5.4818,5.4575,5.4644,5.4373,5.4149,5.548,5.5998,5.6191,5.757,5.845,5.8896,5.8189,5.7407,5.6596,5.5803,5.5706,5.6086,5.7232,5.8091,5.8896,5.9952,6.0672,6.1102,6.1102,6.1206,6.1314,6.1417,6.1588,6.1733,6.1733,6.1644,6.131,6.0391,5.98,5.9204,5.8548,5.8274,5.8303,5.8805,5.9812,6.0545,6.0663,6.1757,6.236,6.2014,6.1931,6.201,6.2285,6.2153,6.2189,6.2381,6.24,6.24,6.24,6.24,6.24,6.24,6.24,6.24,6.24,6.24,6.24,6.24,6.24,6.24,6.24,6.24,6.24,6.24,6.24,6.24,6.2381,6.2169,6.2037,6.1957,6.1652,6.1606,6.1862,5.0932,5.1053,5.1299,5.2322,5.293,5.3159,5.2922,5.3212,5.3402,5.3277,5.327,5.3226,5.3084,5.3173,5.3255,5.3255,5.3049,5.2848,5.2713,5.2691,5.2691,5.2691,5.2691,5.2691,5.2691,5.2691,5.2691,5.2691,5.2691,5.2691,5.2713,5.3196,5.335,5.3252,5.3841,5.4041,5.3943,5.4079,5.3973,5.3798,5.4122,5.4029,5.3875,5.5394,5.6039,5.629,5.7487,5.8152,5.8383,5.7786,5.7114,5.6385,5.5775,5.5685,5.6075,5.7461,5.8215,5.8884,6.0179,6.0821,6.1102,6.1102,6.1102,6.1102,6.1102,6.1186,6.1252,6.1252,6.0922,6.037,5.9529,5.8935,5.8316,5.756,5.7534,5.7803,5.8351,5.9338,6.01,6.0424,6.14,6.1897,6.1588,6.1648,6.175,6.1907,6.1974,6.2056,6.2209,6.2341,6.24,6.24,6.24,6.24,6.24,6.24,6.24,6.24,6.24,6.24,6.24,6.24,6.24,6.24,6.24,6.24,6.24,6.24,6.2325,6.2189,6.2056,6.1877,6.1692,6.1486,6.1555,6.1937,5.0897,5.1219,5.1724,5.3053,5.3365,5.3459,5.3399,5.3233,5.3071,5.3042,5.287,5.2758,5.2713,5.2893,5.3026,5.3026,5.2826,5.2691,5.2691,5.2691,5.2691,5.2691,5.2691,5.2691,5.2691,5.2691,5.2691,5.2691,5.2691,5.2691,5.2691,5.2837,5.286,5.2876,5.2983,5.3029,5.3029,5.3029,5.2901,5.2772,5.3323,5.353,5.3714,5.5221,5.6084,5.6629,5.7504,5.7869,5.7881,5.7802,5.7191,5.6455,5.6185,5.6019,5.6263,5.7994,5.8573,5.8976,6.0423,6.0899,6.104,6.104,6.1061,6.1102,6.1102,6.1102,6.1048,6.0953,6.034,5.9595,5.885,5.8243,5.7606,5.6835,5.6987,5.7382,5.7915,5.8661,5.9458,6.0327,6.0976,6.1379,6.1445,6.1543,6.1567,6.1506,6.1793,6.1977,6.2056,6.2285,6.24,6.24,6.24,6.24,6.24,6.24,6.24,6.24,6.24,6.24,6.24,6.24,6.24,6.24,6.24,6.24,6.24,6.2361,6.2209,6.198,6.1917,6.1692,6.14,6.1359,6.1617,6.2134,5.0211,5.0944,5.1678,5.2621,5.3322,5.3665,5.3437,5.3233,5.3004,5.2781,5.2915,5.296,5.2736,5.2736,5.2758,5.2758,5.2713,5.2691,5.2691,5.2691,5.2691,5.2691,5.2691,5.2691,5.2691,5.2691,5.2691,5.2691,5.2691,5.2691,5.2706,5.3291,5.3553,5.3583,5.4168,5.4429,5.4429,5.4429,5.4406,5.4383,5.4475,5.4521,5.4598,5.5422,5.603,5.659,5.7293,5.7693,5.7961,5.8345,5.7574,5.6612,5.7189,5.6913,5.6614,5.7676,5.8444,5.9046,5.9437,6.0135,6.076,6.076,6.094,6.1102,6.1102,6.1102,6.092,6.0291,5.9562,5.8817,5.8071,5.7382,5.6835,5.6716,5.6738,5.7238,5.8572,5.8853,5.9453,6.0829,6.1078,6.1272,6.1645,6.1375,6.1379,6.1877,6.1813,6.1911,6.2305,6.2381,6.24,6.24,6.24,6.24,6.24,6.24,6.24,6.24,6.24,6.24,6.24,6.24,6.24,6.24,6.24,6.24,6.2381,6.2153,6.2037,6.1977,6.1611,6.1445,6.1363,6.119,6.1189,6.145,5.0358,5.1091,5.1816,5.257,5.2964,5.316,5.3033,5.2922,5.2826,5.2713,5.2803,5.2826,5.2713,5.2691,5.2691,5.2691,5.2691,5.2691,5.2691,5.2691,5.2691,5.2691,5.2691,5.2691,5.2691,5.2691,5.2691,5.2691,5.2691,5.2691,5.2706,5.2999,5.3137,5.3137,5.3445,5.3583,5.3583,5.3583,5.3583,5.3614,5.3983,5.3922,5.3737,5.5161,5.5798,5.6129,5.7595,5.7775,5.7394,5.7705,5.7226,5.6559,5.6888,5.705,5.7302,5.8248,5.882,5.931,5.9915,6.0487,6.0919,6.0919,6.1002,6.1102,6.1102,6.1102,6.102,6.0688,5.9694,5.88,5.8469,5.7495,5.6699,5.6699,5.6699,5.7061,5.8138,5.8287,5.8833,6.0324,6.0854,6.1165,6.1355,6.1314,6.1379,6.1652,6.1793,6.1954,6.2169,6.2305,6.2341,6.2189,6.2189,6.2189,6.2189,6.2189,6.2246,6.24,6.24,6.24,6.24,6.24,6.24,6.24,6.24,6.24,6.2381,6.2113,6.1937,6.1793,6.1506,6.1338,6.121,6.1123,6.1102,6.1318]}]]